[[{"header":{"parameterUnit":"m.s-1","parameterCategory":1,"la1":30.6,"la2":29.2853,"lo1":-89.7004,"lo2":-87.6739,"dy":0.0162,"dx":0.0183,"nx":112,"ny":82,"refTime":"2023-03-27T18:00:00:Z","depth":0,"parameterNumber":2,"parameterNumberName":"U-component_of_WINDS"},"data":[0.0,0.0,0.0,0.0,0.0,0.0,0.0,0.0,0.0,0.0,0.0,0.0,0.0,0.0,0.0,0.0,0.0,0.0,0.0,0.0,0.0,0.0,0.0,0.0,0.0,0.0,0.0,0.0,0.0,0.0,0.0,0.0,0.0,0.0,0.0,0.0,0.0,0.0,0.0,0.0,0.0,0.0,0.0,0.0,0.0,0.0,0.0,0.0,0.0,0.0,0.0,0.0,0.0,0.0,0.0,0.0,0.0,0.0,0.0,0.0,0.0,0.0,0.0,0.0,0.0,0.0,0.0,0.0,0.0,0.0,0.0,0.0,0.0,0.0,0.0,0.0,0.0,0.0,0.0,0.0,0.0,0.0,0.0,0.0,0.0,0.0,0.0,0.0,0.0,0.0,4.3102,4.3814,4.2937,4.1863,4.0738,4.0666,4.1593,4.3776,0.0,0.0,0.0,0.0,0.0,0.0,0.0,0.0,0.0,0.0,0.0,0.0,0.0,0.0,0.0,0.0,0.0,0.0,0.0,0.0,0.0,0.0,0.0,0.0,0.0,0.0,0.0,0.0,0.0,0.0,0.0,0.0,0.0,0.0,0.0,0.0,0.0,0.0,0.0,0.0,0.0,0.0,0.0,0.0,0.0,0.0,0.0,0.0,0.0,0.0,0.0,0.0,0.0,0.0,0.0,0.0,0.0,0.0,0.0,0.0,0.0,0.0,0.0,0.0,0.0,0.0,0.0,0.0,0.0,0.0,0.0,0.0,0.0,0.0,0.0,0.0,0.0,0.0,0.0,0.0,0.0,0.0,0.0,0.0,0.0,0.0,0.0,0.0,0.0,0.0,0.0,0.0,0.0,0.0,0.0,0.0,0.0,0.0,0.0,0.0,0.0,0.0,0.0,0.0,4.0323,4.0297,4.0945,4.1491,4.1736,4.108,4.1562,4.3743,0.0,0.0,0.0,0.0,0.0,0.0,0.0,0.0,0.0,0.0,0.0,0.0,0.0,0.0,0.0,0.0,0.0,0.0,0.0,0.0,0.0,0.0,0.0,0.0,0.0,0.0,0.0,0.0,0.0,0.0,0.0,0.0,0.0,0.0,0.0,0.0,0.0,0.0,0.0,0.0,0.0,0.0,0.0,0.0,0.0,0.0,0.0,0.0,0.0,0.0,0.0,0.0,0.0,0.0,0.0,0.0,0.0,0.0,0.0,0.0,0.0,0.0,0.0,0.0,0.0,0.0,0.0,0.0,0.0,0.0,0.0,0.0,0.0,0.0,0.0,0.0,0.0,0.0,0.0,0.0,0.0,0.0,0.0,0.0,0.0,0.0,0.0,0.0,0.0,0.0,0.0,0.0,0.0,0.0,0.0,0.0,0.0,0.0,0.0,0.0,0.0,0.0,0.0,4.1993,4.1617,3.9696,4.092,4.1912,4.2025,4.1156,4.1723,4.4364,4.3816,0.0,0.0,0.0,0.0,0.0,0.0,0.0,0.0,0.0,0.0,0.0,0.0,0.0,0.0,0.0,0.0,0.0,0.0,0.0,0.0,0.0,0.0,0.0,0.0,0.0,0.0,0.0,0.0,0.0,0.0,0.0,0.0,0.0,0.0,0.0,0.0,0.0,0.0,0.0,0.0,0.0,0.0,0.0,0.0,0.0,0.0,0.0,0.0,0.0,0.0,0.0,0.0,0.0,0.0,0.0,0.0,0.0,0.0,0.0,0.0,0.0,0.0,0.0,0.0,0.0,0.0,0.0,0.0,0.0,0.0,0.0,0.0,0.0,0.0,0.0,0.0,0.0,0.0,0.0,0.0,0.0,0.0,0.0,0.0,0.0,0.0,0.0,0.0,0.0,0.0,0.0,0.0,0.0,0.0,0.0,0.0,0.0,0.0,0.0,0.0,0.0,0.0,4.2532,4.2688,4.0091,4.12,4.2205,4.2389,4.1309,4.1886,4.4885,4.4035,0.0,0.0,0.0,0.0,0.0,0.0,0.0,0.0,0.0,0.0,0.0,0.0,0.0,0.0,0.0,0.0,0.0,0.0,0.0,0.0,0.0,0.0,0.0,0.0,0.0,0.0,0.0,0.0,0.0,0.0,0.0,0.0,0.0,0.0,0.0,0.0,0.0,0.0,0.0,0.0,0.0,0.0,0.0,0.0,0.0,0.0,0.0,0.0,0.0,0.0,0.0,0.0,0.0,0.0,0.0,0.0,0.0,0.0,0.0,0.0,0.0,0.0,0.0,0.0,0.0,0.0,0.0,0.0,0.0,0.0,0.0,0.0,0.0,0.0,0.0,0.0,0.0,0.0,0.0,0.0,0.0,0.0,0.0,0.0,0.0,0.0,0.0,0.0,0.0,0.0,0.0,0.0,0.0,0.0,0.0,0.0,0.0,0.0,0.0,0.0,0.0,0.0,4.115,4.1104,4.0754,4.1054,4.1834,4.3194,4.1693,4.1967,4.4931,4.3839,0.0,0.0,0.0,0.0,0.0,0.0,0.0,0.0,0.0,0.0,0.0,0.0,0.0,0.0,0.0,0.0,0.0,0.0,0.0,0.0,0.0,0.0,0.0,0.0,0.0,0.0,0.0,0.0,0.0,0.0,0.0,0.0,0.0,0.0,0.0,0.0,0.0,0.0,0.0,0.0,0.0,0.0,0.0,0.0,0.0,0.0,0.0,0.0,0.0,0.0,0.0,0.0,0.0,0.0,0.0,0.0,0.0,0.0,0.0,0.0,0.0,0.0,0.0,0.0,0.0,0.0,0.0,0.0,0.0,0.0,0.0,0.0,0.0,0.0,0.0,0.0,0.0,0.0,0.0,0.0,0.0,0.0,0.0,0.0,0.0,0.0,0.0,0.0,0.0,0.0,0.0,0.0,0.0,0.0,0.0,0.0,0.0,0.0,0.0,0.0,0.0,0.0,4.2086,4.1966,4.0912,4.2086,4.307,4.3378,4.3098,4.3717,4.5704,0.0,0.0,0.0,0.0,0.0,0.0,0.0,0.0,0.0,0.0,0.0,0.0,0.0,0.0,0.0,0.0,0.0,0.0,0.0,0.0,0.0,0.0,0.0,0.0,0.0,0.0,0.0,0.0,0.0,0.0,0.0,0.0,0.0,0.0,0.0,0.0,0.0,0.0,0.0,0.0,0.0,0.0,0.0,0.0,0.0,0.0,0.0,0.0,0.0,0.0,0.0,0.0,0.0,0.0,0.0,0.0,0.0,0.0,0.0,0.0,0.0,0.0,0.0,0.0,0.0,0.0,0.0,0.0,0.0,0.0,0.0,0.0,0.0,0.0,0.0,0.0,0.0,0.0,0.0,0.0,0.0,0.0,0.0,0.0,0.0,0.0,0.0,0.0,0.0,0.0,0.0,0.0,0.0,0.0,0.0,0.0,0.0,0.0,0.0,0.0,0.0,0.0,4.2656,4.2525,4.216,4.1291,4.2645,4.3566,4.3442,4.3429,4.4333,4.6495,0.0,0.0,0.0,0.0,0.0,0.0,0.0,0.0,0.0,0.0,0.0,0.0,0.0,0.0,0.0,0.0,0.0,0.0,0.0,0.0,0.0,0.0,0.0,0.0,0.0,0.0,0.0,0.0,0.0,0.0,0.0,0.0,0.0,0.0,0.0,0.0,0.0,0.0,0.0,0.0,0.0,0.0,0.0,0.0,0.0,0.0,0.0,0.0,0.0,0.0,0.0,0.0,0.0,0.0,0.0,0.0,0.0,0.0,0.0,0.0,0.0,0.0,0.0,0.0,0.0,0.0,0.0,0.0,0.0,0.0,0.0,0.0,0.0,0.0,0.0,0.0,0.0,0.0,0.0,0.0,0.0,0.0,0.0,0.0,0.0,0.0,0.0,0.0,0.0,0.0,0.0,0.0,0.0,0.0,0.0,0.0,0.0,0.0,0.0,0.0,0.0,0.0,4.361,4.2024,4.1223,4.2019,4.2485,4.2936,4.345,4.2408,4.3346,0.0,0.0,0.0,0.0,0.0,0.0,0.0,0.0,0.0,0.0,0.0,0.0,0.0,0.0,0.0,0.0,0.0,0.0,0.0,0.0,0.0,0.0,0.0,0.0,0.0,0.0,0.0,0.0,0.0,0.0,0.0,0.0,0.0,0.0,0.0,0.0,0.0,0.0,0.0,0.0,0.0,0.0,0.0,0.0,0.0,0.0,0.0,0.0,0.0,0.0,0.0,0.0,0.0,0.0,0.0,0.0,0.0,0.0,0.0,0.0,0.0,0.0,0.0,0.0,0.0,0.0,0.0,0.0,0.0,0.0,0.0,0.0,0.0,0.0,0.0,0.0,0.0,0.0,0.0,0.0,0.0,0.0,0.0,0.0,0.0,0.0,0.0,0.0,0.0,0.0,0.0,0.0,0.0,0.0,0.0,0.0,0.0,0.0,0.0,0.0,0.0,0.0,0.0,4.4442,4.2938,4.2141,4.2995,4.3586,4.3865,4.38,4.3354,4.4395,4.7429,0.0,0.0,0.0,0.0,0.0,0.0,0.0,0.0,0.0,0.0,0.0,0.0,0.0,0.0,0.0,0.0,0.0,0.0,0.0,0.0,0.0,0.0,0.0,0.0,0.0,0.0,0.0,0.0,0.0,0.0,0.0,0.0,0.0,0.0,0.0,0.0,0.0,0.0,0.0,0.0,0.0,0.0,0.0,0.0,0.0,0.0,0.0,0.0,0.0,0.0,0.0,0.0,0.0,0.0,0.0,0.0,0.0,0.0,0.0,0.0,0.0,0.0,0.0,0.0,0.0,0.0,0.0,0.0,0.0,0.0,0.0,0.0,0.0,0.0,0.0,0.0,0.0,0.0,0.0,0.0,0.0,0.0,0.0,0.0,0.0,0.0,0.0,0.0,0.0,0.0,0.0,0.0,0.0,0.0,0.0,0.0,0.0,0.0,0.0,0.0,0.0,0.0,4.528,4.3513,4.2499,4.3336,4.4017,4.4256,4.3941,4.3474,4.4132,4.6255,0.0,0.0,0.0,0.0,0.0,0.0,0.0,0.0,0.0,0.0,0.0,0.0,0.0,0.0,0.0,0.0,0.0,0.0,0.0,0.0,0.0,0.0,0.0,0.0,0.0,0.0,0.0,0.0,0.0,0.0,0.0,0.0,0.0,0.0,0.0,0.0,0.0,0.0,0.0,0.0,0.0,0.0,0.0,0.0,0.0,0.0,0.0,0.0,0.0,0.0,0.0,0.0,0.0,0.0,0.0,0.0,0.0,0.0,0.0,0.0,0.0,0.0,0.0,0.0,0.0,0.0,0.0,0.0,0.0,0.0,0.0,0.0,0.0,0.0,0.0,0.0,0.0,0.0,0.0,0.0,0.0,0.0,0.0,0.0,0.0,0.0,0.0,0.0,0.0,0.0,0.0,0.0,0.0,0.0,0.0,0.0,0.0,0.0,0.0,0.0,0.0,0.0,4.6118,4.3929,4.2636,4.3462,4.4126,4.4391,4.4076,4.3115,4.3088,4.4447,0.0,0.0,0.0,0.0,0.0,0.0,0.0,0.0,0.0,0.0,0.0,0.0,0.0,0.0,0.0,0.0,0.0,0.0,0.0,0.0,0.0,0.0,0.0,0.0,0.0,0.0,0.0,0.0,0.0,0.0,0.0,0.0,0.0,0.0,0.0,0.0,0.0,0.0,0.0,0.0,0.0,0.0,0.0,0.0,0.0,0.0,0.0,0.0,0.0,0.0,0.0,0.0,0.0,0.0,0.0,0.0,0.0,0.0,0.0,0.0,4.5998,4.5978,0.0,0.0,0.0,0.0,0.0,0.0,0.0,0.0,0.0,0.0,0.0,0.0,0.0,0.0,0.0,0.0,0.0,0.0,0.0,0.0,0.0,0.0,0.0,0.0,0.0,0.0,0.0,0.0,0.0,0.0,0.0,0.0,0.0,0.0,0.0,0.0,0.0,0.0,0.0,0.0,4.699,4.4863,4.3782,4.5268,4.541,4.5362,4.5244,4.3751,4.3571,4.5289,4.4064,0.0,0.0,0.0,0.0,0.0,0.0,0.0,0.0,0.0,0.0,0.0,0.0,0.0,0.0,0.0,0.0,0.0,0.0,0.0,0.0,0.0,0.0,0.0,0.0,0.0,0.0,0.0,0.0,0.0,0.0,0.0,0.0,0.0,0.0,0.0,0.0,0.0,0.0,0.0,0.0,0.0,0.0,0.0,0.0,0.0,0.0,0.0,0.0,0.0,0.0,0.0,0.0,0.0,0.0,0.0,0.0,0.0,0.0,0.0,4.6009,4.5772,0.0,0.0,0.0,0.0,0.0,0.0,0.0,0.0,0.0,0.0,0.0,0.0,0.0,0.0,0.0,0.0,0.0,0.0,0.0,0.0,0.0,0.0,0.0,0.0,0.0,0.0,0.0,0.0,0.0,0.0,0.0,0.0,0.0,0.0,0.0,0.0,0.0,0.0,0.0,0.0,4.7805,4.5375,4.4113,4.5723,4.5773,4.5514,4.503,4.371,4.2948,4.3111,4.2603,0.0,0.0,0.0,0.0,0.0,0.0,0.0,0.0,0.0,0.0,0.0,0.0,0.0,0.0,0.0,0.0,0.0,0.0,0.0,0.0,0.0,0.0,0.0,0.0,0.0,0.0,0.0,0.0,0.0,0.0,0.0,0.0,0.0,0.0,0.0,0.0,0.0,0.0,0.0,0.0,0.0,0.0,0.0,0.0,0.0,0.0,0.0,0.0,0.0,0.0,0.0,0.0,0.0,4.5799,4.5623,4.4932,4.566,4.6025,4.6046,4.5808,4.5606,4.5517,4.6011,0.0,0.0,0.0,0.0,0.0,0.0,0.0,0.0,0.0,0.0,0.0,0.0,0.0,0.0,0.0,0.0,0.0,0.0,0.0,0.0,0.0,0.0,4.4327,4.2957,4.2143,4.1529,4.1005,0.0,0.0,0.0,0.0,0.0,0.0,0.0,0.0,0.0,0.0,0.0,4.8011,4.5587,4.4281,4.566,4.5758,4.5384,4.4554,4.3636,4.243,4.0845,4.1086,4.153,0.0,0.0,0.0,0.0,0.0,0.0,0.0,0.0,0.0,0.0,0.0,0.0,0.0,0.0,0.0,0.0,0.0,0.0,0.0,0.0,0.0,0.0,0.0,0.0,0.0,0.0,0.0,0.0,0.0,0.0,0.0,0.0,5.1536,5.1064,0.0,0.0,0.0,0.0,0.0,0.0,0.0,0.0,0.0,0.0,0.0,0.0,0.0,4.6675,4.7435,4.5127,4.4654,4.6035,4.5055,4.4382,4.4055,4.4538,4.4738,4.4764,4.4834,0.0,4.8852,4.7628,0.0,0.0,0.0,0.0,0.0,0.0,0.0,0.0,0.0,0.0,0.0,0.0,0.0,0.0,0.0,0.0,0.0,0.0,0.0,0.0,0.0,0.0,4.1588,4.0575,4.0395,4.044,4.0461,4.1874,4.2965,4.2455,4.1991,4.2717,0.0,0.0,0.0,0.0,0.0,0.0,4.6569,4.5455,4.5028,4.581,4.5844,4.5626,4.5285,4.4442,4.3522,4.2526,4.1518,4.1569,4.2856,4.24,0.0,0.0,0.0,0.0,0.0,0.0,0.0,0.0,0.0,0.0,0.0,0.0,0.0,0.0,0.0,0.0,0.0,0.0,0.0,0.0,0.0,0.0,0.0,0.0,0.0,0.0,0.0,0.0,0.0,5.0289,5.1753,5.1862,5.2251,5.2689,0.0,0.0,0.0,0.0,0.0,0.0,0.0,0.0,0.0,4.7271,4.7438,4.7061,4.5972,4.4865,4.4448,4.4697,4.4573,4.4326,4.3931,4.464,4.504,4.5235,4.5009,4.6356,4.8624,4.7572,4.7667,4.8497,0.0,0.0,0.0,0.0,4.6333,4.5514,4.4676,4.3993,4.3613,4.4407,0.0,0.0,0.0,0.0,0.0,0.0,0.0,4.6327,4.4965,4.4411,4.379,4.2011,4.2049,4.2259,4.1389,4.2168,4.2982,4.2668,4.2494,4.3574,4.7125,4.607,0.0,0.0,0.0,4.5929,4.6171,4.544,4.5156,4.5827,4.5843,4.5481,4.4729,4.4327,4.3732,4.2851,4.2079,4.1845,4.2277,4.2673,4.3688,0.0,0.0,0.0,0.0,0.0,0.0,0.0,0.0,0.0,0.0,0.0,0.0,0.0,0.0,0.0,0.0,0.0,0.0,0.0,0.0,0.0,0.0,0.0,0.0,0.0,0.0,0.0,0.0,5.0234,5.1781,5.268,5.2553,5.267,0.0,0.0,0.0,0.0,0.0,0.0,4.9371,4.9911,4.9088,4.6628,4.7136,4.649,4.4455,4.4437,4.4163,4.3543,4.4272,4.4285,4.3667,4.4568,4.5126,4.535,4.5103,4.6007,4.7598,4.6965,4.7098,4.7708,4.8195,4.7632,4.6582,4.695,4.6599,4.5828,4.4965,4.414,4.3513,4.3817,4.356,4.3171,4.3393,0.0,0.0,0.0,0.0,4.6618,4.5659,4.5844,4.584,4.3999,4.4034,4.4124,4.2886,4.3208,4.3483,4.265,4.2565,4.3643,4.6852,4.5309,0.0,4.778,4.6408,4.5239,4.5827,4.5518,4.5436,4.5891,4.5866,4.5445,4.4556,4.4441,4.4038,4.3157,4.2743,4.2366,4.2034,4.2493,4.2904,4.3202,0.0,0.0,0.0,0.0,0.0,0.0,0.0,0.0,0.0,0.0,0.0,0.0,0.0,0.0,0.0,0.0,0.0,0.0,0.0,0.0,0.0,0.0,0.0,0.0,0.0,0.0,0.0,0.0,0.0,5.3689,5.2807,0.0,0.0,0.0,0.0,5.1816,5.2105,5.1348,4.9238,4.8152,4.6557,4.4338,4.3632,4.3427,4.3637,4.376,4.3742,4.3584,4.4214,4.3962,4.2957,4.3795,4.4165,4.4207,4.4568,4.5452,4.6647,4.6156,4.6999,4.856,4.7847,4.7512,4.735,4.6548,4.5703,4.4853,4.4042,4.3737,4.3808,4.4511,4.5187,4.5457,4.4025,4.4646,0.0,0.0,4.5343,4.5647,4.4649,4.5043,4.5695,4.5417,4.5165,4.4943,4.4853,4.5461,4.5066,4.1728,4.0969,4.1412,4.3265,0.0,4.3235,4.4631,4.5459,4.5715,4.5137,4.5734,4.6197,4.6099,4.5912,4.5731,4.553,4.5343,4.4857,4.3997,4.3554,4.3194,4.2866,4.1686,4.225,4.4821,4.3476,0.0,0.0,0.0,0.0,0.0,0.0,0.0,0.0,0.0,0.0,0.0,0.0,0.0,0.0,0.0,0.0,0.0,0.0,0.0,0.0,0.0,0.0,0.0,0.0,0.0,0.0,0.0,0.0,5.2179,5.2195,0.0,5.3048,5.2375,5.1756,5.1392,5.019,4.8918,4.7554,4.6853,4.6059,4.5101,4.5426,4.5486,4.5204,4.5576,4.5443,4.4895,4.5109,4.5113,4.4912,4.4742,4.4885,4.5237,4.4995,4.5319,4.6022,4.5986,4.6681,4.7723,4.6911,4.6644,4.6679,4.6334,4.6007,4.5703,4.5419,4.4907,4.4275,4.3415,4.33,4.3305,4.2092,4.2493,4.3373,4.3617,4.4234,4.4893,4.5134,4.5409,4.5603,4.5513,4.5419,4.5262,4.4981,4.5322,4.5071,4.301,4.2674,4.3213,4.4938,4.3401,4.2718,4.4958,4.5183,4.5043,4.489,4.5625,4.6137,4.6052,4.5894,4.5728,4.5558,4.54,4.5163,4.4857,4.4627,4.426,4.3687,4.3126,4.2803,4.2799,4.2163,4.357,0.0,0.0,0.0,0.0,0.0,0.0,0.0,0.0,0.0,0.0,0.0,0.0,0.0,0.0,0.0,0.0,0.0,0.0,0.0,0.0,0.0,0.0,0.0,0.0,0.0,4.9948,5.0498,5.1761,5.17,5.1843,5.2589,5.1939,5.1124,5.0329,4.9012,4.7946,4.7234,4.6458,4.6018,4.6011,4.6392,4.6368,4.5928,4.6542,4.6424,4.5583,4.5895,4.5882,4.5533,4.53,4.5268,4.5394,4.5287,4.5417,4.5715,4.5911,4.6363,4.6872,4.6365,4.6202,4.6267,4.6211,4.6191,4.6192,4.6153,4.5553,4.4603,4.3363,4.2811,4.2478,4.1789,4.1923,4.2518,4.3339,4.3943,4.4542,4.5426,4.564,4.5586,4.5513,4.5476,4.5304,4.4687,4.48,4.4632,4.3466,4.3542,4.4009,4.4588,4.3159,4.2967,4.5954,4.5379,4.5129,4.6566,4.6367,4.6096,4.6098,4.5949,4.5808,4.5634,4.6032,4.6012,4.5335,4.5485,4.5138,4.4136,4.4495,4.437,4.3617,4.2936,4.3588,4.5612,0.0,0.0,0.0,0.0,0.0,0.0,0.0,0.0,0.0,0.0,0.0,0.0,0.0,0.0,0.0,0.0,0.0,0.0,0.0,0.0,0.0,0.0,0.0,5.0937,5.0182,5.0307,5.253,5.1453,5.0643,5.0984,5.0903,5.0236,4.8843,4.8861,4.8739,4.844,4.6948,4.632,4.6804,4.6038,4.5638,4.5676,4.6556,4.6535,4.5576,4.6554,4.6211,4.4711,4.5339,4.5181,4.4503,4.5323,4.568,4.5731,4.5912,4.6084,4.6211,4.627,4.6269,4.6202,4.62,4.6189,4.6172,4.6046,4.5493,4.4802,4.4589,4.4021,4.3419,4.3323,4.3269,4.341,4.4259,4.4461,4.4598,4.5391,4.5586,4.5568,4.5513,4.5438,4.5129,4.4164,4.4095,4.3943,4.291,4.333,4.3368,4.1779,4.2238,4.3924,4.7152,4.593,0.0,4.9942,4.7897,4.6177,4.6386,4.6235,4.6075,4.5932,4.7409,4.7466,4.5428,4.607,4.5802,4.4173,4.5486,4.6562,4.7337,4.5755,4.3845,4.1605,0.0,0.0,0.0,0.0,0.0,0.0,0.0,0.0,0.0,0.0,0.0,0.0,0.0,0.0,0.0,0.0,0.0,0.0,0.0,0.0,0.0,4.9162,4.9107,4.9348,4.9254,4.9495,5.0462,5.0606,5.0739,5.0985,5.1053,5.0726,4.985,4.9461,4.9006,4.8421,4.7289,4.6766,4.7003,4.6787,4.6722,4.6825,4.7434,4.7572,4.7314,4.767,4.7443,4.6613,4.6312,4.6025,4.5675,4.5437,4.5519,4.5866,4.5999,4.6113,4.6195,4.6164,4.6178,4.6197,4.6197,4.6138,4.6054,4.6065,4.591,4.556,4.4814,4.4395,4.4072,4.3371,4.3538,4.4051,4.4278,4.4724,4.5169,4.5399,4.5438,4.5457,4.5419,4.5419,4.5323,4.5052,4.5074,4.4689,4.3209,4.3131,4.2992,4.1963,4.2518,4.3387,4.4264,4.4927,4.5758,4.6955,4.6441,4.6729,4.8771,4.8921,4.8817,4.8649,4.8946,4.8026,4.5382,4.5413,4.5167,4.4411,4.4494,4.4373,4.3967,4.5328,4.5323,0.0,0.0,0.0,0.0,0.0,0.0,0.0,0.0,0.0,0.0,0.0,0.0,0.0,0.0,0.0,0.0,0.0,0.0,0.0,0.0,0.0,0.0,4.9329,4.8842,4.8819,4.8965,4.9267,4.9733,5.0405,5.0891,5.1103,5.1176,5.0947,5.0317,4.9866,4.9325,4.8694,4.786,4.7464,4.7627,4.7475,4.745,4.7554,4.7806,4.7947,4.7888,4.8172,4.7795,4.6794,4.6781,4.6355,4.5612,4.5477,4.5555,4.5833,4.6026,4.6135,4.6203,0.0,0.0,0.0,0.0,4.6095,4.5997,4.5944,4.5933,4.5852,4.5225,4.5012,4.4901,4.4306,4.447,4.4821,4.4785,4.5093,4.5438,4.5419,4.54,4.54,4.5399,4.538,4.5284,4.4919,4.4902,4.4573,4.3242,4.3041,0.0,4.2487,4.2815,4.3692,4.5247,4.5515,4.6047,4.7428,4.6588,4.6494,4.8164,4.833,4.8251,4.8086,4.8631,0.0,0.0,0.0,4.5582,4.5271,4.5519,0.0,0.0,0.0,4.5377,4.335,4.4165,0.0,0.0,4.2075,4.1988,0.0,0.0,0.0,0.0,0.0,0.0,0.0,0.0,0.0,0.0,0.0,0.0,0.0,0.0,0.0,0.0,4.9565,4.8826,4.9008,4.9217,4.9497,4.9928,5.0593,5.1093,5.1252,5.1284,5.1053,5.0433,5.0262,4.9876,4.9154,4.8735,0.0,0.0,0.0,4.8174,4.8133,4.8042,4.7946,4.7844,4.8269,4.7682,4.6255,4.709,4.6594,4.5099,4.5722,4.5959,4.5921,4.6143,4.6222,4.6206,4.6206,4.6229,4.6255,4.6134,4.603,4.5933,4.5775,0.0,0.0,4.5671,4.564,4.5693,4.5603,4.5586,4.5568,4.5438,4.5457,4.5476,4.54,4.54,4.5398,4.5398,4.5338,4.5107,4.4383,4.4308,4.4096,4.3282,4.3179,4.3246,4.3262,4.3246,4.4399,4.7762,4.6679,4.6474,4.9204,4.7342,4.5949,4.6377,4.6424,0.0,4.6247,4.7597,4.7511,4.5344,4.593,4.6253,4.6023,4.7095,4.6791,4.4953,4.5498,4.4348,4.1411,4.0324,4.0095,4.0716,4.2446,4.2549,0.0,0.0,0.0,0.0,0.0,0.0,0.0,0.0,0.0,0.0,0.0,0.0,0.0,0.0,0.0,5.0722,5.0109,4.9502,4.9276,4.9784,5.0253,5.0508,5.0899,5.1167,5.1141,5.1567,5.1397,5.0314,5.1247,5.1291,5.0011,5.0517,5.062,5.0171,5.0108,4.9943,4.968,4.9046,4.8738,4.8847,4.8601,0.0,4.7554,4.8172,4.7739,4.6629,4.7506,4.7571,4.7075,4.7125,4.6765,4.6205,4.6195,4.6144,4.6055,4.6025,4.5912,4.5757,4.5786,4.5757,4.5731,4.569,4.5693,4.5693,4.5568,4.5513,0.0,4.5419,4.5399,4.5399,4.5359,4.5317,4.5317,4.5317,4.5317,4.5258,4.5107,4.511,4.494,4.4115,4.4035,4.4085,4.421,4.4148,4.432,4.5055,4.5323,4.5629,4.6224,4.5873,4.6446,4.8813,4.9015,4.8971,4.8945,4.9129,4.8094,4.536,4.5023,4.472,4.4395,4.4331,4.3999,4.3292,4.33,4.2965,4.2271,4.1498,4.0687,3.9888,3.9556,3.9198,0.0,0.0,0.0,0.0,0.0,0.0,0.0,0.0,0.0,0.0,0.0,5.0291,5.1068,0.0,5.0546,5.1028,5.0407,4.9841,4.9803,5.0574,5.1217,5.1368,5.1697,5.2044,5.2416,5.2569,5.239,5.1761,5.2184,5.2186,5.1489,5.1741,5.17,5.1266,5.1102,5.0835,5.0356,4.9764,4.9423,4.9303,4.915,4.8771,4.822,4.8682,4.8409,4.7616,4.8169,4.8235,4.7918,4.7587,4.7239,4.6854,4.6425,4.6189,4.6085,4.6025,4.5925,4.58,4.5761,4.5735,4.5687,4.5657,4.564,4.5586,4.5495,4.5457,4.5495,4.5419,4.5419,4.5419,4.5359,4.5338,4.5338,4.5317,4.5297,4.5297,4.5297,4.5338,4.5284,4.4882,4.4825,4.488,4.493,4.4879,4.4862,4.4951,4.5208,4.5379,4.5341,4.5437,4.6049,4.749,4.762,4.7599,4.7601,4.7424,4.6645,4.5,4.4669,4.4252,4.3689,4.344,4.316,4.2783,4.2645,4.2526,4.2503,4.1831,4.0892,3.9664,3.8637,3.7682,0.0,0.0,0.0,0.0,0.0,0.0,0.0,5.0532,5.0767,4.9755,5.0104,5.0818,5.154,5.0982,5.067,5.1362,5.0666,5.0095,5.0342,5.128,5.2031,5.2341,5.2648,5.3058,5.3661,5.3596,5.3406,5.3167,5.321,5.3183,5.2968,5.2812,5.2558,5.2232,5.178,5.1318,5.0775,5.0268,4.9915,4.9658,4.9709,4.937,4.8787,4.9217,4.9087,4.8508,4.8658,4.8757,4.8755,4.8041,4.7773,4.7723,4.6683,4.6357,4.641,4.6074,4.5925,4.5841,4.5703,4.564,4.564,4.5586,4.5513,4.5476,4.5419,4.5457,4.5495,4.5419,4.5438,4.5476,4.5419,4.5399,4.5398,4.5338,4.5317,4.5297,4.5297,4.5338,4.5379,4.5398,4.54,4.54,4.5419,4.5419,4.5438,4.5547,4.5458,4.5359,4.5317,4.54,4.5472,4.55,4.549,4.5454,4.5451,4.5302,4.5065,4.472,4.4501,4.4146,4.3523,4.332,4.3069,4.2783,4.2444,4.2271,4.2271,4.1527,4.0587,3.9334,3.8314,3.6957,5.2072,5.0797,5.0286,5.0845,5.1089,5.1117,0.0,5.1338,5.1667,5.0663,5.0529,5.0856,5.1703,5.1164,5.0856,5.1699,5.1058,5.0462,5.0625,5.1432,5.2362,5.3327,5.3514,5.3518,5.3384,5.3914,5.3918,5.3078,5.4427,5.486,5.3899,5.405,5.392,5.3348,5.2303,5.1673,5.1488,5.0501,5.011,5.0295,4.9937,4.9773,4.9758,5.0355,5.0226,4.9552,4.9804,4.9913,4.9864,4.9002,4.8666,4.8505,4.6845,4.6674,4.7223,4.6191,4.5769,4.5696,4.5494,4.5438,4.5438,4.5419,4.5419,4.54,4.54,4.5438,4.5495,4.5419,4.5438,4.5495,4.5419,4.54,4.5398,4.5398,4.5338,4.5297,4.5297,4.5317,4.5317,4.5398,4.5399,4.5438,4.5545,4.5476,4.5418,4.5419,4.5359,4.5317,4.5297,4.5298,4.5381,4.5483,4.5381,4.5319,4.5319,4.5298,4.5213,4.5061,4.4474,4.4058,4.3849,4.3284,4.29,4.2783,4.1965,4.1471,4.1411,4.0521,3.9461,3.8281,3.7594,3.6764,5.1997,5.1316,5.1253,5.0951,5.1291,5.1648,5.1375,5.1607,5.1742,5.1272,5.1195,5.1313,5.1761,5.1643,5.1582,5.1856,5.1992,5.2088,5.2146,5.2971,5.3716,5.4133,5.4721,5.5059,5.4943,5.5109,5.5075,5.4766,5.5283,5.5474,5.5188,5.4824,5.4457,5.403,5.3066,5.2346,5.1962,5.1319,5.0976,5.0919,5.0566,5.0412,5.0491,5.0769,5.0792,5.0588,5.0776,5.0858,5.0793,4.992,4.9568,4.9422,4.8206,4.7638,4.7372,4.6357,4.5883,4.5742,4.5613,4.5512,4.54,4.54,4.54,4.5419,4.5495,4.553,4.5563,4.5623,4.5684,4.5728,4.5713,4.5642,4.5545,4.5473,4.5419,4.5338,4.5275,4.5275,4.5297,4.5297,4.5317,4.5359,4.5419,4.538,4.5338,4.5338,4.5317,4.5297,4.5297,4.5297,4.5319,4.5381,4.5341,4.5297,4.5297,4.5297,4.5151,4.4838,4.4438,4.4016,4.3623,4.3142,4.2862,4.2783,4.1836,4.1307,4.1325,4.0346,3.9292,3.8099,3.7836,3.6942,5.2045,5.1668,5.161,5.0733,5.1065,5.153,5.1308,5.1521,5.1718,5.1444,5.1431,5.1472,5.1617,5.1924,5.2235,5.2353,5.292,5.3391,5.3648,5.4318,5.4742,5.4708,5.5571,5.6154,5.6154,5.5965,5.5902,5.6018,5.5827,5.5808,5.5975,5.5238,5.4705,5.4535,5.3609,5.2946,5.2542,5.2017,5.1659,5.1521,5.1059,5.0855,5.0918,5.1029,5.1144,5.1261,5.1363,5.1384,5.1307,5.0449,5.0213,5.0295,4.9229,4.8555,4.808,4.7186,4.6562,4.6131,4.581,4.5918,4.6106,4.5645,4.5646,4.5819,4.5671,4.5642,4.5688,4.5757,4.5852,4.5894,4.5894,4.5835,4.5728,4.5584,4.5491,4.54,4.5277,4.5256,4.5256,4.5235,4.5235,4.5275,4.5297,4.5297,4.5297,4.5297,4.5297,4.5297,4.5297,4.5297,4.5275,4.5275,4.5254,4.5235,4.5275,4.5275,4.5129,4.4795,4.4484,4.4114,4.3642,4.3196,4.29,4.2804,4.1875,4.1256,4.0984,4.0139,3.9126,3.7958,3.7844,3.7026,0.0,5.1474,5.0578,5.0205,5.0237,5.0336,5.0178,5.1097,5.1779,5.1059,5.0966,5.1069,5.1186,5.1852,5.267,5.3506,5.3618,5.3877,5.4745,5.4929,5.4996,5.4977,5.5747,5.629,5.629,5.6121,5.6018,5.6096,5.6035,5.5975,5.6012,5.5238,5.4793,5.4793,5.3762,5.3243,5.3354,5.2319,5.1894,5.207,5.1266,5.0932,5.0998,5.1131,5.1261,5.1394,5.1403,5.1349,5.1245,5.042,5.0513,5.1005,4.9425,4.9255,4.982,4.9021,4.8048,4.7015,4.6048,4.6786,4.7923,4.6245,4.6264,4.6786,4.5955,4.575,4.5796,4.5796,4.5847,4.5894,4.5894,4.5894,4.5859,4.5728,4.5603,4.5488,4.54,4.5297,4.5213,4.5297,4.5254,4.5213,4.5297,4.5297,4.5297,4.5297,4.5297,4.5297,4.5297,4.5235,4.5192,4.5192,4.5148,4.5125,4.5192,4.5192,4.5192,4.5192,4.4636,4.426,4.4162,4.3461,4.3049,4.29,4.2065,4.1121,4.0121,3.9608,3.8725,3.7612,3.7266,3.6768,0.0,4.9625,4.9682,4.9752,4.9981,5.0278,5.0723,5.0996,5.1276,5.173,5.1884,5.2139,5.2855,5.321,5.3864,5.5256,5.4995,5.5058,5.6438,5.6153,5.6038,5.665,5.648,5.6764,5.7977,5.694,5.6197,5.616,5.6154,5.6078,5.5993,5.5238,5.4793,5.4793,5.3889,5.3442,5.3522,5.2601,5.2186,5.2285,5.1528,5.1172,5.1199,5.1247,5.1267,5.1277,5.126,5.1239,5.1209,5.0936,5.0984,5.1128,5.0549,5.013,4.9838,4.9605,4.9304,4.8837,4.7897,4.787,4.8208,4.7613,4.7226,4.695,4.6751,4.6341,4.5956,4.6046,4.608,4.6096,4.6103,4.608,4.6008,4.5917,4.5717,4.5519,4.5362,4.5178,4.5057,4.4967,4.4986,4.501,4.5014,4.5148,4.5426,4.6023,4.56,4.5235,4.5235,4.517,4.5125,4.5125,4.5125,4.5125,4.5125,4.5125,4.5125,4.5125,4.4827,4.4448,4.4095,4.3707,4.3303,4.292,4.2047,4.1542,4.1396,4.0545,4.0017,3.9844,3.9464,3.8716,4.8832,4.9293,4.9912,4.9599,4.9693,5.002,5.0589,5.0938,5.1234,5.176,5.243,5.2942,5.3003,5.3514,5.4279,5.5343,5.4944,5.5112,5.689,5.6285,5.6063,5.7125,5.6733,5.6832,5.7988,5.7048,5.6465,5.6718,5.6403,5.6116,5.5883,5.5382,5.5093,5.5093,5.4571,5.4351,5.4483,5.364,5.2971,5.2422,5.1693,5.1499,5.1796,5.1449,5.1445,5.1686,5.1314,5.1156,5.1163,5.116,5.1146,5.1141,5.1117,5.0755,5.027,5.0303,5.0324,5.0169,4.9012,4.8941,4.9246,4.8645,4.8057,4.7534,4.7295,4.6678,4.6047,4.6142,4.617,4.6209,4.6195,4.6164,4.6103,4.6027,4.5815,4.5568,4.5304,4.5071,4.4846,4.4726,4.4681,4.4707,4.4732,4.5195,4.5757,4.6399,4.6015,4.5649,4.5649,4.5582,4.5422,4.5099,4.5038,4.5057,4.5061,4.5061,4.5061,4.5103,4.4895,4.4549,4.4095,4.3804,4.3442,4.2994,4.2504,4.2195,4.2095,4.1614,4.1258,4.0993,4.0818,4.0112,4.9718,5.0306,5.0952,4.9701,4.9415,4.9529,4.9898,5.0903,5.1657,5.1367,5.266,5.3396,5.1928,5.2938,5.404,5.4144,5.3789,5.4235,5.6343,5.5585,5.526,5.6508,5.6572,5.6542,5.662,5.6542,5.6849,5.7634,5.6777,5.6082,5.575,5.567,5.5628,5.5628,5.569,5.5846,5.6098,5.5264,5.4058,5.2495,5.1752,5.182,5.2596,5.1703,5.1738,5.2469,5.1501,5.1076,5.108,5.1087,5.1039,5.099,5.1069,5.1093,5.1093,5.1093,5.1093,5.0903,4.9409,4.9924,5.0928,4.9333,4.8759,4.8502,4.7686,4.6824,4.6152,4.6152,4.6174,4.6196,4.6196,4.6189,4.6157,4.6037,4.5847,4.5596,4.5284,4.4929,4.4648,4.4493,4.4393,4.4393,4.4541,4.5502,4.6307,4.6523,4.6565,4.6546,4.6507,4.6335,4.5922,4.5086,4.4919,4.4938,4.4991,4.4991,4.5014,4.5103,4.4865,4.4568,4.4221,4.3823,4.3461,4.3141,4.3267,4.2986,4.2166,4.2767,4.24,4.1185,4.141,4.0921,4.9125,4.9238,4.9387,4.9337,4.9529,4.9919,5.0741,5.0998,5.1614,5.361,5.3386,5.3349,5.4981,5.4584,5.4844,5.7426,5.6132,5.5675,5.815,5.7128,5.6471,5.745,5.6943,5.7016,5.8304,5.7264,5.6852,5.771,5.6887,5.6271,5.6073,5.6024,5.5975,5.5975,5.5993,5.6046,5.6164,5.4724,5.3522,5.257,5.1737,5.1445,5.1658,5.1308,5.1247,5.1382,5.1039,5.0868,5.0866,5.0883,5.088,5.0841,5.0874,5.0874,5.089,5.1,5.1029,5.0984,5.0631,5.0789,5.107,5.0642,5.0048,4.9454,4.9229,4.8164,4.6989,4.6989,4.6542,4.6047,4.6047,4.6046,4.6046,4.6005,4.5893,4.5654,4.5227,4.4853,4.4484,4.4065,4.4482,4.4972,4.5188,4.6158,4.6932,4.7144,4.7262,4.7105,4.6496,4.5779,4.5214,4.4938,4.4895,4.4895,4.4919,4.4938,4.4943,4.5014,4.4943,4.4758,4.4438,4.4095,4.3721,4.332,4.3124,4.3175,4.3439,4.3508,4.3571,4.3594,4.3318,4.2551,4.9106,4.9307,4.9488,4.9552,5.0005,5.045,5.0378,5.1161,5.2172,5.3176,5.3262,5.339,5.4162,5.4467,5.4955,5.6107,5.5918,5.6305,5.8296,5.73,5.6731,5.777,5.707,5.6885,5.7863,5.707,5.6698,5.7198,5.671,5.6322,5.6131,5.602,5.5968,5.5968,5.5935,5.6007,5.6209,5.4919,5.4077,5.3682,5.2458,5.2264,5.2982,5.2081,5.1861,5.2162,5.1585,5.1029,5.0548,5.07,5.0682,5.0548,5.0738,5.0793,5.081,5.0877,5.0909,5.0925,5.0981,5.1009,5.1023,5.1043,5.0481,4.9757,4.9757,4.8839,4.7835,4.7835,4.7509,4.7045,4.6676,4.654,4.6433,4.6046,4.5814,4.5574,4.5226,4.4896,4.4616,4.4363,4.473,4.524,4.5685,4.6632,4.7484,4.7794,4.7953,4.7903,4.749,4.6345,4.5404,4.4952,4.4895,4.4895,4.4895,4.4895,4.4938,4.4943,4.4962,4.4732,4.427,4.4046,4.3703,4.3178,4.3142,4.3371,4.3912,4.3974,4.4162,4.4487,4.4072,4.3402,4.9546,4.9967,5.0393,5.0044,5.066,5.0994,4.97,5.1337,5.2826,5.1687,5.2609,5.3237,5.1976,5.3396,5.4449,5.3446,5.4741,5.6397,5.7895,5.7111,5.6772,5.775,5.7161,5.6636,5.6511,5.6503,5.6491,5.6504,5.6445,5.6317,5.6076,5.5954,5.5881,5.5885,5.5803,5.5913,5.6199,5.5378,5.5019,5.5072,5.351,5.3566,5.4977,5.3312,5.298,5.3629,5.2473,5.1353,5.0355,5.0586,5.0469,5.0221,5.0606,5.0757,5.0794,5.0891,5.0871,5.0812,5.0999,5.0996,5.0897,5.0966,5.0468,4.9846,4.9846,4.9292,4.8651,4.8651,4.8613,4.839,4.7645,4.7408,4.7146,4.6383,4.6024,4.5782,4.5547,4.5276,4.5095,4.5239,4.5315,4.5597,4.6202,4.7132,4.7932,4.8265,4.8447,4.8537,4.8586,4.7321,4.6106,4.516,4.5066,4.5028,4.4914,4.5033,4.5052,4.4938,4.5103,4.4829,4.4053,4.4023,4.3719,4.2995,4.3213,4.349,4.3849,4.4125,4.4308,4.4364,4.4053,4.3623,5.0429,5.0393,5.0383,5.0345,5.0979,5.1427,5.0624,5.1413,5.2298,5.2216,5.1938,5.2051,5.326,5.2699,5.312,5.6305,5.59,5.6242,5.926,5.8948,5.8238,5.7791,5.7636,5.7285,5.6581,5.6509,5.6499,5.6508,5.6542,5.6528,5.6411,5.634,5.63,5.6308,5.6187,5.6146,5.6201,5.535,5.4943,5.5002,5.409,5.3869,5.4197,5.3643,5.3478,5.3549,5.2358,5.1574,5.11,5.0689,5.0336,5.0049,5.0421,5.0584,5.072,5.1433,5.1299,5.0835,5.1622,5.1427,5.0827,5.089,5.0813,5.0703,5.0703,5.0085,4.9405,4.9405,4.8933,4.8396,4.8261,4.8155,4.8056,4.786,4.7717,4.753,4.711,4.6717,4.6467,4.648,4.6727,4.7011,4.7281,4.7935,4.8322,4.7956,4.8065,4.8012,4.7531,4.7378,4.6941,4.6051,4.5975,4.5716,4.5043,4.5632,4.577,4.5118,4.6114,4.6062,4.4624,4.4599,4.4278,4.3495,4.316,4.3142,4.3508,4.3474,4.3542,4.367,4.3557,4.3266,5.1393,5.1454,5.1318,5.0795,5.2036,5.2861,5.0718,5.1276,5.205,5.1267,5.0847,5.0867,5.1729,5.2325,5.3193,5.4733,5.6142,5.7579,5.9152,5.9526,5.929,5.8431,5.8042,5.7503,5.6595,5.6527,5.654,5.6504,5.6562,5.6588,5.6547,5.6494,5.6439,5.6396,5.6294,5.6246,5.6257,5.5869,5.5696,5.5726,5.4977,5.4872,5.5332,5.4617,5.4291,5.4235,5.3494,5.2675,5.1879,5.135,5.0937,5.0621,5.0524,5.0521,5.06,5.1005,5.095,5.0702,5.1164,5.1066,5.0775,5.0844,5.0844,5.0846,5.0846,5.0557,5.0209,5.0209,4.9972,4.9598,4.9103,4.8952,4.8803,4.8275,4.8068,4.793,4.772,4.7495,4.7434,4.7645,4.7672,4.7765,4.8113,4.831,4.8421,4.8282,4.8445,4.8509,4.8337,4.8409,4.8059,4.6942,4.6809,4.6683,4.629,4.6657,4.6763,4.6368,4.6826,4.6685,4.5735,4.5129,4.4524,4.398,4.3025,4.2808,4.3355,4.3069,4.3032,4.3245,4.3069,4.2641,5.2122,5.2508,5.2496,5.1735,5.3147,5.3913,5.0842,5.1308,5.1858,5.0024,5.0018,5.0256,5.0012,5.1637,5.2923,0.0,5.5349,5.7719,5.8492,5.9395,5.968,5.8957,5.8426,5.7674,5.6573,5.6543,5.6559,5.6499,5.6561,5.6601,5.6602,5.6528,5.6458,5.6402,5.6328,5.6284,5.6275,5.6335,5.636,5.6368,5.5824,5.6015,5.6813,5.5878,5.5432,5.5404,5.4881,5.3891,5.2585,5.195,5.1414,5.1014,5.0608,5.0478,5.0498,5.0689,5.0675,5.0602,5.0797,5.0779,5.0683,5.072,5.0757,5.0775,5.0775,5.0775,5.0756,5.0756,5.0829,5.0692,4.9963,4.9924,4.9889,4.9298,4.9064,4.8977,4.8958,4.8979,4.9029,4.9194,4.8843,4.8596,4.8826,4.8532,4.8382,4.8623,4.8853,4.9075,4.9289,4.9446,4.9116,4.8026,4.7723,4.7507,4.7318,4.7548,4.7637,4.7492,4.7494,4.7237,4.6651,4.5537,4.4675,4.4152,4.2831,4.2382,4.2885,4.2429,4.2239,4.2382,4.2119,4.1619,5.2246,5.3019,5.3579,5.3614,5.372,5.3368,5.1645,5.1806,5.1647,4.9303,5.0033,5.0869,5.0059,5.0013,0.0,0.0,0.0,5.4033,5.7728,5.8597,5.8838,5.8818,5.8821,5.818,5.6567,5.6469,5.651,5.6504,5.6559,5.6598,5.6601,5.6484,5.6413,5.6406,5.6275,5.6199,5.6204,5.623,5.6259,5.6316,5.6367,5.6842,5.7684,5.7327,5.7183,5.7113,5.5902,5.4542,5.3067,5.2024,5.1201,5.0541,5.0374,5.0367,5.0508,5.1293,5.1127,5.0636,5.1423,5.1173,5.0521,5.0542,5.0605,5.0701,5.0701,5.0682,5.0625,5.0701,5.0701,5.07,5.0696,5.122,5.1896,5.2444,5.251,5.2422,5.2422,5.2487,5.2341,5.1647,5.0825,5.0065,4.9457,4.8711,4.8265,4.8494,4.8802,4.909,4.9352,4.9712,4.9868,4.9626,4.87,4.7841,4.7109,4.7871,4.8113,4.7453,4.8337,4.8221,4.6676,4.5864,4.4895,4.3678,4.259,4.1853,4.1464,4.1087,4.0758,4.0466,4.0229,3.9951,5.2968,5.3983,5.455,5.4081,5.4685,5.4941,5.3281,5.268,5.1893,4.9846,4.9946,4.9994,4.8588,4.9504,0.0,0.0,0.0,0.0,5.4914,5.6713,5.7679,5.7172,5.7731,5.7712,5.6511,5.6494,5.6551,5.656,5.6575,5.6579,5.6532,5.6523,5.6499,5.6469,5.6375,5.6308,5.6308,5.6839,5.6855,5.6367,5.7519,5.7961,5.7812,5.8056,5.8159,5.8042,5.6806,5.5797,5.4874,5.3041,5.2022,5.1488,5.0653,5.0325,5.0363,5.073,5.0677,5.0473,5.084,5.0766,5.05,5.05,5.0542,5.0585,5.0585,5.0565,5.0565,5.0585,5.0605,5.0759,5.122,5.1928,5.2612,5.287,5.29,5.2858,5.2947,5.2567,5.213,5.1847,5.0786,4.9792,4.9461,4.8763,4.8286,4.8363,4.8731,4.9057,4.9155,4.9529,4.9646,4.9408,4.9294,4.9003,4.8487,4.8851,4.8888,4.8394,4.866,4.8412,4.7624,4.6515,4.5353,4.4107,4.2732,4.1695,4.092,4.0217,3.98,3.9614,3.8907,3.8137,5.2835,5.4389,5.5528,5.4892,5.524,5.5404,5.4177,5.3006,5.1753,5.024,4.9907,4.9517,4.8274,4.944,0.0,0.0,0.0,5.2877,5.3719,5.5441,5.6551,5.6423,5.7169,5.7334,5.6488,5.6508,5.6577,5.6599,5.6573,5.6543,5.6491,5.6543,5.6541,5.6464,5.6405,5.6386,5.6398,5.7251,5.7382,5.6801,5.8339,5.8898,5.8587,5.8927,5.9041,5.894,5.7961,5.7168,5.6396,5.439,5.3225,5.2561,5.1192,5.0531,5.0302,5.0302,5.0325,5.0367,5.0367,5.0393,5.0438,5.0438,5.0438,5.0438,5.0523,5.0544,5.0565,5.0566,5.0778,5.1259,5.2256,5.2897,5.3341,5.359,5.3432,5.3235,5.333,5.2705,5.2058,5.1851,5.0761,4.9776,4.9472,4.8797,4.8306,4.8306,4.8677,4.8971,4.9104,4.937,4.9461,4.9233,4.9499,4.9529,4.9206,4.9252,4.9233,4.9001,4.8601,4.8273,4.8082,4.6747,4.5294,4.3856,4.2458,4.1116,3.9918,3.9143,3.8674,3.8586,3.7671,3.6591,5.1401,5.3947,5.6577,5.6498,5.5182,5.391,5.3896,5.2516,5.0975,5.0166,4.9946,4.987,4.9795,4.9688,0.0,0.0,0.0,5.2003,5.5143,5.5197,5.5525,5.719,5.7518,5.7274,5.6481,5.6458,5.6522,5.6601,5.6534,5.6493,5.6503,5.6491,5.6474,5.6401,5.6344,5.6324,5.6411,5.7258,5.769,5.7693,5.8571,5.9478,6.0353,6.0102,5.9934,5.9866,5.9444,5.8563,5.727,5.5935,5.4691,5.3452,5.2107,5.1066,5.0302,5.0302,5.0302,5.0302,5.0302,5.0302,5.0302,5.0302,5.0302,5.0348,5.0546,5.0644,5.0701,5.0698,5.1333,5.2356,5.4033,5.4334,5.4369,5.5178,5.4776,5.4183,5.4183,5.3606,5.2831,5.1966,5.1256,5.0514,4.9655,4.8813,4.8306,4.8306,4.8586,4.8934,4.9252,4.9345,4.9424,4.948,4.9265,4.8971,4.8623,4.8785,4.889,4.8909,4.8216,4.7828,4.7809,4.6132,4.4349,4.2432,4.1373,3.9927,3.81,3.7637,3.7282,3.689,3.643,3.5389,5.1893,5.303,5.3869,5.3897,5.3494,5.309,5.3083,5.2635,5.1971,5.1135,5.0424,4.978,4.9167,4.9431,0.0,0.0,0.0,5.1873,5.233,5.3798,5.4835,5.4861,5.6037,5.677,5.6562,5.6562,5.6816,5.7374,5.7258,5.743,5.7964,5.7478,5.6944,5.6422,5.6386,5.666,5.7285,5.8144,5.8604,5.8666,6.009,6.0631,6.0411,6.0682,6.0759,6.0561,5.9095,5.8039,5.7153,5.465,5.3263,5.258,5.128,5.0597,5.0367,5.0367,5.0367,5.0348,5.0302,5.0302,5.0302,5.0302,5.0302,5.0348,5.0546,5.0606,5.076,5.146,5.2181,5.3012,5.4149,5.4242,5.4136,5.4384,5.3767,5.3131,5.323,5.2628,5.2024,5.1845,5.0931,5.0014,4.9502,4.8982,4.855,4.8326,4.8586,4.885,4.8934,4.9177,4.9271,4.9034,4.8885,4.8748,4.855,4.8606,4.8326,4.762,4.7391,4.6999,4.6466,4.5772,4.4302,4.192,4.1288,3.9797,3.7429,3.6845,3.6024,3.4978,3.4581,3.3561,0.0,5.1603,5.2531,5.2264,5.2218,5.2121,5.1791,5.1463,5.1164,5.0947,5.0179,4.9671,5.0051,0.0,0.0,5.1541,5.2197,5.2669,5.2861,5.397,5.4768,5.4801,5.579,5.6523,5.6566,5.6858,5.7242,5.7726,5.7858,5.813,5.8595,5.7776,5.7113,5.6744,5.6533,5.6864,5.7723,5.8582,5.9187,5.9572,6.0937,6.1334,6.0854,6.1097,6.0961,6.047,5.913,5.7997,0.0,5.4676,5.3277,5.2384,5.1314,5.0699,5.0412,5.0435,5.0435,5.039,5.0348,5.0325,5.0302,5.0302,5.038,5.0548,5.0731,5.0781,5.099,5.202,5.2488,5.2916,5.3764,5.3763,5.3505,5.3479,5.2806,5.2151,5.2253,5.1648,5.1104,5.122,5.0487,4.9757,4.9464,4.908,4.8694,4.8326,4.8458,4.8658,4.8781,4.8866,4.89,4.8781,4.8605,4.842,4.8226,4.8265,4.7955,4.7062,4.6837,4.6389,4.5649,4.5284,4.3943,4.1494,4.0935,3.9462,3.6951,3.618,3.5299,3.4317,3.3659,3.3041,0.0,4.9822,5.2166,5.1474,5.1312,5.1086,5.0276,0.0,0.0,0.0,0.0,0.0,0.0,0.0,0.0,5.4294,5.3933,5.3954,5.5659,5.5232,5.5176,5.6341,5.6493,5.6478,5.6478,5.7265,5.7814,5.7867,5.8357,5.8668,5.8651,5.7641,5.7158,5.7343,5.6834,5.6956,5.7785,5.8667,5.9498,6.0317,6.1175,6.1603,6.1595,6.1324,6.0674,5.9779,5.9377,5.8209,5.653,5.5594,5.4256,5.2709,5.192,5.1121,5.0435,5.0478,5.0478,5.0435,5.0412,5.0348,5.0302,5.0325,5.0548,5.084,5.1039,5.112,5.1314,5.2327,5.2368,5.2282,5.3099,5.2946,5.2584,5.2532,5.1897,5.1288,5.1288,5.071,5.0207,5.0278,5.0025,4.973,4.9464,4.908,4.873,4.8402,4.8306,4.8402,4.8711,4.8495,4.8364,4.8641,4.8382,4.8028,4.7759,4.7888,4.765,4.6937,4.6513,4.595,4.525,4.4546,4.3237,4.1148,4.0167,3.8634,3.6554,3.5638,3.4964,3.4631,3.3673,3.3451,4.7462,0.0,4.9814,5.0298,5.0412,5.0347,0.0,0.0,0.0,0.0,0.0,0.0,0.0,0.0,0.0,5.1394,5.2372,5.2948,5.2977,5.4211,5.5147,5.5269,5.6016,5.6416,5.6209,5.7116,5.8228,5.9444,5.9385,5.9553,6.0149,5.92,5.8381,5.7777,5.7287,5.7269,5.7728,5.922,6.0097,6.0311,6.1188,6.1606,6.1595,6.1269,6.0644,5.974,5.8735,5.766,5.6434,5.4295,5.3168,5.2652,5.1251,5.0675,5.0606,5.0459,5.0502,5.0606,5.0374,5.0302,5.0329,5.0488,5.064,5.085,5.1027,5.1162,5.1437,5.2353,5.2317,5.223,5.308,5.248,5.1635,5.1608,5.0916,5.0282,5.0335,5.019,5.0082,5.0133,5.0089,4.9922,4.9665,4.9321,4.9019,4.873,4.8458,4.8344,4.8402,4.8306,4.8265,4.8324,4.8126,4.7943,4.7861,4.7801,4.7284,4.6081,4.59,4.5407,4.4406,4.3602,4.2204,4.0176,3.7638,3.5939,3.5198,3.4949,3.4616,3.4264,3.3977,3.3596,4.7777,4.7892,4.8144,4.824,4.8543,4.8814,0.0,0.0,0.0,0.0,0.0,0.0,0.0,0.0,0.0,5.1049,5.2777,5.3895,5.3235,5.4181,5.492,5.4955,5.57,5.6222,5.6194,5.7412,5.8394,5.8828,5.9318,5.9782,6.0179,5.9128,5.8508,5.8525,5.7841,5.7677,5.8059,5.8992,5.9866,6.0624,6.1091,6.135,6.1386,6.0755,6.0013,5.9142,5.7924,5.6665,5.5345,5.397,5.2938,5.2179,5.1382,5.0932,5.0701,5.0682,5.0717,5.0769,5.0546,5.0396,5.0352,5.0604,5.0739,5.0845,5.1113,5.1242,5.1408,5.1873,5.1702,5.1518,5.1945,5.1401,5.0707,5.0662,5.0266,4.9925,4.9952,4.9933,4.9959,5.0057,5.0005,4.9879,4.9684,4.9309,4.8952,4.8781,4.8476,4.8286,4.8306,4.8247,4.8187,4.809,4.7966,4.7861,4.7717,4.7407,4.6799,4.5767,4.5648,4.4936,4.3423,4.2675,4.1119,3.8623,3.6557,3.5264,3.4698,3.4631,3.4481,3.4196,3.4074,3.3765,4.7819,4.7552,4.7105,4.6617,4.6839,4.7213,0.0,0.0,0.0,0.0,0.0,0.0,0.0,5.2085,5.2313,5.1526,5.3475,5.5016,5.4836,5.4933,5.5042,5.5143,5.5726,5.6175,5.6228,5.7657,5.8356,5.7812,5.8837,5.9571,5.9774,5.8477,5.815,5.9034,5.8125,5.7866,5.8355,5.8563,5.9374,6.0768,6.0884,6.0956,6.0906,6.0036,5.9051,5.7987,5.7094,5.5626,5.3887,5.3887,5.2971,5.1582,5.16,5.1241,5.07,5.0851,5.0913,5.0879,5.0736,5.0526,5.0402,5.0739,5.0826,5.0914,5.1206,5.1291,5.1303,5.1308,5.1004,5.067,5.0617,5.0303,4.9978,4.9925,4.9898,4.9898,4.9898,4.9898,4.9925,4.9978,4.9984,4.9948,4.9834,4.9431,4.908,4.8933,4.8548,4.8315,4.8247,4.8187,4.8108,4.801,4.7925,4.7759,4.7407,4.6954,4.6406,4.5648,4.5459,4.4429,4.2253,4.1439,3.9721,3.7054,3.6186,3.5365,3.4631,3.4481,3.4414,3.4346,3.4088,3.3882,4.6115,4.6569,4.7086,4.7995,4.7505,4.6849,0.0,0.0,0.0,0.0,0.0,0.0,0.0,4.8872,4.8096,5.0165,5.1452,5.3133,5.5733,5.6617,5.6657,5.5864,5.6656,5.6882,5.5968,5.6927,5.8141,5.9432,5.8896,5.9141,6.0545,5.8933,5.7946,5.7963,5.7245,5.72,5.7832,5.8847,5.9475,5.9725,6.0421,6.0403,5.9766,5.9483,5.8104,5.5972,5.6409,5.5205,5.2895,5.2895,5.2317,5.1358,5.064,5.0476,5.0605,5.0507,5.0663,5.0871,5.0682,5.0625,5.0678,5.0898,5.0998,5.1078,5.1242,5.1303,5.13,5.13,5.1004,5.067,5.0617,5.0303,4.9978,4.9925,4.9898,4.9898,4.9898,4.9898,4.9879,4.9906,5.0355,5.0759,5.077,5.0692,5.0398,4.9859,4.9279,4.8694,4.8123,4.7988,4.7943,4.7902,4.7801,4.7511,4.7044,4.6799,4.6262,4.5267,4.4947,4.3603,4.0896,3.909,3.7465,3.6143,3.5409,3.4854,3.4481,3.4414,3.4346,3.4128,3.4059,3.3937,4.5284,4.5266,4.5519,4.6769,4.7287,4.7658,0.0,0.0,0.0,0.0,0.0,0.0,0.0,4.9428,5.0183,5.2844,5.2424,5.2779,5.5728,5.59,5.5786,5.595,5.6295,5.6376,5.5948,5.6772,5.7458,5.7772,5.7757,5.8298,5.9533,5.8229,5.7843,5.8692,5.7435,5.7257,5.8349,5.8029,5.8553,5.9881,6.0246,6.0046,5.9254,5.8289,5.6961,5.542,5.474,5.3746,5.2653,5.2653,5.2132,5.137,5.1037,5.0744,5.0489,5.0509,5.0605,5.0715,5.0643,5.0642,5.0731,5.0937,5.1062,5.1131,5.1269,5.133,5.1349,5.1303,5.1092,5.0816,5.0653,5.039,5.0125,4.9933,4.9898,4.9898,4.9898,4.9898,4.9898,4.9898,5.0449,5.0768,5.0363,5.0389,5.0249,4.9557,4.8954,4.847,4.8206,4.7988,4.7902,4.7902,4.7759,4.7331,4.6409,4.5975,4.5338,4.4331,4.3177,4.1445,3.8996,3.7474,3.6137,3.4804,3.4775,3.4584,3.4375,3.4359,3.4346,3.4264,3.4128,3.4005,4.472,4.4507,4.4454,4.5461,0.0,0.0,0.0,0.0,0.0,0.0,0.0,0.0,0.0,5.077,5.2503,5.435,5.3305,5.3165,5.5843,5.5503,5.5316,5.6212,5.6217,5.6092,5.6031,5.6643,5.6837,5.6355,5.6778,5.7511,5.8596,5.7485,5.7487,5.8991,5.7445,5.7197,5.841,5.7219,5.7793,6.014,5.9949,5.9359,5.8383,5.7115,5.5766,5.4374,5.3143,5.2372,5.1984,5.2148,5.1749,5.1052,5.1133,5.0826,5.0361,5.051,5.0548,5.0548,5.0605,5.0678,5.0781,5.097,5.1097,5.1171,5.1277,5.1343,5.1369,5.1317,5.12,5.0991,5.0668,5.0471,5.0252,4.9986,4.9898,4.9898,4.9898,4.9898,4.9898,4.9898,5.0402,5.0632,5.0011,5.0112,5.0007,4.9315,4.8696,4.8291,4.8208,4.7947,4.7759,4.7759,4.7657,4.7039,4.565,4.4909,4.4078,4.2969,4.104,3.9376,3.8009,3.6483,3.5115,3.4134,3.4592,3.4725,3.4523,3.4581,3.4654,3.4654,3.4332,3.4074,4.4267,4.4914,4.518,4.5454,4.4353,0.0,4.751,4.7261,0.0,4.9681,0.0,0.0,0.0,5.164,5.1745,5.1308,5.2352,5.4104,5.6733,5.71,5.7135,5.7279,5.7339,5.7024,5.618,5.6218,5.6562,5.725,5.6665,5.7016,5.8692,5.7178,5.6611,5.734,5.6527,5.6383,5.704,5.6945,5.7906,5.9899,5.9159,5.7965,5.6421,5.6348,5.4572,5.1635,5.2315,5.168,5.0233,5.0856,5.0685,5.002,4.9882,4.999,5.0236,5.0361,5.0406,5.0446,5.0625,5.0786,5.0923,5.1125,5.1239,5.131,5.1369,5.1343,5.1317,5.1291,5.1289,5.1181,5.0716,5.051,5.0317,4.9986,4.9898,4.9898,4.9898,4.9898,4.9898,4.9898,5.0285,5.0598,5.056,5.0636,5.0503,4.9843,4.919,4.852,4.7943,4.756,4.7345,4.7345,4.7302,4.6632,4.4865,4.3729,4.25,4.0909,3.9016,3.8296,3.9208,3.6041,3.437,3.4659,3.5223,3.5444,3.5247,3.5326,3.5335,3.5335,3.4654,3.4264,4.244,4.322,4.4168,4.5183,0.0,0.0,0.0,4.8918,4.8558,4.9314,5.0301,0.0,5.142,5.2774,5.3637,5.3048,5.3664,5.494,5.6979,5.6888,5.6822,5.7397,5.7048,5.6605,5.6207,5.6201,5.6337,5.664,5.6375,5.6719,5.7929,5.6855,5.657,5.7349,5.6608,5.6495,5.7079,5.6084,5.6425,5.8023,5.7685,5.6561,5.4761,5.4275,5.3022,5.1214,5.1022,5.0548,4.9971,5.022,5.0163,4.9879,4.9843,4.9898,5.0012,5.007,5.0174,5.0333,5.0418,5.0681,5.097,5.1043,5.1181,5.1297,5.1336,5.1343,5.1343,5.1317,5.1234,5.1092,5.07,5.0565,5.0411,5.0,4.9898,4.9898,4.9898,4.9898,5.005,5.0599,5.0751,5.076,5.0704,5.0583,5.0229,4.9306,4.8574,4.8,4.771,4.7196,4.6916,4.7116,4.6141,4.4966,4.366,4.2165,4.1023,4.0348,3.9349,3.8527,3.7971,3.6489,3.5514,3.5259,3.575,3.6021,3.5888,3.5984,3.6009,3.6009,3.5335,3.489,4.2131,4.2767,4.3738,0.0,0.0,0.0,5.0047,5.0445,5.019,5.071,5.187,5.2642,5.2246,5.3479,5.441,5.4082,5.4263,5.4932,5.6348,5.6131,5.5979,5.628,5.6115,5.5823,5.5485,5.5687,5.5862,5.5862,5.6096,5.6504,5.715,5.6625,5.6566,5.7169,5.665,5.6422,5.6567,5.5476,5.5131,5.5511,5.5422,5.4737,5.3531,5.2952,5.2011,5.077,5.0144,4.9898,4.9898,4.9843,4.9843,4.9843,4.9879,4.9898,4.9879,4.9906,5.0057,5.0231,5.0302,5.0587,5.0908,5.0984,5.1141,5.1291,5.1336,5.1343,5.1421,5.1648,5.1423,5.1152,5.1341,5.0969,5.0431,5.0,4.9898,4.9898,4.9898,4.9898,5.0144,5.1035,5.077,5.0553,5.1005,5.0542,4.9893,4.9067,4.8342,4.7759,4.7353,4.6817,4.6542,4.6731,4.5414,4.4113,4.3203,4.1523,4.0397,4.0055,3.9471,3.8675,3.7647,3.679,3.6159,3.5844,3.635,3.6628,3.6628,3.6667,3.6707,3.6707,3.577,3.532,4.3767,4.4011,0.0,0.0,0.0,0.0,5.1073,5.1303,5.1492,5.439,5.4938,5.464,5.3835,5.3593,5.3505,5.357,5.3635,5.3969,5.4785,5.5002,5.4775,5.3899,5.4612,5.4824,5.3896,5.4567,5.5082,5.5082,5.5822,5.6339,5.6464,5.6464,5.6464,5.6464,5.6483,5.6074,5.5197,5.5197,5.4275,5.2495,5.2363,5.2447,5.2781,5.2717,5.1668,4.9879,4.9879,4.9879,4.9898,4.9778,4.9692,4.9721,4.9843,4.9898,4.9925,4.9959,5.0005,5.0057,5.0306,5.0548,5.0723,5.0926,5.1123,5.1317,5.1388,5.1343,5.1486,5.2343,5.1852,5.1406,5.2735,5.1741,5.0336,5.0005,4.9917,4.9898,4.9917,4.9917,5.0182,5.1054,5.0229,4.994,5.1611,5.0618,4.952,4.9325,4.8717,4.7911,4.6813,4.6411,4.6186,4.6186,4.5284,4.4385,4.362,4.1976,4.0672,3.9935,3.9063,3.8672,3.8805,3.6764,3.5844,3.6413,3.7005,3.7323,3.7268,3.7377,3.7417,3.7358,3.5819,3.5385,4.2579,4.3572,0.0,4.6841,0.0,0.0,0.0,5.1082,0.0,0.0,5.4017,5.3582,5.2733,5.3249,5.3487,5.2544,5.2666,5.3147,5.3934,5.4164,5.4167,5.391,5.4117,5.4164,5.3818,5.4032,5.4177,5.4113,5.4346,5.4494,5.4525,5.4587,5.4607,5.4607,5.5238,5.5178,5.4301,5.4246,5.3593,5.2348,5.1601,5.1252,5.1239,5.1146,5.0689,5.0057,5.0057,5.0012,4.9978,4.9871,4.9843,4.9843,4.9879,4.9898,4.9879,4.9906,4.9978,5.0005,5.0089,5.0272,5.0529,5.0723,5.092,5.1122,5.1273,5.1219,5.1139,5.1392,5.1063,5.0683,5.1045,5.1075,5.1135,5.1556,5.1225,5.0978,5.1547,5.1661,5.1736,5.2002,5.1096,5.0571,5.1401,5.0472,4.9441,4.8871,4.8344,4.747,4.5992,4.5837,4.5854,4.5667,4.4964,4.3927,4.2513,4.1354,4.0154,3.8894,3.8618,3.8504,3.8655,3.7485,3.6989,3.7432,3.7142,3.7086,3.7351,3.7381,3.7417,3.7358,3.6072,3.5563,4.2935,4.424,0.0,4.7739,4.8672,4.9563,5.1117,0.0,0.0,0.0,5.378,5.347,5.2949,5.3144,5.3228,5.273,5.2297,5.2294,5.3115,5.3345,5.3284,5.2918,5.3142,5.3189,5.2796,5.3016,5.33,5.3637,5.3961,5.4297,5.4673,5.4735,5.4758,5.4758,5.5296,5.5034,5.3838,5.3705,5.3003,5.1735,5.0999,5.0587,5.0529,5.0399,5.0255,5.0057,5.0082,5.0057,5.0005,4.9952,4.9906,4.9898,4.9898,4.9898,4.9879,4.9925,4.9978,4.9986,5.0031,5.0217,5.0406,5.0529,5.069,5.086,5.0984,5.0946,5.0986,5.1644,5.1355,5.1092,5.2043,5.2018,5.1706,5.148,5.1547,5.1736,5.1907,5.2038,5.2251,5.2609,5.1621,5.1041,5.1955,5.0677,4.9386,4.8856,4.7665,4.6477,4.5458,4.5441,4.5321,4.4782,4.4211,4.3261,4.1772,4.0689,3.9735,3.8877,3.8553,3.8391,3.8319,3.7842,3.7625,3.787,3.7339,3.7165,3.7417,3.7417,3.7417,3.7342,3.6352,3.5849,4.4307,0.0,0.0,4.8551,4.986,0.0,5.0956,5.1725,5.266,5.3575,5.3822,5.3844,5.3767,5.3112,5.2782,5.3428,5.2265,5.1528,5.2264,5.2469,5.2253,5.1391,5.1947,5.2095,5.1366,5.1833,5.2569,5.3494,5.425,5.5029,5.5899,5.5941,5.5968,5.5948,5.6058,5.5281,5.3591,5.3446,5.2539,5.0859,5.0548,5.0383,5.0361,5.0287,5.0182,5.0031,5.0082,5.0082,5.0031,5.0005,4.9959,4.9925,4.9879,4.9898,4.9925,4.9978,5.0005,5.0005,5.0057,5.0217,5.0361,5.0383,5.047,5.0582,5.06,5.0582,5.0892,5.2415,5.2219,5.2058,5.4301,5.3682,5.1992,5.0298,5.1168,5.2134,5.1367,5.1487,5.1959,5.2671,5.164,5.1084,5.2518,5.0804,4.9151,4.8813,4.6673,4.5066,4.5015,4.4998,4.4687,4.3807,4.3266,4.2572,4.1403,4.0237,3.9541,3.9493,3.8739,3.8148,3.7886,3.7822,3.7822,3.7828,3.7472,3.7294,3.7298,3.7298,3.7298,3.7298,3.6507,3.6133,4.4856,4.6815,0.0,0.0,5.1419,5.162,5.1053,5.1278,5.1706,5.1902,5.2495,5.2733,5.1946,5.2154,5.2251,5.1618,5.1261,5.1132,5.1375,5.1462,5.1445,5.1257,5.1373,5.1608,5.1942,5.2128,5.2514,5.3314,5.3528,5.3739,5.3984,5.4045,5.4091,5.4173,5.4867,5.4427,5.2686,5.3116,5.2408,5.0586,5.0361,5.0144,5.0019,5.0089,5.0158,5.0163,5.0163,5.0163,5.0139,5.0038,5.0005,4.9978,4.9925,4.9898,4.9879,4.9925,4.9906,4.9906,4.9952,4.9959,5.0044,5.0252,5.0344,5.0389,5.0546,5.0491,5.0445,5.0809,5.108,5.1345,5.1563,5.182,5.1657,5.0176,5.0956,5.1882,5.1395,5.1244,5.11,5.0672,4.9969,4.9474,4.9531,4.8675,4.76,4.6505,4.5144,4.4048,4.3545,4.3672,4.3797,4.3548,4.3356,4.2914,4.2162,4.0718,3.9686,3.914,3.8184,3.7594,3.7535,3.7227,3.7096,3.7225,3.6541,3.6347,3.6662,3.6662,3.6662,3.6662,3.607,3.5608,4.536,0.0,0.0,5.1206,0.0,5.146,5.1037,5.1162,5.1349,5.1391,5.1767,5.1895,5.1268,5.1494,5.1566,5.095,5.0935,5.1015,5.1088,5.1489,5.1784,5.1823,5.1742,5.1975,5.2748,5.2401,5.2605,5.3803,5.388,5.4072,5.4516,5.4608,5.468,5.4749,5.5223,5.4831,5.3514,5.3185,5.2314,5.0938,5.0266,4.9952,4.9906,5.0057,5.0133,5.0188,5.0236,5.0231,5.0188,5.0108,5.0031,4.9978,4.9843,4.9788,4.9788,4.9683,4.9607,4.9529,4.9529,4.945,4.9401,4.9551,4.957,4.9599,4.9713,4.9679,4.9665,5.0081,5.0425,5.0697,5.0804,5.118,5.1169,4.9804,5.0509,5.1351,5.0674,5.0618,5.0554,5.0013,4.9489,4.8983,4.855,4.7713,4.6691,4.5417,4.4463,4.376,4.3448,4.3227,4.2944,4.2463,4.2325,4.1943,4.1051,3.9902,3.9039,3.8629,3.7812,3.7027,3.6415,3.6182,3.6259,3.66,3.5844,3.5641,3.6085,3.6085,3.6211,3.6352,3.6085,3.5623,4.5688,0.0,4.9015,5.1312,5.1539,0.0,5.1043,5.1142,5.1303,5.1362,5.1388,5.133,5.1152,5.1109,5.1017,5.0834,5.0883,5.1044,5.125,5.191,5.2453,5.2655,5.2388,5.2582,5.3591,5.2778,5.2897,5.4592,5.4707,5.5035,5.5748,5.5846,5.5827,5.5749,5.5903,5.5421,5.4262,5.3272,5.2217,5.1166,5.0174,4.9759,4.9906,5.0057,5.0133,5.0207,5.0255,5.0255,5.0188,5.0133,5.0057,4.9978,4.9778,4.9644,4.9585,4.9396,4.9169,4.9019,4.9019,4.8919,4.8816,4.8763,4.8763,4.8763,4.8763,4.8763,4.8911,4.967,4.9968,5.0173,5.0639,5.0693,5.026,4.9094,4.9419,4.9866,4.926,4.9323,4.9412,4.9136,4.8692,4.8238,4.7752,4.6931,4.5839,4.4626,4.3961,4.3509,4.3251,4.2846,4.2122,4.1197,4.1084,4.0625,3.9692,3.867,3.7997,3.7888,3.7095,3.6104,3.51,3.4955,3.513,3.5593,3.4993,3.4927,3.5335,3.5479,3.5672,3.6006,3.6085,3.5816,0.0,0.0,5.1566,0.0,5.1932,5.1846,0.0,5.1117,5.1239,5.13,5.1356,5.1356,5.1201,5.1078,5.0978,5.0822,5.0808,5.1112,5.1947,5.2196,5.2574,5.3281,5.2674,5.2768,5.4227,5.3551,5.3722,5.5416,5.5551,5.563,5.5787,5.5826,5.5499,5.4824,5.5519,5.4786,5.247,5.2856,5.2104,5.0264,4.989,4.9759,4.9906,5.0057,5.0108,5.0108,5.0163,5.0212,5.0188,5.0063,5.0005,4.9978,4.9778,4.9518,4.9246,4.9048,4.8829,4.8655,4.8655,4.8728,4.8763,4.8655,4.862,4.862,4.862,4.862,4.8692,4.8911,4.9449,4.988,4.963,4.9034,4.8362,4.7683,4.668,4.5972,4.6607,4.6535,4.6213,4.5736,4.5576,4.5253,4.4566,4.4788,4.4553,4.3119,4.2801,4.2357,4.1062,4.1169,4.1209,4.0914,4.0601,4.0273,3.9984,3.7927,3.6658,3.6658,3.5089,3.4066,3.393,3.3463,3.3269,3.3339,3.3671,3.3876,3.3945,3.4662,3.5008,3.5073,3.5752,3.5703,4.7366,4.9859,5.1808,0.0,5.2794,5.2728,5.1961,5.2236,5.2407,5.1487,5.2102,5.2602,5.1988,5.1839,5.194,5.2259,5.2385,5.2549,5.2917,5.3435,5.3693,5.3522,5.3133,5.3298,5.438,5.3704,5.3895,5.5568,5.5703,5.5703,5.5703,5.5261,5.4858,5.4513,5.4398,5.3781,5.2685,5.2211,5.1178,4.9598,4.9548,4.9615,4.9788,4.9978,5.0057,5.0057,5.0139,5.0139,4.9974,4.9394,4.9124,4.8957,4.8115,4.7708,4.7508,4.7182,4.693,4.6743,4.6743,4.7035,4.7262,4.6871,4.7078,4.7355,4.7086,4.6998,4.6998,4.7042,4.7294,4.7474,4.708,4.6729,4.6368,4.5979,4.5138,4.4444,4.4538,4.4898,4.5005,4.45,4.4323,4.4194,4.3862,4.4252,4.4323,4.3317,4.285,4.2176,4.1091,4.077,4.0608,4.0401,3.9786,3.9198,3.8696,3.6921,3.559,3.5004,3.3929,3.3031,3.2492,3.2218,3.1942,3.1516,3.2376,3.2932,3.3269,3.3463,3.3739,3.3959,3.4581,3.4728,0.0,0.0,5.1504,5.2606,5.3261,5.3478,0.0,5.3277,5.336,5.1927,5.2792,5.3584,5.2838,5.2775,5.298,5.3443,5.3605,5.3696,5.3804,5.4396,5.4642,5.4136,5.3837,5.3976,5.4726,5.4031,5.4126,5.5588,5.5511,5.5374,5.5289,5.4501,5.3942,5.3731,5.3267,5.2826,5.2423,5.1313,5.025,4.9276,4.9321,4.9464,4.9615,4.9589,4.9557,4.953,4.9714,4.9575,4.917,4.8343,4.7918,4.7744,4.6624,4.6165,4.6007,4.5624,4.5276,4.5011,4.5011,4.5179,4.5374,4.4894,4.5123,4.5536,4.5316,4.5233,4.5268,4.551,4.5528,4.5459,4.5216,4.4934,4.4664,4.4444,4.3747,4.3054,4.2965,4.3547,4.3822,4.331,4.326,4.3375,4.35,4.3945,4.4091,4.3183,4.2802,4.2073,4.0888,4.0475,4.0137,3.9854,3.8911,3.8062,3.7361,3.5605,3.4224,3.3546,3.2736,3.1988,3.122,3.122,3.0934,3.0444,3.1246,3.1896,3.2304,3.2427,3.2616,3.2763,3.3703,3.4063,0.0,4.9029,0.0,5.1433,5.274,5.3893,5.3668,5.3681,5.3483,5.2687,5.3117,5.3591,5.3553,5.3632,5.3692,5.3605,5.3543,5.3743,5.4362,5.4535,5.4882,5.5595,5.4959,5.4746,5.557,5.4914,5.478,5.5645,5.4991,5.4528,5.4466,5.3574,5.2682,5.1871,5.2475,5.2069,5.0566,5.0024,4.9683,4.9499,4.9289,4.9276,4.9377,4.8708,4.8351,4.8311,4.8503,4.8151,4.7378,4.6829,4.6607,4.6544,4.6112,4.5718,4.5415,4.5236,4.4724,4.4173,4.4173,4.3834,4.3419,4.3259,4.3178,4.3233,4.3804,4.401,4.4165,4.4992,4.5147,4.5041,4.4988,4.4148,4.331,4.331,4.2061,4.1147,4.2094,4.2061,4.1638,4.1307,4.1737,4.2303,4.2623,4.3198,4.3214,4.1894,4.2057,4.1561,3.9574,3.9741,3.9854,3.9481,3.8047,3.704,3.6582,3.4039,3.2408,3.2382,3.1185,3.0508,3.0432,3.0432,3.0444,3.0368,3.0444,3.0508,3.0508,3.1698,3.2049,3.1663,3.3675,3.4284,0.0,0.0,0.0,5.3005,5.4017,5.4517,5.4013,5.4456,5.4619,5.331,5.4105,5.4835,5.4274,5.4255,5.4477,5.4982,5.5098,5.5168,5.5379,5.5382,5.5268,5.4998,5.4649,5.457,5.4895,5.4664,5.4626,5.4914,5.4664,5.4095,5.323,5.2209,5.1418,5.0874,5.0455,4.9706,4.8604,4.9027,4.8613,4.7411,4.7951,4.7998,4.754,4.741,4.7097,4.6638,4.6454,4.6544,4.6749,4.6127,4.5667,4.5213,4.3958,4.3372,4.323,4.2555,4.2142,4.1881,4.1881,4.1968,4.2102,4.1699,4.2187,4.2892,4.2808,4.3039,4.3439,4.3764,4.3848,4.3731,4.342,4.3031,4.2427,4.1478,4.0538,3.9859,4.0015,4.0085,4.01,3.9975,4.0959,4.1675,4.1273,4.2376,4.2904,4.1427,4.1355,4.0842,3.9092,3.9289,3.9158,3.7872,3.7068,3.608,3.4889,3.308,3.1885,3.1714,3.0648,3.0175,3.0529,3.02,3.0011,3.0011,3.0171,3.0504,3.0906,3.1086,3.1073,3.0958,3.1882,3.2334,4.9501,0.0,0.0,0.0,5.3994,5.4446,5.3926,5.4388,5.4498,5.3126,5.3663,5.4293,5.3961,5.3859,5.421,5.5383,5.548,5.54,5.5305,5.5366,5.5212,5.4687,5.4441,5.4306,5.4303,5.4054,5.3859,5.3771,5.346,5.2875,5.1953,5.0894,5.0075,4.9589,4.8931,4.8194,4.7332,4.8236,4.7876,4.6289,4.665,4.6684,4.6372,4.5927,4.5624,4.5436,4.491,4.5114,4.5693,4.5008,4.4524,4.4034,4.2354,4.1831,4.1919,4.0861,4.0483,4.0449,4.0383,4.0492,4.0542,4.0171,4.0857,4.1716,4.1606,4.2076,4.2619,4.2863,4.2749,4.2509,4.2215,4.1885,4.129,3.9918,3.9242,3.8767,3.8135,3.8605,3.9103,3.9103,3.9906,4.0353,4.0055,4.0771,4.0995,3.9995,3.9787,3.9238,3.7775,3.8076,3.7897,3.6461,3.5972,3.5237,3.3832,3.2423,3.1562,3.1386,3.0557,3.0319,3.0859,3.0357,3.0068,3.0068,2.997,3.0211,3.0899,3.0691,3.0518,3.0411,3.0849,3.1228,0.0,0.0,0.0,5.1046,5.2398,5.3527,5.3357,5.3297,5.2995,5.2137,5.1774,5.1795,5.2489,5.2393,5.2762,5.4447,5.4458,5.4201,5.4067,5.4384,5.4636,5.4705,5.4383,5.409,5.3856,5.3162,5.2589,5.2257,5.1396,5.0808,5.0609,4.9671,4.8776,4.7909,4.8065,4.7733,4.6749,4.7623,4.746,4.6327,4.55,4.5456,4.6075,4.4318,4.397,4.4736,4.3974,4.3893,4.4194,4.3474,4.316,4.2996,4.1483,4.1298,4.1732,4.0384,4.004,4.017,4.0003,3.9454,3.8805,3.8805,3.9161,3.9638,4.0286,4.1015,4.1743,4.2439,4.2116,4.1565,4.1549,4.0722,3.9663,3.8704,3.8309,3.7849,3.6632,3.7546,3.8649,3.8649,3.8324,3.826,3.8855,3.816,3.7544,3.7482,3.742,3.6841,3.5458,3.6045,3.6239,3.5411,3.4915,3.4318,3.3535,3.2166,3.1373,3.1386,3.0884,3.0821,3.1348,3.0871,3.0595,3.062,2.982,2.9742,3.0301,3.0602,3.0495,2.9942,3.0732,3.1099,4.8357,0.0,0.0,0.0,0.0,0.0,4.9336,5.0478,5.1555,5.0828,5.1005,5.1226,5.0818,5.018,4.9834,5.0315,5.1654,5.2622,5.2568,5.2696,5.2653,5.2441,5.3301,5.3534,5.2548,5.2775,5.2333,5.0761,5.0397,4.9724,4.8457,4.8155,4.7752,4.7187,4.749,4.701,4.5528,4.6429,4.6132,4.4674,4.4901,4.4835,4.445,4.3852,4.3826,4.4156,4.303,4.2779,4.3113,4.2811,4.2546,4.2213,4.1016,4.0934,4.1429,4.0323,3.975,3.9556,3.9504,3.9185,3.8805,3.8805,3.96,4.0606,4.0609,4.1536,4.2577,4.2585,4.2116,4.1313,4.0024,3.8928,3.8017,3.7275,3.7027,3.6678,3.5844,3.5755,3.578,3.578,3.6418,3.6693,3.5958,3.6722,3.7201,3.6547,3.669,3.6522,3.5661,3.5551,3.5145,3.4286,3.3661,3.306,3.2593,3.1524,3.0997,3.1361,3.0532,3.0269,3.0809,3.0306,3.0206,3.0608,3.0592,3.0698,3.086,3.0609,3.0236,2.9663,3.0105,3.0369,0.0,0.0,0.0,4.8188,0.0,0.0,4.7393,4.8017,4.8693,4.8293,4.8504,4.8679,4.8681,4.7892,4.7275,4.7284,4.8068,4.9126,5.0378,5.0587,5.0791,5.125,5.2056,5.2326,5.1479,5.1372,5.0656,4.903,4.8771,4.8132,4.6892,4.6367,4.5983,4.5747,4.603,4.569,4.4573,4.5459,4.5332,4.4248,4.4166,4.3994,4.3749,4.318,4.3198,4.3594,4.2479,4.1983,4.1931,4.1383,4.1223,4.118,3.9909,3.9746,4.0175,3.901,3.8807,3.9087,3.8966,3.8954,3.8969,3.8914,3.9647,4.059,4.0636,4.1531,4.2447,4.2553,4.1765,4.0443,3.8545,3.7567,3.7035,3.6596,3.6302,3.5963,3.5482,3.4992,3.4696,3.4574,3.4893,3.5065,3.463,3.4989,3.5256,3.5065,3.4835,3.4522,3.385,3.3751,3.3437,3.2577,3.252,3.2324,3.1946,3.1298,3.1072,3.1373,3.0595,3.0482,3.1248,3.0746,3.0721,3.1273,3.1128,3.1096,3.0931,3.0695,3.0126,2.9426,2.9555,2.9716,0.0,0.0,0.0,4.8173,4.7615,0.0,4.632,4.5605,4.5088,4.5035,4.4941,4.5159,4.6079,4.5443,4.4766,4.4983,4.4292,4.4789,4.7743,4.8243,4.8852,5.0254,5.0623,5.0639,5.0277,4.9354,4.8326,4.7291,4.6775,4.6346,4.5899,4.4731,4.4126,4.4173,4.4344,4.4301,4.3955,4.4674,4.4848,4.4532,4.3529,4.328,4.3693,4.2674,4.2592,4.3196,4.2304,4.1555,4.0833,3.9708,3.966,4.0149,3.8598,3.8335,3.8668,3.7325,3.7691,3.8757,3.8488,3.8816,3.9255,3.8924,3.9341,4.0001,4.0326,4.1048,4.1801,4.2104,4.0895,3.9109,3.708,3.6478,3.6387,3.6194,3.5915,3.5583,3.5317,3.4907,3.4654,3.4534,3.3867,3.3549,3.4231,3.3309,3.2738,3.3309,3.2712,3.1973,3.1368,3.1529,3.147,3.1052,3.1518,3.1788,3.1424,3.1336,3.1336,3.1386,3.0896,3.1072,3.2077,3.1599,3.1587,3.2202,3.1427,3.0918,3.0682,3.0655,3.0126,2.9217,2.9077,2.8973,4.6623,4.6623,4.5815,4.524,4.482,0.0,4.2167,4.2458,4.2945,4.219,4.2396,4.2709,4.2745,4.2252,4.2007,4.2639,4.2417,4.2992,4.5527,4.5901,4.6217,4.6893,4.8386,4.8789,4.7448,4.761,4.7348,4.6119,4.5192,4.5036,4.5686,4.5114,4.469,4.4583,4.4741,4.4472,4.3791,4.3906,4.4066,4.4269,4.3942,4.3838,4.3923,4.361,4.3465,4.3373,4.2534,4.1729,4.0954,3.9445,3.9086,3.9426,3.8465,3.8402,3.8816,3.8163,3.8306,3.8774,3.8606,3.8937,3.9279,3.803,3.886,4.0117,3.9024,3.9941,4.1112,4.0024,3.8908,3.7781,3.6277,3.5644,3.5281,3.469,3.4929,3.5078,3.4445,3.4011,3.3747,3.372,3.3593,3.3451,3.3336,3.3331,3.3213,3.2657,3.2671,3.2462,3.1745,3.1213,3.0964,3.1279,3.0658,3.057,3.1323,3.0997,3.0947,3.1361,3.0896,3.0896,3.1524,3.1047,3.1223,3.219,3.0915,3.0301,3.0217,2.9707,2.964,2.9985,2.8826,2.8383,4.5879,4.6191,4.5764,4.4724,4.3793,0.0,0.0,4.0948,4.0654,4.1002,4.123,4.1403,4.1835,4.1606,4.1484,4.2015,4.157,4.1797,4.3885,4.4401,4.4992,4.6094,4.7222,4.7658,4.7119,4.6845,4.6283,4.5157,4.4234,4.3898,4.4395,4.3713,4.3281,4.3192,4.3407,4.3506,4.3542,4.3627,4.3823,4.4192,4.3999,4.3892,4.3795,4.3646,4.3477,4.3284,4.2077,4.1379,4.0936,3.8906,3.8186,3.8223,3.7456,3.7265,3.7404,3.7086,3.7322,3.7696,3.755,3.7887,3.8267,3.7456,3.7903,3.8702,3.8302,3.9042,3.9692,3.8397,3.7547,3.6775,3.5421,3.467,3.4211,3.3772,3.3943,3.4141,3.3965,3.3962,3.4031,3.4153,3.4153,3.3962,3.3465,3.3403,3.3271,3.3028,3.2586,3.2097,3.1435,3.0658,3.0136,2.9973,2.9684,2.9572,2.9687,3.0077,3.0515,3.0857,3.0294,3.0542,3.194,3.0523,3.0146,3.118,3.0245,2.9715,2.9715,2.938,2.903,2.8674,2.7928,2.7649,4.5399,4.6029,4.6156,4.4896,4.3568,4.2509,0.0,0.0,0.0,4.082,4.0902,4.1035,4.1901,4.1755,4.162,4.1977,4.1261,4.1233,4.284,4.335,4.4112,4.5745,4.6099,4.6453,4.6948,4.6157,4.535,4.4693,4.3611,4.3028,4.3078,4.2195,4.1666,4.1604,4.1941,4.2458,4.3177,4.3408,4.3712,4.4102,4.3886,4.3744,4.3579,4.3442,4.3321,4.3123,4.1768,4.1123,4.0918,3.8654,3.7539,3.7193,3.6492,3.6079,3.5888,3.5817,3.6113,3.6522,3.6396,3.6785,3.7253,3.6819,3.6818,3.6957,3.7391,3.8038,3.8302,3.6914,3.6349,3.5836,3.4477,3.3673,3.3171,3.3044,3.3044,3.3185,3.3589,3.4031,3.4399,3.4802,3.4817,3.4616,3.4085,3.3705,3.3503,3.3507,3.2613,3.1645,3.111,3.0343,2.9611,2.8779,2.9088,2.9054,2.8337,2.9308,3.0132,3.0493,2.9758,3.0269,3.234,3.0384,2.9607,3.0158,2.9564,2.9124,2.9035,2.8809,2.8241,2.7355,2.7273,2.719,4.5509,4.6116,4.5594,4.444,4.3697,4.3051,4.2081,0.0,4.1326,4.1482,0.0,4.1662,4.1949,0.0,0.0,4.1785,4.1421,4.1591,4.2911,4.2819,4.3055,4.4044,4.4134,4.4245,4.4738,4.4685,4.4721,4.5085,4.3288,4.2448,4.2976,4.212,4.1525,4.1348,4.1888,4.2297,4.2498,4.2938,4.3358,4.3744,4.3712,4.3679,4.3579,4.3646,4.3495,4.316,4.2408,4.169,4.0972,3.9157,3.7889,3.7082,3.6451,3.5993,3.5667,3.5622,3.5958,3.641,3.6252,3.667,3.7053,3.5771,3.5671,3.6066,3.5633,3.6554,3.7353,3.5502,3.4878,3.454,3.3606,3.2818,3.2187,3.2028,3.2087,3.2448,3.3143,3.3575,3.4085,3.4787,3.4868,3.4802,3.4616,3.454,3.4268,3.3589,3.3016,3.2327,3.1516,3.0797,3.0062,2.9341,2.9312,2.9297,2.9126,2.9304,2.9832,3.0797,2.9904,3.0025,3.1768,3.1504,3.0974,3.026,2.933,2.8634,2.8173,2.6886,2.703,2.8288,2.7967,2.7631,4.5005,4.4987,4.4266,4.3831,4.3187,4.2625,4.2501,4.1849,4.1559,4.2629,0.0,0.0,0.0,0.0,0.0,0.0,4.2714,4.2373,4.3036,4.213,4.2007,4.3389,4.3278,4.3239,4.3597,4.4262,4.4504,4.4078,4.3085,4.2398,4.209,4.1405,4.1128,4.1393,4.1569,4.2032,4.2786,4.3031,4.3251,4.3391,4.3391,4.3375,4.3322,4.3358,4.3031,4.2414,4.1734,4.0844,3.9766,3.8364,3.7323,3.651,3.6028,3.5711,3.547,3.5458,3.5475,3.5538,3.5554,3.5658,3.5712,3.5087,3.5094,3.5259,3.4852,3.5012,3.5237,3.4264,3.3579,3.3021,3.2674,3.2042,3.1408,3.1334,3.1455,3.1723,3.2146,3.2932,3.3713,3.4153,3.4572,3.4868,3.4817,3.4817,3.4735,3.4356,3.3381,3.2547,3.2245,3.1158,2.996,2.8755,2.8664,2.8295,2.7401,2.8091,2.8774,2.9378,2.999,3.0129,2.9644,3.0415,3.0204,2.8991,2.8528,2.806,2.7607,2.722,2.7391,2.7828,2.7097,2.6662,4.4851,4.4611,4.3917,4.3382,4.2963,4.269,4.2904,4.2397,4.2304,4.3783,4.3345,0.0,0.0,0.0,4.3526,4.3929,0.0,4.2348,4.2534,4.1321,4.0973,4.26,4.2529,4.2505,4.29,4.4072,4.4417,4.323,4.2963,4.2449,4.1393,4.0893,4.0849,4.1303,4.1455,4.1948,4.288,4.3068,4.3178,4.3178,4.3178,4.316,4.3012,4.2831,4.2395,4.1796,4.0742,3.9804,3.8906,3.7605,3.6689,3.6088,3.5677,3.5396,3.5241,3.5228,3.5105,3.4851,3.4947,3.4851,3.4594,3.4382,3.4574,3.4826,3.3857,3.3701,3.3739,3.3086,3.2409,3.1836,3.185,3.1334,3.0823,3.0761,3.0885,3.1084,3.1442,3.229,3.3143,3.352,3.4221,3.4706,3.4706,3.4854,3.4935,3.4721,3.3604,3.2761,3.2547,3.1233,2.9793,2.8505,2.8267,2.7649,2.6396,2.7209,2.7877,2.8159,2.996,3.0115,2.8127,2.9307,2.9474,2.8175,2.8362,2.8186,2.7726,2.7987,2.8051,2.7883,2.6898,2.6441,4.5384,4.5649,4.5095,4.3423,4.3528,4.3831,4.3068,4.3513,4.4251,4.4841,4.4516,4.4245,4.4614,4.3611,4.2575,4.2216,4.1448,0.0,0.0,4.0293,4.0126,4.1255,4.1657,4.2046,4.238,4.3859,4.4316,4.3113,4.3089,4.2513,4.1271,4.0942,4.0802,4.0802,4.164,4.2169,4.2436,4.288,4.3104,4.3104,4.3178,4.3068,4.2804,4.2066,4.1723,4.1596,3.9641,3.8867,3.8887,3.7158,3.6256,3.5942,3.547,3.5152,3.4947,3.5041,3.4947,3.4707,3.4691,3.4594,3.4399,3.3491,3.4162,3.4716,3.2256,3.2674,3.3625,3.2041,3.1478,3.1272,3.1061,3.0748,3.0368,3.0152,3.0292,3.0659,3.1368,3.1723,3.2087,3.2903,3.3713,3.4312,3.4312,3.4839,3.4935,3.4221,3.3575,3.2946,3.2218,3.0921,2.9793,2.916,2.8554,2.7938,2.7231,2.7161,2.7461,2.7954,2.9378,2.9523,2.8058,2.8954,2.929,2.8724,2.9198,2.9198,2.8631,2.8631,2.8964,2.9401,2.8357,2.7673,4.4407,4.3785,4.2944,4.3115,4.2986,4.2914,4.3056,4.3621,4.4171,4.4381,4.4465,4.4436,4.4541,4.3881,4.3289,4.2981,4.2129,4.1252,0.0,3.918,3.825,3.806,3.9508,4.067,4.1016,4.2254,4.2682,4.1873,4.2072,4.1852,4.0929,4.0831,4.0972,4.1383,4.1666,4.2068,4.2552,4.2783,4.286,4.2765,4.288,4.2842,4.2631,4.1841,4.1079,4.0235,3.9091,3.8001,3.705,3.6402,3.5681,3.4908,3.456,3.435,3.43,3.4804,3.4804,3.4546,3.4448,3.4349,3.4134,3.3423,3.338,3.3401,3.2163,3.2033,3.2263,3.1703,3.1262,3.0911,3.0849,3.0609,3.0368,3.0292,3.0368,3.052,3.0898,3.1381,3.1942,3.2304,3.3003,3.3561,3.3561,3.3713,3.3934,3.4192,3.3199,3.2362,3.2146,3.0833,2.9793,2.916,2.8554,2.7938,2.7231,2.7231,2.7741,2.9092,2.9133,2.9449,3.0114,3.0655,3.0746,3.017,3.1032,3.1285,3.0793,3.0032,3.0133,3.102,2.9189,2.8696,4.4139,4.3434,4.2693,4.3013,4.2828,4.2539,4.2618,4.3005,4.3469,4.3762,4.3504,4.3362,4.4042,4.3053,4.2138,4.2192,4.1102,3.9916,0.0,3.7358,3.6296,3.576,3.7709,3.9298,3.9772,4.0905,4.1459,4.0918,4.1481,4.146,4.0554,4.0741,4.1128,4.1666,4.1796,4.2026,4.249,4.257,4.253,4.2292,4.2432,4.2333,4.199,4.1007,4.0005,3.9028,3.7877,3.6696,3.5559,3.538,3.4733,3.3836,3.3668,3.3531,3.3475,3.4202,3.4415,3.4399,3.4151,3.3933,3.3594,3.2864,3.2399,3.2078,3.1368,3.1138,3.1167,3.1343,3.0817,3.0314,3.0573,3.0279,2.9819,2.9819,2.9896,3.005,3.0368,3.0784,3.1281,3.1663,3.2304,3.2791,3.2791,3.2791,3.3003,3.3478,3.2706,3.2015,3.1736,3.0709,2.9793,2.9394,2.8542,2.7603,2.6809,2.7054,2.7775,2.8996,2.8981,2.9385,3.0445,3.0718,3.0902,3.1158,3.1845,3.2274,3.2336,3.1668,3.1691,3.2324,3.0552,3.0404]},{"header":{"parameterUnit":"m.s-1","parameterCategory":1,"la1":30.6,"la2":29.2853,"lo1":-89.7004,"lo2":-87.6739,"dy":0.0162,"dx":0.0183,"nx":112,"ny":82,"refTime":"2023-03-27T18:00:00:Z","depth":0,"parameterNumber":3,"parameterNumberName":"V-component_of_WINDS"},"data":[0.0,0.0,0.0,0.0,0.0,0.0,0.0,0.0,0.0,0.0,0.0,0.0,0.0,0.0,0.0,0.0,0.0,0.0,0.0,0.0,0.0,0.0,0.0,0.0,0.0,0.0,0.0,0.0,0.0,0.0,0.0,0.0,0.0,0.0,0.0,0.0,0.0,0.0,0.0,0.0,0.0,0.0,0.0,0.0,0.0,0.0,0.0,0.0,0.0,0.0,0.0,0.0,0.0,0.0,0.0,0.0,0.0,0.0,0.0,0.0,0.0,0.0,0.0,0.0,0.0,0.0,0.0,0.0,0.0,0.0,0.0,0.0,0.0,0.0,0.0,0.0,0.0,0.0,0.0,0.0,0.0,0.0,0.0,0.0,0.0,0.0,0.0,0.0,0.0,0.0,-0.453,-0.1721,-0.5748,-1.0438,-1.513,-1.7366,-1.7228,-1.4118,0.0,0.0,0.0,0.0,0.0,0.0,0.0,0.0,0.0,0.0,0.0,0.0,0.0,0.0,0.0,0.0,0.0,0.0,0.0,0.0,0.0,0.0,0.0,0.0,0.0,0.0,0.0,0.0,0.0,0.0,0.0,0.0,0.0,0.0,0.0,0.0,0.0,0.0,0.0,0.0,0.0,0.0,0.0,0.0,0.0,0.0,0.0,0.0,0.0,0.0,0.0,0.0,0.0,0.0,0.0,0.0,0.0,0.0,0.0,0.0,0.0,0.0,0.0,0.0,0.0,0.0,0.0,0.0,0.0,0.0,0.0,0.0,0.0,0.0,0.0,0.0,0.0,0.0,0.0,0.0,0.0,0.0,0.0,0.0,0.0,0.0,0.0,0.0,0.0,0.0,0.0,0.0,0.0,0.0,0.0,0.0,0.0,0.0,0.0,0.0,0.0,0.0,0.0,0.0,-0.406,-0.1671,-0.5754,-1.0153,-1.4066,-1.4648,-1.5436,-1.6901,0.0,0.0,0.0,0.0,0.0,0.0,0.0,0.0,0.0,0.0,0.0,0.0,0.0,0.0,0.0,0.0,0.0,0.0,0.0,0.0,0.0,0.0,0.0,0.0,0.0,0.0,0.0,0.0,0.0,0.0,0.0,0.0,0.0,0.0,0.0,0.0,0.0,0.0,0.0,0.0,0.0,0.0,0.0,0.0,0.0,0.0,0.0,0.0,0.0,0.0,0.0,0.0,0.0,0.0,0.0,0.0,0.0,0.0,0.0,0.0,0.0,0.0,0.0,0.0,0.0,0.0,0.0,0.0,0.0,0.0,0.0,0.0,0.0,0.0,0.0,0.0,0.0,0.0,0.0,0.0,0.0,0.0,0.0,0.0,0.0,0.0,0.0,0.0,0.0,0.0,0.0,0.0,0.0,0.0,0.0,0.0,0.0,0.0,0.0,0.0,0.0,0.0,0.0,-0.4043,-0.3184,-0.156,-0.5206,-0.9292,-1.3049,-1.4372,-1.6435,-1.9636,-1.6929,0.0,0.0,0.0,0.0,0.0,0.0,0.0,0.0,0.0,0.0,0.0,0.0,0.0,0.0,0.0,0.0,0.0,0.0,0.0,0.0,0.0,0.0,0.0,0.0,0.0,0.0,0.0,0.0,0.0,0.0,0.0,0.0,0.0,0.0,0.0,0.0,0.0,0.0,0.0,0.0,0.0,0.0,0.0,0.0,0.0,0.0,0.0,0.0,0.0,0.0,0.0,0.0,0.0,0.0,0.0,0.0,0.0,0.0,0.0,0.0,0.0,0.0,0.0,0.0,0.0,0.0,0.0,0.0,0.0,0.0,0.0,0.0,0.0,0.0,0.0,0.0,0.0,0.0,0.0,0.0,0.0,0.0,0.0,0.0,0.0,0.0,0.0,0.0,0.0,0.0,0.0,0.0,0.0,0.0,0.0,0.0,0.0,0.0,0.0,0.0,0.0,0.0,-0.3254,-0.2704,-0.2891,-0.6433,-0.9938,-1.2859,-1.4527,-1.6923,-2.0337,-1.8015,0.0,0.0,0.0,0.0,0.0,0.0,0.0,0.0,0.0,0.0,0.0,0.0,0.0,0.0,0.0,0.0,0.0,0.0,0.0,0.0,0.0,0.0,0.0,0.0,0.0,0.0,0.0,0.0,0.0,0.0,0.0,0.0,0.0,0.0,0.0,0.0,0.0,0.0,0.0,0.0,0.0,0.0,0.0,0.0,0.0,0.0,0.0,0.0,0.0,0.0,0.0,0.0,0.0,0.0,0.0,0.0,0.0,0.0,0.0,0.0,0.0,0.0,0.0,0.0,0.0,0.0,0.0,0.0,0.0,0.0,0.0,0.0,0.0,0.0,0.0,0.0,0.0,0.0,0.0,0.0,0.0,0.0,0.0,0.0,0.0,0.0,0.0,0.0,0.0,0.0,0.0,0.0,0.0,0.0,0.0,0.0,0.0,0.0,0.0,0.0,0.0,0.0,-0.4598,-0.2964,-0.7094,-1.1289,-1.3896,-1.4139,-1.4254,-1.5068,-1.6911,-1.7824,0.0,0.0,0.0,0.0,0.0,0.0,0.0,0.0,0.0,0.0,0.0,0.0,0.0,0.0,0.0,0.0,0.0,0.0,0.0,0.0,0.0,0.0,0.0,0.0,0.0,0.0,0.0,0.0,0.0,0.0,0.0,0.0,0.0,0.0,0.0,0.0,0.0,0.0,0.0,0.0,0.0,0.0,0.0,0.0,0.0,0.0,0.0,0.0,0.0,0.0,0.0,0.0,0.0,0.0,0.0,0.0,0.0,0.0,0.0,0.0,0.0,0.0,0.0,0.0,0.0,0.0,0.0,0.0,0.0,0.0,0.0,0.0,0.0,0.0,0.0,0.0,0.0,0.0,0.0,0.0,0.0,0.0,0.0,0.0,0.0,0.0,0.0,0.0,0.0,0.0,0.0,0.0,0.0,0.0,0.0,0.0,0.0,0.0,0.0,0.0,0.0,0.0,-0.5915,-0.5339,-0.5568,-0.8467,-1.1541,-1.4514,-1.4735,-1.4734,-1.463,0.0,0.0,0.0,0.0,0.0,0.0,0.0,0.0,0.0,0.0,0.0,0.0,0.0,0.0,0.0,0.0,0.0,0.0,0.0,0.0,0.0,0.0,0.0,0.0,0.0,0.0,0.0,0.0,0.0,0.0,0.0,0.0,0.0,0.0,0.0,0.0,0.0,0.0,0.0,0.0,0.0,0.0,0.0,0.0,0.0,0.0,0.0,0.0,0.0,0.0,0.0,0.0,0.0,0.0,0.0,0.0,0.0,0.0,0.0,0.0,0.0,0.0,0.0,0.0,0.0,0.0,0.0,0.0,0.0,0.0,0.0,0.0,0.0,0.0,0.0,0.0,0.0,0.0,0.0,0.0,0.0,0.0,0.0,0.0,0.0,0.0,0.0,0.0,0.0,0.0,0.0,0.0,0.0,0.0,0.0,0.0,0.0,0.0,0.0,0.0,0.0,0.0,-0.4483,-0.5882,-0.6489,-0.507,-0.7041,-0.9858,-1.3489,-1.4111,-1.4298,-1.4326,0.0,0.0,0.0,0.0,0.0,0.0,0.0,0.0,0.0,0.0,0.0,0.0,0.0,0.0,0.0,0.0,0.0,0.0,0.0,0.0,0.0,0.0,0.0,0.0,0.0,0.0,0.0,0.0,0.0,0.0,0.0,0.0,0.0,0.0,0.0,0.0,0.0,0.0,0.0,0.0,0.0,0.0,0.0,0.0,0.0,0.0,0.0,0.0,0.0,0.0,0.0,0.0,0.0,0.0,0.0,0.0,0.0,0.0,0.0,0.0,0.0,0.0,0.0,0.0,0.0,0.0,0.0,0.0,0.0,0.0,0.0,0.0,0.0,0.0,0.0,0.0,0.0,0.0,0.0,0.0,0.0,0.0,0.0,0.0,0.0,0.0,0.0,0.0,0.0,0.0,0.0,0.0,0.0,0.0,0.0,0.0,0.0,0.0,0.0,0.0,0.0,0.0,-0.2667,-0.4324,-0.5885,-0.6374,-0.8162,-0.9814,-1.0934,-1.196,-1.3667,0.0,0.0,0.0,0.0,0.0,0.0,0.0,0.0,0.0,0.0,0.0,0.0,0.0,0.0,0.0,0.0,0.0,0.0,0.0,0.0,0.0,0.0,0.0,0.0,0.0,0.0,0.0,0.0,0.0,0.0,0.0,0.0,0.0,0.0,0.0,0.0,0.0,0.0,0.0,0.0,0.0,0.0,0.0,0.0,0.0,0.0,0.0,0.0,0.0,0.0,0.0,0.0,0.0,0.0,0.0,0.0,0.0,0.0,0.0,0.0,0.0,0.0,0.0,0.0,0.0,0.0,0.0,0.0,0.0,0.0,0.0,0.0,0.0,0.0,0.0,0.0,0.0,0.0,0.0,0.0,0.0,0.0,0.0,0.0,0.0,0.0,0.0,0.0,0.0,0.0,0.0,0.0,0.0,0.0,0.0,0.0,0.0,0.0,0.0,0.0,0.0,0.0,0.0,-0.3108,-0.3568,-0.4522,-0.6043,-0.7098,-0.8328,-0.971,-1.0508,-1.2104,-1.5068,0.0,0.0,0.0,0.0,0.0,0.0,0.0,0.0,0.0,0.0,0.0,0.0,0.0,0.0,0.0,0.0,0.0,0.0,0.0,0.0,0.0,0.0,0.0,0.0,0.0,0.0,0.0,0.0,0.0,0.0,0.0,0.0,0.0,0.0,0.0,0.0,0.0,0.0,0.0,0.0,0.0,0.0,0.0,0.0,0.0,0.0,0.0,0.0,0.0,0.0,0.0,0.0,0.0,0.0,0.0,0.0,0.0,0.0,0.0,0.0,0.0,0.0,0.0,0.0,0.0,0.0,0.0,0.0,0.0,0.0,0.0,0.0,0.0,0.0,0.0,0.0,0.0,0.0,0.0,0.0,0.0,0.0,0.0,0.0,0.0,0.0,0.0,0.0,0.0,0.0,0.0,0.0,0.0,0.0,0.0,0.0,0.0,0.0,0.0,0.0,0.0,0.0,-0.3166,-0.3234,-0.4092,-0.6283,-0.6873,-0.7704,-0.924,-0.9737,-1.1106,-1.3701,0.0,0.0,0.0,0.0,0.0,0.0,0.0,0.0,0.0,0.0,0.0,0.0,0.0,0.0,0.0,0.0,0.0,0.0,0.0,0.0,0.0,0.0,0.0,0.0,0.0,0.0,0.0,0.0,0.0,0.0,0.0,0.0,0.0,0.0,0.0,0.0,0.0,0.0,0.0,0.0,0.0,0.0,0.0,0.0,0.0,0.0,0.0,0.0,0.0,0.0,0.0,0.0,0.0,0.0,0.0,0.0,0.0,0.0,0.0,0.0,0.0,0.0,0.0,0.0,0.0,0.0,0.0,0.0,0.0,0.0,0.0,0.0,0.0,0.0,0.0,0.0,0.0,0.0,0.0,0.0,0.0,0.0,0.0,0.0,0.0,0.0,0.0,0.0,0.0,0.0,0.0,0.0,0.0,0.0,0.0,0.0,0.0,0.0,0.0,0.0,0.0,0.0,-0.2922,-0.3168,-0.4293,-0.6884,-0.7186,-0.7727,-0.9168,-0.946,-1.0444,-1.2431,0.0,0.0,0.0,0.0,0.0,0.0,0.0,0.0,0.0,0.0,0.0,0.0,0.0,0.0,0.0,0.0,0.0,0.0,0.0,0.0,0.0,0.0,0.0,0.0,0.0,0.0,0.0,0.0,0.0,0.0,0.0,0.0,0.0,0.0,0.0,0.0,0.0,0.0,0.0,0.0,0.0,0.0,0.0,0.0,0.0,0.0,0.0,0.0,0.0,0.0,0.0,0.0,0.0,0.0,0.0,0.0,0.0,0.0,0.0,0.0,0.4632,0.4225,0.0,0.0,0.0,0.0,0.0,0.0,0.0,0.0,0.0,0.0,0.0,0.0,0.0,0.0,0.0,0.0,0.0,0.0,0.0,0.0,0.0,0.0,0.0,0.0,0.0,0.0,0.0,0.0,0.0,0.0,0.0,0.0,0.0,0.0,0.0,0.0,0.0,0.0,0.0,0.0,-0.1436,-0.2646,-0.4602,-0.6967,-0.7192,-0.7489,-0.8283,-0.8504,-0.9659,-1.2241,-1.2635,0.0,0.0,0.0,0.0,0.0,0.0,0.0,0.0,0.0,0.0,0.0,0.0,0.0,0.0,0.0,0.0,0.0,0.0,0.0,0.0,0.0,0.0,0.0,0.0,0.0,0.0,0.0,0.0,0.0,0.0,0.0,0.0,0.0,0.0,0.0,0.0,0.0,0.0,0.0,0.0,0.0,0.0,0.0,0.0,0.0,0.0,0.0,0.0,0.0,0.0,0.0,0.0,0.0,0.0,0.0,0.0,0.0,0.0,0.0,0.5751,0.4912,0.0,0.0,0.0,0.0,0.0,0.0,0.0,0.0,0.0,0.0,0.0,0.0,0.0,0.0,0.0,0.0,0.0,0.0,0.0,0.0,0.0,0.0,0.0,0.0,0.0,0.0,0.0,0.0,0.0,0.0,0.0,0.0,0.0,0.0,0.0,0.0,0.0,0.0,0.0,0.0,-0.3448,-0.3472,-0.4442,-0.6833,-0.7147,-0.7412,-0.8041,-0.82,-0.8933,-1.035,-1.1915,0.0,0.0,0.0,0.0,0.0,0.0,0.0,0.0,0.0,0.0,0.0,0.0,0.0,0.0,0.0,0.0,0.0,0.0,0.0,0.0,0.0,0.0,0.0,0.0,0.0,0.0,0.0,0.0,0.0,0.0,0.0,0.0,0.0,0.0,0.0,0.0,0.0,0.0,0.0,0.0,0.0,0.0,0.0,0.0,0.0,0.0,0.0,0.0,0.0,0.0,0.0,0.0,0.0,0.9422,0.9594,0.9653,0.9705,0.9678,0.9578,0.7666,0.641,0.5589,0.5242,0.0,0.0,0.0,0.0,0.0,0.0,0.0,0.0,0.0,0.0,0.0,0.0,0.0,0.0,0.0,0.0,0.0,0.0,0.0,0.0,0.0,0.0,-0.8717,-0.7189,-0.915,-1.1031,-0.975,0.0,0.0,0.0,0.0,0.0,0.0,0.0,0.0,0.0,0.0,0.0,-0.6108,-0.3988,-0.3679,-0.6722,-0.7247,-0.7595,-0.8258,-0.8383,-0.844,-0.8589,-1.1394,-1.2796,0.0,0.0,0.0,0.0,0.0,0.0,0.0,0.0,0.0,0.0,0.0,0.0,0.0,0.0,0.0,0.0,0.0,0.0,0.0,0.0,0.0,0.0,0.0,0.0,0.0,0.0,0.0,0.0,0.0,0.0,0.0,0.0,0.5189,0.4355,0.0,0.0,0.0,0.0,0.0,0.0,0.0,0.0,0.0,0.0,0.0,0.0,0.0,1.0455,1.1498,1.2092,1.2489,1.255,1.2283,1.2517,1.3154,1.2247,1.1883,1.1785,1.0867,0.0,0.5998,0.5006,0.0,0.0,0.0,0.0,0.0,0.0,0.0,0.0,0.0,0.0,0.0,0.0,0.0,0.0,0.0,0.0,0.0,0.0,0.0,0.0,0.0,0.0,-0.922,-0.9274,-1.1108,-1.2751,-1.2081,-1.1024,-1.0117,-0.9899,-0.9021,-0.84,0.0,0.0,0.0,0.0,0.0,0.0,-0.5512,-0.2183,-0.1671,-0.6642,-0.7569,-0.8148,-0.87,-0.884,-0.8954,-0.9039,-1.0448,-1.1626,-1.2593,-1.46,0.0,0.0,0.0,0.0,0.0,0.0,0.0,0.0,0.0,0.0,0.0,0.0,0.0,0.0,0.0,0.0,0.0,0.0,0.0,0.0,0.0,0.0,0.0,0.0,0.0,0.0,0.0,0.0,0.0,0.5286,0.4983,0.4651,0.4227,0.4147,0.0,0.0,0.0,0.0,0.0,0.0,0.0,0.0,0.0,1.3778,1.3044,1.3162,1.4495,1.4686,1.4764,1.4631,1.4698,1.4509,1.4274,1.3648,1.3128,1.2439,1.1222,0.9326,0.6834,0.5841,0.501,0.435,0.0,0.0,0.0,0.0,0.3748,0.3183,0.283,0.1632,0.0095,-0.0775,0.0,0.0,0.0,0.0,0.0,0.0,0.0,-0.4053,-0.4925,-0.7133,-0.9009,-0.893,-1.0973,-1.2819,-1.2457,-1.2091,-1.1718,-1.1533,-1.0891,-1.026,-1.0232,-0.9164,0.0,0.0,0.0,-0.4726,-0.4853,-0.2083,-0.1873,-0.6237,-0.6954,-0.7611,-0.8796,-0.8918,-0.8997,-0.9108,-1.0297,-1.1506,-1.2623,-1.4589,-1.6552,0.0,0.0,0.0,0.0,0.0,0.0,0.0,0.0,0.0,0.0,0.0,0.0,0.0,0.0,0.0,0.0,0.0,0.0,0.0,0.0,0.0,0.0,0.0,0.0,0.0,0.0,0.0,0.0,0.5058,0.51,0.4493,0.4598,0.4608,0.0,0.0,0.0,0.0,0.0,0.0,1.1967,1.1638,1.2695,1.5263,1.5088,1.5555,1.6953,1.6947,1.6732,1.6606,1.6443,1.6009,1.5356,1.4588,1.3796,1.2897,1.1246,0.957,0.7858,0.6705,0.5366,0.4174,0.3476,0.2809,0.2339,0.3077,0.2748,0.17,0.1177,-0.0289,-0.19,-0.2105,-0.1711,-0.1036,-0.0663,0.0,0.0,0.0,0.0,-0.49,-0.6315,-0.7569,-0.8496,-0.8353,-1.0267,-1.2133,-1.1994,-1.2288,-1.2674,-1.3141,-1.2406,-1.1592,-1.1248,-0.9941,0.0,-0.8963,-0.6316,-0.4157,-0.3707,-0.2087,-0.2182,-0.5432,-0.6242,-0.7096,-0.8459,-0.8941,-0.916,-0.9173,-1.0459,-1.1749,-1.2751,-1.4631,-1.6469,-1.8338,0.0,0.0,0.0,0.0,0.0,0.0,0.0,0.0,0.0,0.0,0.0,0.0,0.0,0.0,0.0,0.0,0.0,0.0,0.0,0.0,0.0,0.0,0.0,0.0,0.0,0.0,0.0,0.0,0.0,0.3284,0.5434,0.0,0.0,0.0,0.0,0.8323,0.9305,1.1031,1.3424,1.4035,1.5352,1.7577,1.7077,1.7436,1.8861,1.8575,1.8567,1.8838,1.7305,1.6766,1.7138,1.4867,1.3925,1.3727,1.1838,1.0285,0.8751,0.7104,0.4629,0.1802,0.0626,0.0829,0.1757,0.2236,0.1896,0.0979,-0.0288,-0.105,-0.1338,0.0194,0.2467,0.3677,-0.1249,-0.234,0.0,0.0,-0.5567,-0.6111,-0.7372,-0.774,-0.7749,-0.8315,-0.9497,-1.0583,-1.0872,-1.1019,-1.1865,-1.4572,-1.3213,-1.1679,-1.1492,0.0,-0.8895,-0.8373,-0.5582,-0.3097,-0.1872,-0.1597,-0.2219,-0.3729,-0.5739,-0.7039,-0.7313,-0.8711,-0.9535,-0.9352,-1.0758,-1.1979,-1.3105,-1.4455,-1.643,-1.9025,-1.8343,0.0,0.0,0.0,0.0,0.0,0.0,0.0,0.0,0.0,0.0,0.0,0.0,0.0,0.0,0.0,0.0,0.0,0.0,0.0,0.0,0.0,0.0,0.0,0.0,0.0,0.0,0.0,0.0,0.7217,0.7103,0.0,0.6279,0.6779,0.8082,1.0339,1.1472,1.3336,1.649,1.7401,1.8376,1.961,1.9399,1.9308,1.9421,1.853,1.813,1.8025,1.7429,1.698,1.6569,1.5297,1.4045,1.2865,1.1114,0.9426,0.7805,0.7181,0.5732,0.3756,0.2766,0.1221,-0.0306,0.1112,0.0903,-0.0199,-0.0991,-0.1764,-0.232,-0.2655,-0.2269,-0.2175,-0.461,-0.5218,-0.5422,-0.6519,-0.7006,-0.7211,-0.7553,-0.7803,-0.7939,-0.8333,-0.8726,-0.9414,-1.0592,-1.0151,-1.0199,-1.213,-1.1435,-1.0674,-1.0685,-0.9523,-0.8497,-0.8434,-0.6049,-0.3941,-0.3139,-0.299,-0.3226,-0.3827,-0.5229,-0.6528,-0.7624,-0.8825,-0.96,-0.9535,-1.0303,-1.1549,-1.3357,-1.4221,-1.5685,-1.7837,-1.7789,-1.8271,0.0,0.0,0.0,0.0,0.0,0.0,0.0,0.0,0.0,0.0,0.0,0.0,0.0,0.0,0.0,0.0,0.0,0.0,0.0,0.0,0.0,0.0,0.0,0.0,0.0,0.9483,0.993,0.901,0.8304,0.7632,0.6807,0.6953,0.8441,1.1388,1.2675,1.4659,1.7778,1.9006,1.9652,1.9768,1.9573,1.9325,1.8907,1.8216,1.782,1.7612,1.7617,1.7155,1.6348,1.5048,1.3732,1.2376,1.004,0.8315,0.7138,0.6759,0.559,0.4101,0.3039,0.0907,-0.1414,-0.0,-0.0202,-0.131,-0.2318,-0.2886,-0.3315,-0.4845,-0.5351,-0.5498,-0.6059,-0.6734,-0.721,-0.7155,-0.7452,-0.7654,-0.7704,-0.7842,-0.8038,-0.8333,-0.8531,-0.9011,-1.0214,-0.9522,-0.9081,-1.0035,-1.0052,-0.9757,-0.9579,-0.8879,-0.8547,-0.9245,-0.6883,-0.5042,-0.5203,-0.4261,-0.3527,-0.3224,-0.4323,-0.5625,-0.7024,-0.9156,-1.0201,-0.9636,-1.092,-1.22,-1.3494,-1.4243,-1.5712,-1.7955,-1.8115,-1.8278,-1.8544,0.0,0.0,0.0,0.0,0.0,0.0,0.0,0.0,0.0,0.0,0.0,0.0,0.0,0.0,0.0,0.0,0.0,0.0,0.0,0.0,0.0,0.0,0.0,1.0711,1.124,1.1038,0.8555,0.8841,0.8475,0.626,0.6589,0.8182,1.1052,1.2636,1.4669,1.7035,1.873,1.9186,1.8084,1.7788,1.7633,1.7533,1.7638,1.7747,1.7953,1.7754,1.7278,1.6606,1.4295,1.3062,1.2446,0.881,0.7235,0.7039,0.5739,0.4133,0.2321,0.1313,-0.0101,-0.1613,-0.1008,-0.1411,-0.2319,-0.413,-0.438,-0.4215,-0.5771,-0.5893,-0.5524,-0.5511,-0.6467,-0.7557,-0.6713,-0.6943,-0.7563,-0.7902,-0.8038,-0.8137,-0.8333,-0.8832,-0.9284,-0.969,-0.9172,-0.8641,-0.873,-0.9111,-0.9119,-0.831,-0.8306,-0.8936,-1.0561,-0.7995,0.0,-0.7798,-0.5246,-0.2925,-0.1924,-0.3233,-0.464,-0.5741,-0.9538,-1.1286,-0.976,-1.2344,-1.3785,-1.3505,-1.467,-1.6718,-1.9487,-1.9422,-1.8724,-1.7553,0.0,0.0,0.0,0.0,0.0,0.0,0.0,0.0,0.0,0.0,0.0,0.0,0.0,0.0,0.0,0.0,0.0,0.0,0.0,0.0,0.0,1.2486,1.3965,1.3685,1.3659,1.3146,1.1418,0.8809,0.6793,0.5922,0.4916,0.578,0.9577,1.1419,1.3821,1.7028,1.9347,2.0335,1.9831,1.974,1.9592,1.9396,1.8565,1.8261,1.8281,1.806,1.7268,1.6164,1.516,1.3306,1.0966,0.9141,0.7617,0.6242,0.5343,0.4034,0.2623,0.3127,0.1108,-0.2219,-0.2219,-0.2923,-0.4029,-0.4131,-0.432,-0.4688,-0.5701,-0.6042,-0.6096,-0.6579,-0.7384,-0.7966,-0.7807,-0.8087,-0.8474,-0.8517,-0.8627,-0.863,-0.8931,-0.8931,-0.9015,-0.9268,-0.8864,-0.8384,-0.8008,-0.7897,-0.7677,-0.7211,-0.721,-0.7455,-0.8104,-0.772,-0.7247,-0.6913,-0.5599,-0.5324,-0.718,-0.7748,-0.8608,-1.0008,-1.1977,-1.2197,-1.0061,-1.0798,-1.1786,-1.263,-1.3922,-1.5822,-1.8437,-1.8775,-1.8889,0.0,0.0,0.0,0.0,0.0,0.0,0.0,0.0,0.0,0.0,0.0,0.0,0.0,0.0,0.0,0.0,0.0,0.0,0.0,0.0,0.0,0.0,1.368,1.4933,1.4809,1.4388,1.3316,1.1368,0.7871,0.5349,0.4583,0.3691,0.4793,0.8872,1.0486,1.2871,1.6293,1.8492,1.9539,1.9242,1.9665,1.9776,1.9576,1.8952,1.8646,1.8743,1.7891,1.6925,1.5998,1.4526,1.2638,1.0635,0.884,0.7521,0.6339,0.4736,0.353,0.2826,0.0,0.0,0.0,0.0,-0.4236,-0.4834,-0.5133,-0.5233,-0.5427,-0.6457,-0.6828,-0.6911,-0.7414,-0.7841,-0.8206,-0.8402,-0.8561,-0.8627,-0.8726,-0.8928,-0.9031,-0.9133,-0.913,-0.911,-0.9139,-0.883,-0.8261,-0.7722,-0.7396,0.0,-0.6919,-0.6973,-0.741,-0.8795,-0.8538,-0.8119,-0.8043,-0.6444,-0.5812,-0.6876,-0.7223,-0.7858,-0.9129,-1.1451,0.0,0.0,0.0,-1.2427,-1.3517,-1.501,0.0,0.0,0.0,-1.8912,-1.8737,-2.0361,0.0,0.0,-2.2254,-2.3155,0.0,0.0,0.0,0.0,0.0,0.0,0.0,0.0,0.0,0.0,0.0,0.0,0.0,0.0,0.0,0.0,1.4564,1.5512,1.4517,1.3649,1.2112,0.9479,0.6548,0.4246,0.3135,0.3249,0.4916,0.8666,1.0112,1.2205,1.538,1.69,0.0,0.0,0.0,1.8976,1.9081,1.9045,1.9129,1.933,1.7569,1.6418,1.5702,1.3059,1.1401,1.0516,0.8165,0.6971,0.6556,0.4138,0.2827,0.2422,0.2422,0.0303,-0.293,-0.4645,-0.5244,-0.5233,-0.6331,0.0,0.0,-0.754,-0.7842,-0.7646,-0.7939,-0.8038,-0.8137,-0.873,-0.863,-0.8531,-0.8825,-0.9031,-0.9236,-0.9236,-0.943,-0.9485,-0.9131,-0.8813,-0.8472,-0.7827,-0.7516,-0.7237,-0.7143,-0.7237,-0.8129,-1.0698,-0.9603,-0.8928,-1.0122,-0.7604,-0.5438,-0.4568,-0.4879,0.0,-0.6191,-0.9792,-1.1516,-1.0053,-1.2414,-1.4251,-1.5288,-1.6677,-1.7844,-1.8505,-1.9079,-1.8939,-1.8006,-2.0105,-2.1319,-2.1649,-2.2927,-2.4073,0.0,0.0,0.0,0.0,0.0,0.0,0.0,0.0,0.0,0.0,0.0,0.0,0.0,0.0,0.0,1.1943,1.2959,1.3496,1.3434,1.1494,0.9654,0.8452,0.5462,0.3802,0.4812,0.5079,0.6425,0.9439,1.1127,1.3146,1.5649,1.5928,1.6815,1.8509,1.8735,1.9171,1.9946,1.9692,1.9568,1.9241,1.7569,0.0,1.4539,1.257,1.0256,0.749,0.6782,0.5525,0.4015,0.2779,0.1735,0.0706,-0.121,-0.3126,-0.4841,-0.4939,-0.5739,-0.6736,-0.6537,-0.6736,-0.7039,-0.7543,-0.7646,-0.7646,-0.8137,-0.8333,0.0,-0.8931,-0.9133,-0.9133,-0.9331,-0.9529,-0.9529,-0.9529,-0.9529,-0.962,-0.9485,-0.928,-0.8939,-0.8475,-0.8161,-0.7773,-0.6903,-0.7289,-0.8014,-0.8758,-0.8913,-0.9076,-0.909,-0.7985,-0.7877,-0.9488,-0.9972,-1.0186,-1.0404,-1.2135,-1.2326,-1.016,-1.1644,-1.3247,-1.4425,-1.559,-1.667,-1.7821,-1.8157,-1.8348,-1.838,-1.9793,-2.0731,-2.1209,-2.4003,-2.5455,0.0,0.0,0.0,0.0,0.0,0.0,0.0,0.0,0.0,0.0,0.0,0.7965,0.866,0.0,1.0284,1.1663,1.2335,1.2427,1.1842,0.9945,0.8112,0.6649,0.4296,0.3297,0.4125,0.5062,0.6665,0.8894,1.0854,1.2288,1.3316,1.3743,1.4703,1.641,1.6975,1.7877,1.9456,1.8483,1.8111,1.8434,1.597,1.4215,1.3146,1.1575,0.9519,0.7116,0.6556,0.5389,0.3771,0.2182,0.0825,-0.0307,-0.1925,-0.3331,-0.4336,-0.4939,-0.5639,-0.6437,-0.6839,-0.7141,-0.7441,-0.7743,-0.7842,-0.8038,-0.8432,-0.8528,-0.8535,-0.9034,-0.9034,-0.8931,-0.9331,-0.943,-0.943,-0.9529,-0.9628,-0.9628,-0.9628,-0.943,-0.911,-0.8928,-0.8713,-0.8318,-0.7821,-0.8217,-0.8416,-0.7926,-0.8685,-0.9232,-0.9225,-0.8421,-0.8223,-0.9231,-0.958,-0.9684,-0.9576,-1.0949,-1.1522,-1.1012,-1.176,-1.3108,-1.4937,-1.5704,-1.6567,-1.7721,-1.8102,-1.8381,-1.8481,-1.9729,-2.0499,-2.1089,-2.3561,-2.506,0.0,0.0,0.0,0.0,0.0,0.0,0.0,0.6093,0.7022,0.8103,0.8385,0.8732,0.9785,0.9794,0.9964,1.1152,1.1581,1.145,1.0014,0.8811,0.7428,0.5386,0.3912,0.3361,0.3988,0.5397,0.7031,0.8659,1.0102,1.0941,1.1017,1.1467,1.2497,1.3873,1.4848,1.6181,1.8105,1.682,1.6459,1.7099,1.4136,1.2538,1.2051,1.0349,0.8766,0.7358,0.5974,0.491,0.3837,0.1573,0.0,-0.1041,-0.1834,-0.2531,-0.3245,-0.4843,-0.5639,-0.6137,-0.7341,-0.7842,-0.7842,-0.8038,-0.8333,-0.8531,-0.8829,-0.863,-0.8535,-0.9034,-0.8832,-0.8531,-0.9034,-0.9133,-0.9236,-0.943,-0.9529,-0.9628,-0.9628,-0.943,-0.9232,-0.9236,-0.9031,-0.8825,-0.8623,-0.8931,-0.8935,-0.8031,-0.8733,-0.9331,-0.9529,-0.8825,-0.812,-0.7614,-0.8021,-0.8219,-0.8014,-0.9217,-1.0404,-1.1565,-1.2237,-1.3392,-1.5412,-1.6089,-1.6857,-1.7721,-1.8126,-1.838,-1.838,-1.9364,-2.0015,-2.0585,-2.2232,-2.3886,0.1364,0.2884,0.4289,0.5232,0.5144,0.526,0.0,0.7444,0.7491,0.8592,0.8796,0.8853,0.8884,0.8907,0.9082,0.9465,0.9809,0.9809,0.8813,0.8376,0.7592,0.6076,0.5035,0.5389,0.7621,0.8178,0.8902,0.9957,0.9965,1.0415,1.1334,1.0384,1.0848,1.3054,1.4137,1.4939,1.5496,1.6044,1.592,1.5257,1.3381,1.2295,1.1946,0.9106,0.7618,0.6964,0.3701,0.2179,0.1959,0.0428,-0.0743,-0.1694,-0.2148,-0.2446,-0.2785,-0.4855,-0.6229,-0.7135,-0.8329,-0.8627,-0.8627,-0.8726,-0.8726,-0.8825,-0.9031,-0.8832,-0.8535,-0.9034,-0.8832,-0.8432,-0.8726,-0.9031,-0.9236,-0.9236,-0.943,-0.9628,-0.9628,-0.9529,-0.9529,-0.9236,-0.9133,-0.8832,-0.7928,-0.8531,-0.9137,-0.9034,-0.9331,-0.9529,-0.9628,-0.9525,-0.8924,-0.7713,-0.8718,-0.9426,-0.9426,-0.9525,-0.992,-1.0507,-1.2334,-1.368,-1.4459,-1.6183,-1.7333,-1.7721,-1.7705,-1.7817,-1.8006,-1.8041,-1.8296,-1.8774,-1.9989,-2.209,0.1248,0.3363,0.5274,0.6369,0.6639,0.6914,0.8597,0.8868,0.8891,0.9734,0.972,0.951,0.8894,0.8295,0.8054,0.8562,0.8817,0.895,0.896,0.8271,0.7788,0.7487,0.6598,0.6395,0.7477,0.8113,0.8723,0.9165,0.9499,0.9657,0.9359,0.8806,0.9235,1.0992,1.1401,1.2205,1.3438,1.2795,1.2474,1.246,1.0288,0.923,0.8903,0.7814,0.6687,0.5429,0.255,0.1443,0.1663,0.0436,-0.0433,-0.1078,-0.2316,-0.2705,-0.2897,-0.4158,-0.5329,-0.6429,-0.7531,-0.823,-0.8825,-0.8825,-0.8928,-0.8931,-0.8432,-0.8131,-0.7829,-0.7226,-0.6828,-0.6528,-0.6628,-0.7229,-0.7928,-0.8223,-0.8829,-0.943,-0.9727,-0.9727,-0.9628,-0.9628,-0.9529,-0.9331,-0.8829,-0.913,-0.943,-0.943,-0.9529,-0.9628,-0.9628,-0.9628,-0.9426,-0.8821,-0.9225,-0.9628,-0.9628,-0.9628,-1.0113,-1.1179,-1.2533,-1.3878,-1.5127,-1.656,-1.7426,-1.7721,-1.7758,-1.7854,-1.7861,-1.7858,-1.801,-1.8479,-1.8968,-2.0372,0.2159,0.4407,0.6451,0.7922,0.8317,0.8739,0.9857,0.9782,0.9469,0.9767,0.93,0.8729,0.7829,0.7066,0.6645,0.7241,0.7555,0.7979,0.8497,0.8118,0.8059,0.8543,0.7193,0.6274,0.6274,0.7492,0.8355,0.8372,0.8967,0.8839,0.7991,0.7763,0.8176,0.9004,0.9212,0.9813,1.1048,0.9993,0.9574,0.9782,0.7859,0.6808,0.6478,0.6379,0.5375,0.3585,0.1569,0.0561,0.0336,0.011,-0.0438,-0.1317,-0.258,-0.3076,-0.3151,-0.361,-0.4483,-0.5562,-0.6642,-0.7478,-0.8234,-0.8151,-0.8254,-0.8285,-0.754,-0.7229,-0.693,-0.6024,-0.5427,-0.5229,-0.5229,-0.5729,-0.6528,-0.722,-0.8124,-0.8928,-0.9624,-0.9723,-0.9723,-0.9821,-0.9821,-0.9727,-0.9628,-0.9628,-0.9628,-0.9628,-0.9628,-0.9628,-0.9628,-0.9628,-0.9727,-0.9727,-0.9826,-0.9821,-0.9727,-0.9727,-1.0212,-1.1272,-1.2441,-1.3698,-1.5134,-1.6473,-1.7333,-1.7621,-1.7667,-1.7725,-1.7714,-1.7453,-1.7523,-1.8004,-1.8152,-1.8967,0.0,0.6434,0.7898,1.01,1.0335,1.0241,1.0895,0.9817,0.8549,0.7859,0.671,0.5706,0.5154,0.4765,0.4608,0.4681,0.5754,0.6735,0.6722,0.772,0.8342,0.8462,0.6228,0.4677,0.4677,0.6891,0.8372,0.8509,0.8125,0.7991,0.7872,0.7763,0.7701,0.7701,0.8395,0.8552,0.8093,0.8638,0.8452,0.7434,0.6977,0.6366,0.581,0.4923,0.3585,0.1795,0.0561,-0.1345,-0.3246,-0.099,-0.1212,-0.3008,-0.3239,-0.3444,-0.3484,-0.3428,-0.4098,-0.5045,-0.6062,-0.6575,-0.6628,-0.6499,-0.6502,-0.6575,-0.6458,-0.6226,-0.6029,-0.6029,-0.5629,-0.5229,-0.5229,-0.5229,-0.5529,-0.6528,-0.7223,-0.7918,-0.9031,-0.9628,-0.992,-0.9628,-0.9826,-0.992,-0.9628,-0.9628,-0.9628,-0.9628,-0.9628,-0.9628,-0.9628,-0.9821,-1.0019,-1.0019,-1.0216,-1.0314,-1.0019,-1.0019,-1.0019,-1.0019,-1.196,-1.3216,-1.3607,-1.5818,-1.7066,-1.7333,-1.7209,-1.7243,-1.7445,-1.6406,-1.6239,-1.6746,-1.718,-1.8132,0.0,0.6864,0.8537,1.1715,1.1769,1.1261,1.1594,1.0028,0.8236,0.704,0.6141,0.525,0.4276,0.3721,0.3294,0.2896,0.4208,0.5301,0.5434,0.4913,0.441,0.4086,0.3702,0.3223,0.2405,0.3857,0.5287,0.6399,0.6274,0.6761,0.7869,0.7763,0.7701,0.7701,0.7814,0.763,0.7046,0.7159,0.687,0.6073,0.5075,0.3466,0.1117,0.0559,-0.0447,-0.1791,-0.2238,-0.3022,-0.403,-0.4009,-0.3901,-0.3799,-0.4422,-0.4717,-0.4689,-0.4231,-0.4314,-0.4702,-0.5246,-0.5984,-0.6561,-0.6586,-0.6532,-0.639,-0.5637,-0.528,-0.5033,-0.413,-0.3728,-0.3527,-0.3426,-0.3728,-0.4329,-0.5029,-0.6323,-0.7617,-0.8715,-0.9809,-1.0609,-1.09,-1.0904,-1.0806,-1.0703,-1.0216,-0.9863,-0.9782,-0.9797,-0.9821,-0.9821,-1.0117,-1.0314,-1.0314,-1.0314,-1.0314,-1.0314,-1.0314,-1.0314,-1.0314,-1.1385,-1.264,-1.3692,-1.4943,-1.619,-1.7232,-1.7202,-1.6889,-1.6306,-1.6176,-1.5864,-1.5395,-1.6447,-1.7339,0.5132,0.7257,0.9251,1.2827,1.3083,1.2356,1.1912,1.0017,0.8,0.6355,0.5279,0.4399,0.359,0.2922,0.2489,0.2295,0.3842,0.4701,0.3729,0.2211,0.1101,0.0623,0.0743,0.062,-0.0127,0.0498,0.2095,0.4713,0.5183,0.627,0.8352,0.84,0.848,0.848,0.8277,0.776,0.6931,0.6586,0.5918,0.5163,0.3841,0.2136,-0.0226,-0.1909,-0.3485,-0.4863,-0.5054,-0.5264,-0.5377,-0.5942,-0.5714,-0.4812,-0.526,-0.5335,-0.5284,-0.4954,-0.4735,-0.472,-0.4504,-0.5036,-0.5829,-0.5757,-0.5901,-0.5836,-0.518,-0.47,-0.4332,-0.3429,-0.3026,-0.2725,-0.2623,-0.2823,-0.3426,-0.4331,-0.5727,-0.7319,-0.8806,-1.0199,-1.1389,-1.1775,-1.1868,-1.177,-1.1673,-1.0955,-1.0354,-1.0074,-1.0096,-1.012,-1.012,-1.0419,-1.0591,-1.0516,-1.0605,-1.0609,-1.0507,-1.0507,-1.0507,-1.0413,-1.1194,-1.2355,-1.3692,-1.4657,-1.5812,-1.7153,-1.685,-1.6409,-1.5739,-1.5352,-1.5017,-1.4718,-1.5363,-1.6308,0.5116,0.7743,1.0251,1.3434,1.4169,1.3619,1.1864,0.9894,0.7951,0.5853,0.426,0.3266,0.2949,0.2311,0.2123,0.2838,0.4588,0.4864,0.2214,0.0243,-0.1206,-0.1973,-0.2346,-0.2592,-0.2596,-0.2592,-0.0868,0.3399,0.4718,0.639,0.8955,0.9441,0.9684,0.9684,0.9319,0.8596,0.7385,0.6663,0.5682,0.4593,0.3279,0.2376,0.1492,-0.237,-0.5324,-0.7257,-0.7812,-0.7747,-0.7179,-0.6839,-0.6606,-0.6374,-0.5706,-0.5483,-0.5483,-0.5483,-0.5483,-0.5238,-0.3997,-0.3929,-0.4568,-0.4425,-0.4695,-0.5098,-0.5012,-0.4612,-0.4038,-0.4038,-0.3533,-0.2927,-0.2927,-0.2724,-0.2924,-0.4433,-0.5629,-0.7018,-0.911,-1.089,-1.2068,-1.2339,-1.2834,-1.3044,-1.2457,-1.1662,-1.101,-1.042,-1.0323,-1.0319,-1.031,-1.0804,-1.1025,-1.0824,-1.1096,-1.11,-1.0801,-1.0801,-1.0703,-1.0413,-1.1394,-1.236,-1.3414,-1.4663,-1.5818,-1.6885,-1.6285,-1.5752,-1.5661,-1.3999,-1.3674,-1.4584,-1.4057,-1.5198,0.7451,0.9348,1.0949,1.3798,1.3619,1.2678,1.1948,0.9913,0.7714,0.6345,0.514,0.3965,0.2521,0.1668,0.1436,0.2005,0.2573,0.4993,1.1303,0.4496,-0.1232,-0.1881,-0.2362,-0.2489,-0.2546,-0.2625,-0.1613,0.0755,0.2732,0.4676,0.6637,0.75,0.7991,0.7991,0.7869,0.7627,0.7021,0.6235,0.5154,0.3907,0.3504,0.2021,-0.0451,-0.2464,-0.4935,-0.7679,-0.7856,-0.7943,-0.7829,-0.7718,-0.7604,-0.7598,-0.7376,-0.7376,-0.7265,-0.6601,-0.6379,-0.626,-0.521,-0.5002,-0.5142,-0.5099,-0.515,-0.5198,-0.5283,-0.4956,-0.4732,-0.4732,-0.4482,-0.4332,-0.4332,-0.413,-0.413,-0.4937,-0.5737,-0.7027,-0.9099,-1.0872,-1.2441,-1.3788,-1.4346,-1.4288,-1.3385,-1.2692,-1.2138,-1.1536,-1.1129,-1.0767,-1.0628,-1.078,-1.0959,-1.11,-1.1194,-1.1194,-1.1096,-1.11,-1.0998,-1.0703,-1.0998,-1.1575,-1.2533,-1.3692,-1.4841,-1.6089,-1.6662,-1.6142,-1.464,-1.4558,-1.4052,-1.3328,-1.4075,-1.5173,0.888,0.9808,1.0293,1.293,1.2816,1.1647,1.0708,0.9367,0.7681,0.5472,0.4075,0.3032,0.201,0.1664,0.1679,0.2695,0.2075,0.369,1.041,0.6402,0.1733,-0.1639,-0.2118,-0.2359,-0.2779,-0.2991,-0.2599,-0.0998,0.099,0.3075,0.5158,0.6754,0.7617,0.7617,0.7861,0.7622,0.6653,0.5893,0.5088,0.4225,0.3553,0.251,0.0809,-0.1705,-0.4879,-0.8262,-0.8286,-0.8539,-0.8913,-0.8371,-0.8481,-0.8913,-0.8263,-0.8045,-0.7934,-0.749,-0.7268,-0.7157,-0.6599,-0.6376,-0.6265,-0.5929,-0.5863,-0.5999,-0.5999,-0.578,-0.545,-0.545,-0.5203,-0.4945,-0.4906,-0.4892,-0.4983,-0.545,-0.6337,-0.7524,-0.9201,-1.0779,-1.2478,-1.4522,-1.4967,-1.4918,-1.4624,-1.4146,-1.3392,-1.2472,-1.1845,-1.139,-1.1182,-1.1019,-1.1005,-1.1208,-1.1194,-1.1194,-1.1194,-1.1194,-1.11,-1.0998,-1.1002,-1.1673,-1.3113,-1.3782,-1.4835,-1.6466,-1.656,-1.5893,-1.4268,-1.4076,-1.3607,-1.2861,-1.3896,-1.505,0.9295,0.9486,0.9226,1.1669,1.1696,1.0723,0.9211,0.8706,0.7659,0.4408,0.2642,0.1627,0.1929,0.2098,0.2615,0.3972,0.2629,0.2339,0.4938,0.6507,0.5217,-0.063,-0.1746,-0.2225,-0.2838,-0.3332,-0.3208,-0.2097,-0.0246,0.1844,0.4167,0.6128,0.7233,0.7357,0.8091,0.7734,0.6403,0.5821,0.5298,0.4939,0.3624,0.3042,0.3001,-0.0931,-0.4868,-0.8614,-0.8781,-0.9402,-1.0245,-0.9147,-0.9354,-1.0218,-0.8809,-0.8266,-0.8159,-0.8174,-0.8171,-0.8048,-0.7736,-0.7621,-0.7493,-0.671,-0.6756,-0.7116,-0.7116,-0.6708,-0.6189,-0.6189,-0.5861,-0.5406,-0.5218,-0.5401,-0.5789,-0.6209,-0.7187,-0.8382,-0.9577,-1.087,-1.2506,-1.4481,-1.4943,-1.5146,-1.5796,-1.5542,-1.4769,-1.3499,-1.2755,-1.2327,-1.1889,-1.147,-1.1176,-1.126,-1.1236,-1.1227,-1.1198,-1.1124,-1.1128,-1.11,-1.1246,-1.2222,-1.389,-1.4304,-1.5267,-1.7044,-1.6372,-1.5507,-1.4459,-1.3596,-1.3125,-1.3141,-1.389,-1.5127,0.8213,0.9226,0.9908,1.1046,1.0604,0.9648,0.9154,0.8488,0.735,0.5258,0.3974,0.3184,0.3258,0.3454,0.3598,0.369,0.4154,0.455,0.4534,0.4769,0.4328,0.265,-0.0251,-0.2126,-0.2594,-0.2467,-0.222,-0.1973,0.037,0.1974,0.2463,0.3446,0.4307,0.4926,0.6154,0.6521,0.6031,0.6429,0.6381,0.566,0.4257,0.247,0.0473,-0.1756,-0.4326,-0.7288,-0.8762,-1.0025,-1.0978,-0.9968,-1.0241,-1.121,-0.9915,-0.9375,-0.9172,-0.9069,-0.87,-0.8393,-0.8176,-0.803,-0.7823,-0.7265,-0.7254,-0.7465,-0.7465,-0.7374,-0.7163,-0.7163,-0.6877,-0.6479,-0.6461,-0.6661,-0.7075,-0.758,-0.8092,-0.8916,-1.066,-1.2191,-1.3324,-1.3768,-1.4957,-1.5844,-1.5591,-1.6039,-1.6051,-1.4891,-1.4124,-1.3315,-1.2625,-1.1813,-1.1378,-1.1482,-1.1463,-1.1292,-1.0918,-1.1061,-1.0988,-1.052,-1.1711,-1.245,-1.2375,-1.4491,-1.568,-1.5724,-1.6567,-1.656,-1.5514,-1.5609,-1.5419,-1.493,-1.5317,-1.6177,0.5969,0.746,0.8703,0.8273,0.6505,0.509,0.634,0.6751,0.6391,0.4936,0.389,0.3334,0.3617,0.3774,0.3953,0.4548,0.6025,0.7197,0.7525,0.7045,0.597,0.4086,0.076,-0.138,-0.0864,-0.1357,-0.1604,-0.148,0.0,0.1235,0.1975,0.2343,0.3081,0.4067,0.5297,0.616,0.6908,0.6365,0.5977,0.5489,0.3001,0.1078,-0.0121,-0.346,-0.5706,-0.702,-0.8952,-1.0597,-1.162,-1.0447,-1.0711,-1.1687,-1.0394,-0.9706,-0.9607,-0.9568,-0.9328,-0.894,-0.8677,-0.8431,-0.8156,-0.7712,-0.7712,-0.7826,-0.7826,-0.7781,-0.7728,-0.7728,-0.7468,-0.7191,-0.7338,-0.7425,-0.7621,-0.8187,-0.88,-0.9425,-1.0252,-1.1074,-1.1827,-1.2655,-1.4008,-1.5175,-1.5749,-1.6634,-1.6791,-1.5921,-1.5159,-1.4484,-1.3746,-1.3198,-1.2541,-1.1704,-1.1671,-1.1531,-1.1327,-1.1309,-1.1119,-1.0918,-1.2001,-1.2837,-1.3114,-1.4881,-1.6095,-1.6443,-1.7493,-1.7404,-1.5994,-1.664,-1.6626,-1.5954,-1.6532,-1.7554,0.3873,0.5287,0.6446,0.4754,0.2437,0.1176,0.311,0.4489,0.5108,0.4377,0.3717,0.3404,0.4046,0.4064,0.463,0.0,0.7533,0.8884,1.0314,0.954,0.7857,0.4899,0.1913,0.0377,0.0987,0.0123,-0.0617,-0.074,-0.037,0.0247,0.1482,0.1974,0.2712,0.3697,0.4928,0.6164,0.7534,0.6419,0.5427,0.4684,0.134,-0.0244,-0.062,-0.5134,-0.7052,-0.6803,-0.9184,-1.1087,-1.2382,-1.0924,-1.1281,-1.2483,-1.0757,-0.9926,-0.993,-0.9968,-0.9735,-0.9493,-0.9186,-0.8954,-0.8709,-0.8488,-0.8266,-0.8156,-0.8156,-0.8156,-0.8152,-0.8152,-0.7937,-0.7802,-0.7913,-0.7907,-0.8125,-0.8693,-0.9426,-0.9964,-0.9961,-0.9854,-1.0198,-1.1357,-1.2859,-1.4395,-1.5512,-1.6829,-1.7371,-1.6624,-1.5873,-1.5238,-1.46,-1.4062,-1.3276,-1.2197,-1.212,-1.2176,-1.2127,-1.1855,-1.1657,-1.1511,-1.2615,-1.3545,-1.4151,-1.5569,-1.6814,-1.7727,-1.8512,-1.8319,-1.7109,-1.801,-1.8257,-1.7772,-1.8533,-1.9629,0.3196,0.3359,0.2808,0.1404,0.1055,0.1048,0.124,0.2262,0.3385,0.4097,0.4487,0.4786,0.5041,0.5477,0.0,0.0,0.0,0.8437,0.9919,0.9937,0.8662,0.5146,0.4113,0.3431,0.247,0.1972,0.1233,-0.0,-0.0617,-0.0617,0.0123,0.2096,0.3203,0.3326,0.5295,0.6403,0.6528,0.7278,0.6037,0.2828,0.0246,-0.124,-0.1888,-0.5773,-0.6895,-0.6129,-0.9355,-1.1967,-1.3848,-1.1772,-1.2292,-1.4135,-1.163,-1.0476,-1.0276,-1.0436,-1.017,-0.9728,-0.9879,-0.9831,-0.9706,-0.9596,-0.9151,-0.8484,-0.8484,-0.8595,-0.8813,-0.8484,-0.8484,-0.8371,-0.8029,-0.8342,-0.8917,-0.9838,-1.0326,-1.0665,-1.0665,-1.044,-1.0174,-1.0156,-1.2437,-1.4238,-1.3948,-1.618,-1.7806,-1.7173,-1.6092,-1.5125,-1.4385,-1.3088,-1.2318,-1.2719,-1.3391,-1.3492,-1.3064,-1.2715,-1.2331,-1.1831,-1.3746,-1.4628,-1.427,-1.6467,-1.8025,-1.8766,-1.8962,-1.9405,-2.0223,-2.0935,-2.1444,-2.1743,-2.2299,-2.2834,0.0116,0.0353,0.0238,-0.0354,-0.0477,-0.024,0.0232,0.1264,0.2493,0.3923,0.437,0.4704,0.5214,0.564,0.0,0.0,0.0,0.0,0.9683,0.9363,0.8492,0.7146,0.4797,0.3403,0.3828,0.2343,0.1111,0.0494,-0.0864,-0.1605,-0.1851,-0.0247,0.222,0.5313,0.5056,0.4926,0.4926,0.5348,0.4724,0.3324,-0.0,-0.1771,-0.2145,-0.5335,-0.6626,-0.6613,-0.9634,-1.1987,-1.3555,-1.188,-1.213,-1.3556,-1.1462,-1.0582,-1.059,-1.0552,-1.0426,-1.0154,-1.0113,-0.9983,-0.9816,-0.9816,-0.9596,-0.9261,-0.9261,-0.9372,-0.9372,-0.9261,-0.9151,-0.9064,-0.9262,-0.9624,-1.0108,-1.0517,-1.0763,-1.0874,-1.0532,-1.0337,-1.0133,-0.9843,-1.1842,-1.3692,-1.3717,-1.5962,-1.7694,-1.7483,-1.6305,-1.5232,-1.4911,-1.3619,-1.3186,-1.4051,-1.3439,-1.3245,-1.3789,-1.3433,-1.3443,-1.3762,-1.4993,-1.5964,-1.6166,-1.7855,-1.9018,-1.9638,-2.0382,-2.0902,-2.1302,-2.2522,-2.3211,-2.3451,-2.4312,-2.5362,-0.196,-0.1662,-0.1454,-0.1797,-0.1929,-0.1693,-0.0473,0.0463,0.1581,0.3623,0.4366,0.4768,0.5393,0.5852,0.0,0.0,0.0,0.8493,0.9714,0.8533,0.7822,0.8307,0.5379,0.3507,0.3579,0.1973,0.0741,0.0494,-0.0987,-0.2098,-0.2837,-0.2098,0.0493,0.494,0.3944,0.3325,0.3449,0.3251,0.3007,0.248,-0.0255,-0.18,-0.2302,-0.5026,-0.6466,-0.6846,-0.9829,-1.2021,-1.3409,-1.1933,-1.2043,-1.2983,-1.1466,-1.0741,-1.0692,-1.0692,-1.0582,-1.0476,-1.0476,-1.0253,-1.0033,-1.0033,-1.0033,-1.0033,-0.9592,-0.9482,-0.9372,-0.9258,-0.9182,-0.9154,-0.9567,-1.0282,-1.0852,-1.0903,-1.0992,-1.1073,-1.0608,-1.0245,-0.9884,-0.961,-1.1603,-1.3454,-1.3604,-1.5855,-1.7582,-1.7582,-1.6405,-1.5441,-1.5013,-1.404,-1.3717,-1.4583,-1.3727,-1.3619,-1.4809,-1.4589,-1.4583,-1.5215,-1.6262,-1.7213,-1.7738,-1.9125,-2.0285,-2.1154,-2.1985,-2.2674,-2.3047,-2.4341,-2.5115,-2.5178,-2.6255,-2.7449,-0.2132,-0.2002,-0.2223,-0.3085,-0.3496,-0.3179,-0.1058,-0.0573,0.0334,0.3288,0.4589,0.5352,0.6004,0.6542,0.0,0.0,0.0,0.7888,0.9847,0.7635,0.6449,0.791,0.6553,0.4382,0.1602,0.0862,0.037,0.0,-0.0987,-0.1849,-0.259,-0.2837,-0.1849,0.0738,0.1598,0.2213,0.2463,0.1749,0.0755,-0.0503,-0.0639,-0.1298,-0.2635,-0.5258,-0.6564,-0.6821,-1.0081,-1.2314,-1.3617,-1.2273,-1.2375,-1.3203,-1.1671,-1.0854,-1.0692,-1.0692,-1.0692,-1.0692,-1.0692,-1.0692,-1.0692,-1.0692,-1.0692,-1.0472,-0.9254,-0.8702,-0.8484,-0.8143,-0.813,-0.841,-0.8558,-0.9825,-1.1185,-1.1226,-1.1144,-1.1024,-1.1024,-1.042,-0.9792,-0.9631,-1.1716,-1.3417,-1.3305,-1.5743,-1.7582,-1.7582,-1.6611,-1.5429,-1.4239,-1.3917,-1.3706,-1.3722,-1.4476,-1.5441,-1.6624,-1.6205,-1.5885,-1.5891,-1.743,-1.8359,-1.8352,-2.0419,-2.2232,-2.3763,-2.3887,-2.4707,-2.6185,-2.6846,-2.7336,-2.7799,-2.8462,-2.9043,-0.2493,-0.2431,-0.247,-0.2707,-0.2102,-0.1274,-0.0579,0.0345,0.1474,0.2792,0.3526,0.4246,0.4734,0.5414,0.0,0.0,0.0,0.729,0.7122,0.6248,0.5763,0.5887,0.4656,0.2727,-0.0247,-0.0123,-0.0248,-0.1001,-0.3126,-0.4394,-0.4816,-0.4776,-0.3483,-0.0615,-0.0246,-0.0,0.0,-0.0254,-0.1023,-0.2305,-0.2361,-0.2515,-0.2638,-0.5576,-0.6923,-0.7436,-1.0154,-1.2337,-1.3853,-1.2116,-1.2052,-1.2988,-1.1251,-1.0524,-1.0476,-1.0476,-1.0476,-1.0472,-1.0692,-1.0692,-1.0692,-1.0692,-1.0692,-1.0472,-0.9254,-0.8809,-0.8608,-0.7691,-0.8265,-0.9109,-0.9183,-1.0421,-1.163,-1.1684,-1.1674,-1.1657,-1.1193,-1.0827,-1.0466,-0.996,-1.1291,-1.2702,-1.3496,-1.5209,-1.6717,-1.747,-1.6611,-1.5755,-1.5429,-1.4567,-1.4245,-1.5108,-1.5648,-1.6193,-1.6955,-1.6855,-1.747,-1.8998,-1.9509,-2.0436,-2.1667,-2.2572,-2.3556,-2.4693,-2.5178,-2.5968,-2.7069,-2.7891,-2.8912,-3.0139,-3.0594,-3.0619,0.0,-0.2817,-0.2638,-0.251,-0.1709,-0.091,-0.0791,0.0449,0.1675,0.2224,0.274,0.3364,0.4049,0.0,0.0,0.5872,0.5256,0.484,0.509,0.3774,0.287,0.2992,0.1826,0.0247,-0.1358,-0.1365,-0.1624,-0.2773,-0.4681,-0.5982,-0.6417,-0.671,-0.5751,-0.3222,-0.2345,-0.1862,-0.189,-0.1918,-0.2455,-0.3383,-0.346,-0.3349,-0.3189,-0.5748,-0.7215,-0.7693,-1.0293,-1.2063,0.0,-1.1996,-1.1811,-1.2214,-1.0907,-1.0315,-1.0257,-1.0147,-1.0147,-1.0366,-1.0472,-1.0582,-1.0692,-1.0692,-1.0021,-0.8913,-0.7808,-0.7476,-0.7393,-0.6157,-0.726,-0.8737,-0.8877,-1.0329,-1.1862,-1.1979,-1.1949,-1.192,-1.1465,-1.1214,-1.0863,-1.0304,-1.1308,-1.2521,-1.3485,-1.4888,-1.6293,-1.747,-1.7041,-1.6399,-1.5968,-1.5642,-1.5535,-1.5968,-1.6617,-1.7265,-1.7911,-1.7806,-1.8408,-2.0341,-2.0853,-2.1878,-2.3511,-2.4205,-2.4862,-2.5552,-2.633,-2.6995,-2.7718,-2.8779,-2.9883,-3.1035,-3.1663,-3.1492,0.0,-0.3156,-0.2506,-0.2247,-0.1904,-0.1672,-0.1317,0.0,0.0,0.0,0.0,0.0,0.0,0.0,0.0,0.4869,0.2355,0.106,0.3039,0.0482,-0.1445,-0.086,-0.1849,-0.2713,-0.2713,-0.3001,-0.3663,-0.4808,-0.5876,-0.6814,-0.7591,-0.8614,-0.8542,-0.7041,-0.4972,-0.3608,-0.3155,-0.346,-0.3639,-0.3689,-0.3742,-0.3768,-0.3902,-0.604,-0.7315,-0.8003,-1.047,-1.171,-1.2016,-1.1817,-1.1533,-1.1204,-1.0681,-1.0401,-1.0147,-0.9926,-0.9926,-1.0147,-1.0257,-1.0472,-1.0692,-1.0582,-0.8799,-0.6468,-0.5252,-0.5035,-0.5054,-0.4003,-0.5504,-0.7464,-0.7817,-0.9813,-1.1778,-1.2007,-1.1981,-1.1841,-1.1841,-1.1475,-1.1131,-1.0802,-1.1664,-1.263,-1.3485,-1.4888,-1.6187,-1.7259,-1.7582,-1.7259,-1.618,-1.6935,-1.7364,-1.6511,-1.7371,-1.8436,-1.9175,-1.8743,-1.9131,-2.0531,-2.1566,-2.2785,-2.4187,-2.546,-2.6108,-2.6214,-2.7349,-2.8069,-2.8303,-2.9509,-3.0394,-3.0773,-3.1676,-3.1882,-0.5617,0.0,-0.2611,-0.1207,-0.132,-0.1538,0.0,0.0,0.0,0.0,0.0,0.0,0.0,0.0,0.0,-0.1121,-0.2287,-0.2891,-0.2313,-0.2248,-0.3735,-0.7399,-0.4901,-0.4812,-0.9532,-0.6634,-0.471,-0.5593,-0.7555,-0.9033,-0.9527,-1.0572,-1.082,-1.0318,-0.7924,-0.5767,-0.3784,-0.4011,-0.4071,-0.4085,-0.4145,-0.4038,-0.3902,-0.6575,-0.7715,-0.7998,-1.0621,-1.1862,-1.1996,-1.1541,-1.1301,-1.1191,-1.0544,-0.9735,-0.9037,-0.9923,-0.9702,-0.9037,-1.0249,-1.0692,-1.0468,-0.9357,-0.8134,-0.6695,-0.5363,-0.4364,-0.3597,-0.3661,-0.5614,-0.7689,-0.7815,-0.9964,-1.2158,-1.2271,-1.2224,-1.2188,-1.1968,-1.1818,-1.1678,-1.1459,-1.1564,-1.21,-1.296,-1.4143,-1.5221,-1.6187,-1.7041,-1.7477,-1.7259,-1.7582,-1.7806,-1.7589,-1.8233,-1.8764,-1.8974,-1.9071,-2.0071,-2.2475,-2.2885,-2.389,-2.5897,-2.6069,-2.6629,-2.7612,-2.888,-2.9758,-3.0062,-3.0381,-3.0761,-3.1123,-3.1408,-3.1329,-0.6396,-0.4928,-0.3367,-0.2001,-0.2226,-0.2665,0.0,0.0,0.0,0.0,0.0,0.0,0.0,0.0,0.0,-0.5704,-0.5897,-0.626,-0.7837,-0.7977,-0.8453,-0.9566,-0.7704,-0.7028,-0.9026,-0.6795,-0.5494,-0.6443,-0.8205,-0.9469,-1.007,-1.1493,-1.1904,-1.1111,-1.0069,-0.8234,-0.5718,-0.581,-0.5896,-0.5971,-0.6017,-0.5772,-0.5371,-0.746,-0.8167,-0.8049,-1.0605,-1.1657,-1.1764,-1.1472,-1.1252,-1.0972,-0.9988,-0.9095,-0.8484,-0.8481,-0.8146,-0.7814,-0.9254,-1.0139,-1.0359,-0.8355,-0.7357,-0.6581,-0.4697,-0.3583,-0.3144,-0.3514,-0.5662,-0.7699,-0.7879,-0.9991,-1.2174,-1.228,-1.2416,-1.2332,-1.2223,-1.2219,-1.211,-1.1787,-1.2005,-1.2436,-1.2965,-1.4256,-1.5435,-1.5968,-1.7047,-1.7694,-1.7582,-1.7799,-1.8016,-1.822,-1.8653,-1.8974,-1.9279,-1.9879,-2.1081,-2.3194,-2.3384,-2.4398,-2.6479,-2.6796,-2.7475,-2.871,-2.934,-2.9985,-3.0698,-3.0773,-3.0911,-3.1198,-3.136,-3.1349,-0.7467,-0.6155,-0.4743,-0.3362,-0.3789,-0.4442,0.0,0.0,0.0,0.0,0.0,0.0,0.0,-0.5934,-0.6655,-0.9434,-0.8949,-0.9207,-1.1906,-1.2808,-1.2329,-0.9847,-0.9576,-0.8772,-0.6655,-0.6187,-0.6262,-0.7226,-0.84,-0.9302,-1.0003,-1.1764,-1.2095,-1.0941,-1.143,-1.0594,-0.8461,-0.81,-0.8081,-0.827,-0.8286,-0.789,-0.7344,-0.8571,-0.8825,-0.8408,-1.0582,-1.157,-1.1577,-1.1577,-1.138,-1.0964,-0.968,-0.892,-0.8371,-0.726,-0.6816,-0.6924,-0.8149,-0.9364,-0.9911,-0.7357,-0.6579,-0.6026,-0.3805,-0.3137,-0.325,-0.3475,-0.5586,-0.7686,-0.7904,-1.0006,-1.2114,-1.2332,-1.2441,-1.2441,-1.2441,-1.2441,-1.2332,-1.2114,-1.2578,-1.3034,-1.3237,-1.4877,-1.6184,-1.6254,-1.743,-1.8064,-1.7799,-1.8016,-1.8227,-1.8429,-1.8757,-1.9175,-1.9879,-2.0783,-2.1887,-2.3384,-2.3791,-2.4754,-2.666,-2.7558,-2.8464,-2.9343,-2.9303,-2.9806,-3.0773,-3.0911,-3.0986,-3.1061,-3.1373,-3.1596,-1.0541,-0.9158,-0.6827,-0.3251,-0.4261,-0.596,0.0,0.0,0.0,0.0,0.0,0.0,0.0,-1.162,-1.4019,-1.3207,-1.2828,-1.2267,-1.1339,-0.9221,-0.872,-1.0985,-0.8594,-0.7994,-1.126,-0.8762,-0.7268,-0.8088,-0.9065,-0.9764,-1.0132,-1.1056,-1.1921,-1.232,-1.1647,-1.1378,-1.1897,-0.998,-0.9154,-0.9326,-0.93,-0.9162,-0.8932,-1.0087,-1.0376,-0.9869,-1.1348,-1.186,-1.1727,-1.1727,-1.1718,-1.1621,-1.1343,-1.004,-0.8582,-0.9361,-0.8592,-0.7263,-0.8481,-0.8699,-0.814,-0.6475,-0.581,-0.5256,-0.3583,-0.325,-0.3587,-0.3587,-0.5586,-0.7686,-0.7904,-1.0006,-1.2114,-1.2332,-1.2441,-1.2441,-1.2441,-1.2441,-1.2436,-1.2327,-1.3023,-1.3482,-1.3367,-1.5498,-1.7108,-1.6441,-1.7936,-1.8936,-1.8352,-1.8541,-1.8764,-1.8869,-1.9071,-1.968,-2.0577,-2.1081,-2.219,-2.4196,-2.4786,-2.5684,-2.7069,-2.8271,-2.9009,-2.9138,-2.9844,-3.0432,-3.0911,-3.0986,-3.1061,-3.1272,-3.1347,-3.1508,-1.2771,-1.298,-1.1984,-0.7722,-0.7067,-0.7229,0.0,0.0,0.0,0.0,0.0,0.0,0.0,-1.2783,-1.3446,-1.1594,-1.368,-1.4761,-1.2482,-1.2521,-1.2495,-1.202,-1.0815,-0.9941,-1.0117,-0.8611,-0.782,-0.8119,-0.8632,-0.8973,-0.9163,-1.0005,-1.0721,-1.1276,-1.0775,-1.1389,-1.2936,-1.1411,-1.0852,-1.1504,-1.1574,-1.1264,-1.0715,-1.1198,-1.1072,-1.0397,-1.1511,-1.2038,-1.1914,-1.1914,-1.1916,-1.1742,-1.1081,-1.0094,-0.9244,-0.902,-0.8582,-0.8033,-0.8475,-0.8361,-0.7808,-0.648,-0.5592,-0.4923,-0.3473,-0.3139,-0.3141,-0.325,-0.492,-0.6803,-0.7796,-0.9453,-1.1227,-1.2219,-1.2441,-1.2441,-1.2441,-1.2441,-1.2441,-1.2441,-1.3047,-1.3603,-1.3377,-1.5285,-1.657,-1.5982,-1.7456,-1.8485,-1.8023,-1.8541,-1.8869,-1.8869,-1.9175,-1.9605,-2.042,-2.1195,-2.2481,-2.4447,-2.556,-2.6403,-2.7053,-2.7603,-2.798,-2.8309,-2.905,-2.9668,-2.9881,-3.0667,-3.1061,-3.1123,-3.1272,-3.1434,-1.518,-1.6199,-1.64,-1.3358,0.0,0.0,0.0,0.0,0.0,0.0,0.0,0.0,0.0,-1.3367,-1.2726,-1.1181,-1.3786,-1.5119,-1.2508,-1.4096,-1.4434,-1.1436,-1.131,-1.0523,-0.7875,-0.7583,-0.7609,-0.767,-0.7601,-0.7572,-0.7714,-0.8335,-0.8977,-0.9343,-0.9484,-1.0343,-1.2282,-1.1382,-1.189,-1.3608,-1.3565,-1.316,-1.241,-1.227,-1.1853,-1.1063,-1.1782,-1.2091,-1.2121,-1.2279,-1.2185,-1.1904,-1.1102,-1.0572,-1.0017,-0.8793,-0.8572,-0.8799,-0.8582,-0.814,-0.7476,-0.6371,-0.5258,-0.4252,-0.3361,-0.2915,-0.2805,-0.3026,-0.4142,-0.5697,-0.7572,-0.9013,-1.0453,-1.2001,-1.2441,-1.2441,-1.2441,-1.2441,-1.2441,-1.2441,-1.3152,-1.3804,-1.3634,-1.5321,-1.649,-1.5905,-1.7364,-1.8296,-1.7905,-1.8646,-1.9175,-1.9175,-1.9376,-1.9846,-2.0684,-2.2025,-2.3313,-2.4559,-2.602,-2.681,-2.6862,-2.6873,-2.7067,-2.7273,-2.8012,-2.8498,-2.8712,-3.0061,-3.0659,-3.0659,-3.1048,-3.136,-1.8223,-1.8032,-1.757,-1.8828,-1.8827,0.0,-0.9127,-1.0154,0.0,-0.9208,0.0,0.0,0.0,-1.5052,-1.6191,-1.5686,-1.4028,-1.1871,-0.924,-0.8534,-0.8157,-0.7541,-0.6913,-0.6749,-0.6898,-0.6405,-0.6319,-0.7156,-0.6456,-0.6118,-0.6428,-0.6262,-0.6575,-0.7676,-0.7567,-0.8175,-0.9417,-0.9274,-1.1125,-1.4796,-1.4613,-1.4318,-1.3806,-1.3528,-1.2976,-1.2158,-1.2078,-1.205,-1.206,-1.2798,-1.2755,-1.2356,-1.29,-1.2232,-1.0907,-1.0017,-0.9684,-0.9578,-0.8813,-0.7703,-0.6591,-0.5373,-0.4145,-0.3138,-0.2805,-0.2915,-0.3026,-0.3137,-0.3474,-0.4365,-0.7241,-0.8906,-1.0237,-1.2001,-1.2441,-1.2441,-1.2441,-1.2441,-1.2441,-1.2441,-1.3592,-1.4509,-1.4498,-1.6453,-1.776,-1.7041,-1.8514,-1.9481,-1.8764,-1.9457,-1.9975,-1.9975,-2.0078,-2.064,-2.2247,-2.4364,-2.5285,-2.4824,-2.5946,-2.6691,-2.6571,-2.6913,-2.6974,-2.6474,-2.715,-2.7567,-2.7787,-2.912,-2.9781,-2.9781,-3.0659,-3.1123,-1.9903,-1.9469,-1.8862,-1.9763,0.0,0.0,0.0,-1.2651,-1.4039,-1.4024,-1.3832,0.0,-2.0906,-1.4635,-0.9941,-1.3843,-1.1407,-0.8702,-0.8008,-0.6733,-0.6098,-0.6413,-0.5619,-0.5326,-0.6156,-0.6031,-0.6046,-0.6328,-0.605,-0.5961,-0.6216,-0.5976,-0.6071,-0.6661,-0.6075,-0.6562,-0.8276,-0.7633,-0.8685,-1.1542,-1.1736,-1.2151,-1.2769,-1.253,-1.2485,-1.2651,-1.2367,-1.2252,-1.2228,-1.2521,-1.2507,-1.2436,-1.2659,-1.2441,-1.1891,-1.1559,-1.1008,-1.0355,-1.0029,-0.8367,-0.6371,-0.5929,-0.459,-0.3025,-0.3027,-0.2915,-0.2915,-0.3026,-0.3695,-0.492,-0.7351,-0.8348,-0.9343,-1.1773,-1.2441,-1.2441,-1.2441,-1.2441,-1.2479,-1.2616,-1.3362,-1.4077,-1.442,-1.5586,-1.6442,-1.6617,-1.8041,-1.915,-1.9034,-2.0277,-2.1011,-2.0609,-2.1393,-2.2175,-2.2849,-2.4467,-2.5386,-2.5213,-2.6044,-2.6356,-2.5854,-2.6268,-2.6279,-2.5735,-2.6453,-2.6776,-2.6921,-2.824,-2.89,-2.89,-2.9781,-3.033,-2.0549,-2.0399,-1.9933,0.0,0.0,0.0,-1.4233,-1.4823,-1.6308,-1.4182,-1.2094,-1.2396,-1.7862,-1.1245,-0.656,-1.1126,-0.8352,-0.5774,-0.6296,-0.5158,-0.4406,-0.48,-0.4416,-0.4393,-0.5343,-0.5485,-0.5502,-0.5502,-0.5525,-0.5565,-0.5377,-0.5328,-0.5322,-0.5379,-0.4832,-0.5184,-0.6445,-0.5831,-0.6281,-0.7925,-0.8654,-0.9898,-1.1745,-1.1739,-1.2008,-1.2658,-1.2502,-1.2441,-1.2441,-1.2659,-1.2659,-1.2659,-1.2436,-1.2441,-1.2436,-1.2327,-1.1787,-1.1021,-1.0692,-0.8806,-0.6702,-0.626,-0.4812,-0.3137,-0.3027,-0.2915,-0.292,-0.3046,-0.4047,-0.5489,-0.7558,-0.8301,-0.9233,-1.1773,-1.2441,-1.2441,-1.2441,-1.2441,-1.2502,-1.2724,-1.3367,-1.402,-1.4505,-1.5452,-1.6211,-1.6895,-1.8436,-1.9539,-1.9857,-2.1089,-2.1827,-2.142,-2.2766,-2.3703,-2.3579,-2.4826,-2.5612,-2.5641,-2.6002,-2.5964,-2.5393,-2.5641,-2.5554,-2.4982,-2.569,-2.6006,-2.6006,-2.738,-2.8039,-2.8039,-2.9225,-2.9768,-2.0293,-2.0875,0.0,0.0,0.0,0.0,-1.2734,-1.6422,-1.8361,-0.7765,-0.2999,-0.0954,-0.1175,-0.4807,-0.7877,-0.8485,-0.5401,-0.3183,-0.3591,-0.3244,-0.2751,-0.2235,-0.2862,-0.3593,-0.4242,-0.4654,-0.4819,-0.4819,-0.4884,-0.4558,-0.3948,-0.3948,-0.3948,-0.3948,-0.395,-0.3921,-0.386,-0.386,-0.4152,-0.4593,-0.5735,-0.7955,-1.0858,-1.1446,-1.1929,-1.2436,-1.2436,-1.2436,-1.2441,-1.2989,-1.3315,-1.3207,-1.2659,-1.2441,-1.2332,-1.211,-1.2005,-1.1787,-1.0578,-0.9027,-0.7467,-0.6253,-0.4585,-0.3026,-0.2806,-0.2915,-0.3149,-0.3201,-0.4309,-0.5857,-0.7881,-0.9123,-1.0241,-1.2005,-1.2446,-1.2441,-1.2446,-1.2446,-1.2512,-1.2729,-1.3576,-1.432,-1.4799,-1.6447,-1.7901,-1.8319,-1.9931,-2.1081,-2.1334,-2.2013,-2.2526,-2.2526,-2.4205,-2.5112,-2.4679,-2.5849,-2.6413,-2.5934,-2.5733,-2.5475,-2.52,-2.5267,-2.4982,-2.4216,-2.4843,-2.5175,-2.5256,-2.6538,-2.7185,-2.7267,-2.9135,-2.9691,-2.1229,-1.9399,0.0,-1.9763,0.0,0.0,0.0,-1.333,0.0,0.0,-0.7471,-0.7888,-0.0345,-0.1162,-0.468,-0.962,-0.6817,-0.4299,-0.4719,-0.3194,-0.2365,-0.2825,-0.2599,-0.2839,-0.4472,-0.4727,-0.4859,-0.533,-0.5353,-0.5247,-0.513,-0.4656,-0.4418,-0.4418,-0.4105,-0.3858,-0.3797,-0.4269,-0.4807,-0.5502,-0.6679,-0.7888,-0.9266,-1.0174,-1.1121,-1.1787,-1.1787,-1.1891,-1.2114,-1.255,-1.2659,-1.2659,-1.2436,-1.2441,-1.2436,-1.2327,-1.2114,-1.2005,-1.1564,-1.0457,-0.891,-0.7467,-0.6139,-0.481,-0.3698,-0.4143,-0.5037,-0.5062,-0.6723,-0.8709,-0.9461,-1.0624,-1.1806,-1.2735,-1.2772,-1.271,-1.2852,-1.288,-1.2899,-1.2965,-1.3811,-1.474,-1.5715,-1.6888,-1.8117,-1.9498,-2.077,-2.201,-2.3182,-2.3229,-2.3238,-2.3646,-2.4796,-2.5361,-2.4917,-2.6219,-2.6703,-2.5988,-2.5804,-2.5728,-2.5464,-2.5284,-2.5422,-2.5847,-2.5647,-2.5968,-2.6642,-2.7035,-2.7185,-2.7267,-2.8821,-2.9447,-1.9341,-1.7874,0.0,-1.714,-1.605,-1.3862,-1.0516,0.0,0.0,0.0,-0.589,-0.6684,0.0,-0.0116,-0.279,-0.7645,-0.5612,-0.3657,-0.3947,-0.2796,-0.1977,-0.231,-0.2553,-0.3137,-0.4271,-0.5105,-0.5602,-0.5756,-0.6029,-0.6186,-0.5988,-0.5391,-0.5152,-0.5152,-0.4838,-0.4694,-0.4474,-0.5289,-0.5805,-0.6238,-0.7736,-0.8692,-0.9023,-1.0025,-1.0911,-1.1787,-1.1678,-1.1787,-1.2005,-1.2223,-1.2327,-1.2441,-1.2441,-1.2441,-1.2436,-1.2332,-1.2114,-1.2001,-1.1896,-1.0903,-0.9684,-0.8796,-0.7689,-0.647,-0.5584,-0.5917,-0.6712,-0.6799,-0.8364,-1.0047,-1.047,-1.1532,-1.2533,-1.2716,-1.2852,-1.2899,-1.2942,-1.3458,-1.3878,-1.3974,-1.5046,-1.6216,-1.7132,-1.832,-1.9578,-2.0864,-2.21,-2.3173,-2.417,-2.4035,-2.3971,-2.4315,-2.5141,-2.561,-2.5473,-2.6423,-2.6802,-2.6223,-2.6005,-2.5895,-2.5968,-2.5766,-2.598,-2.6517,-2.6389,-2.6632,-2.7185,-2.7185,-2.7185,-2.7255,-2.853,-2.916,-1.6346,0.0,0.0,-1.2896,-1.2432,0.0,-0.6935,-0.4867,-0.3452,-0.1403,-0.0822,-0.0587,-0.0469,-0.1159,-0.2304,-0.4205,-0.3197,-0.2362,-0.251,-0.2291,-0.1825,-0.1234,-0.295,-0.4214,-0.4268,-0.5906,-0.6804,-0.6331,-0.6901,-0.7123,-0.6616,-0.625,-0.6006,-0.6004,-0.5892,-0.581,-0.5633,-0.6562,-0.7034,-0.6922,-0.8913,-0.9908,-1.0017,-1.0574,-1.124,-1.1896,-1.1678,-1.1678,-1.1896,-1.2005,-1.211,-1.2332,-1.2436,-1.2441,-1.2332,-1.2114,-1.2005,-1.2005,-1.1787,-1.0903,-1.0017,-0.9908,-0.9127,-0.8125,-0.8014,-0.8125,-0.8288,-0.8536,-0.9443,-1.0591,-1.1418,-1.2147,-1.2843,-1.2774,-1.2995,-1.324,-1.3165,-1.4158,-1.5145,-1.5352,-1.6903,-1.8341,-1.8856,-2.0397,-2.1755,-2.2503,-2.391,-2.4852,-2.4824,-2.4815,-2.4771,-2.4785,-2.5486,-2.5961,-2.625,-2.6507,-2.6671,-2.6638,-2.6253,-2.6218,-2.6528,-2.6483,-2.6483,-2.661,-2.6976,-2.7221,-2.7348,-2.7348,-2.7348,-2.7348,-2.8395,-2.887,-1.9388,-1.7503,0.0,0.0,-1.1164,-0.806,-0.6495,-0.4599,-0.271,-0.1812,-0.1604,-0.2072,-0.386,-0.4678,-0.5492,-0.714,-0.6408,-0.5487,-0.4834,-0.405,-0.3485,-0.336,-0.393,-0.4856,-0.6148,-0.6863,-0.7497,-0.7968,-0.8119,-0.8031,-0.7707,-0.7115,-0.6761,-0.6412,-0.6009,-0.572,-0.5654,-0.6993,-0.7949,-0.8465,-1.0017,-1.1232,-1.1778,-1.1564,-1.135,-1.1236,-1.1236,-1.1236,-1.1345,-1.1782,-1.2005,-1.2114,-1.2332,-1.2441,-1.2436,-1.2332,-1.2327,-1.2327,-1.2223,-1.211,-1.1669,-1.0453,-0.99,-0.9567,-0.8345,-0.8789,-0.9691,-0.9761,-1.0974,-1.2445,-1.3575,-1.4128,-1.4569,-1.558,-1.5094,-1.4632,-1.5468,-1.6157,-1.648,-1.6342,-1.7572,-1.8867,-1.9636,-2.1038,-2.2832,-2.4988,-2.6724,-2.7658,-2.721,-2.6894,-2.6577,-2.6686,-2.696,-2.7077,-2.6731,-2.7336,-2.7531,-2.7153,-2.6986,-2.694,-2.7021,-2.631,-2.646,-2.7545,-2.7287,-2.7514,-2.8259,-2.8259,-2.8259,-2.8259,-2.8949,-2.9484,-1.7754,0.0,0.0,-1.2767,0.0,-0.6547,-0.6154,-0.4364,-0.2803,-0.2356,-0.226,-0.2833,-0.4711,-0.5412,-0.6331,-0.8298,-0.7499,-0.649,-0.5708,-0.5071,-0.4644,-0.442,-0.5096,-0.6037,-0.6944,-0.7598,-0.8214,-0.8762,-0.8775,-0.8685,-0.8634,-0.8161,-0.7806,-0.7451,-0.7148,-0.6975,-0.6808,-0.8543,-0.9578,-1.0017,-1.1489,-1.2223,-1.2327,-1.1787,-1.1459,-1.1126,-1.0907,-1.1021,-1.1126,-1.1568,-1.1896,-1.2114,-1.2659,-1.2876,-1.2876,-1.3197,-1.3408,-1.3619,-1.3619,-1.383,-1.3932,-1.3161,-1.2935,-1.2827,-1.205,-1.2271,-1.296,-1.3068,-1.3747,-1.4657,-1.5532,-1.577,-1.6134,-1.7392,-1.6778,-1.5945,-1.6587,-1.7429,-1.8026,-1.8203,-1.937,-2.0666,-2.1616,-2.3271,-2.5219,-2.756,-2.8463,-2.8827,-2.8485,-2.8072,-2.7755,-2.7708,-2.7882,-2.7893,-2.782,-2.7939,-2.7975,-2.7809,-2.7472,-2.7649,-2.8323,-2.7889,-2.7822,-2.8339,-2.8512,-2.8733,-2.8961,-2.8961,-2.8803,-2.8657,-2.8961,-2.9496,-1.5732,0.0,-1.5102,-1.044,-0.7818,0.0,-0.5929,-0.4587,-0.325,-0.2917,-0.2806,-0.3139,-0.4475,-0.5146,-0.6151,-0.8279,-0.7718,-0.672,-0.6179,-0.5914,-0.5629,-0.5186,-0.6201,-0.7156,-0.7413,-0.8241,-0.8971,-0.9258,-0.9278,-0.921,-0.9329,-0.9095,-0.8842,-0.8456,-0.848,-0.8406,-0.8231,-0.9873,-1.098,-1.1226,-1.2626,-1.2985,-1.2327,-1.1787,-1.1459,-1.1131,-1.0911,-1.0911,-1.1126,-1.1459,-1.1787,-1.2114,-1.2989,-1.3418,-1.3635,-1.4164,-1.4798,-1.5221,-1.5221,-1.5541,-1.5861,-1.5962,-1.5962,-1.5962,-1.5962,-1.5962,-1.601,-1.6139,-1.6235,-1.6423,-1.7066,-1.7331,-1.7921,-1.9092,-1.8846,-1.815,-1.7929,-1.8933,-2.0089,-2.0604,-2.2062,-2.3397,-2.4331,-2.6282,-2.8366,-2.9818,-2.9932,-2.9763,-2.9587,-2.9036,-2.8815,-2.8847,-2.8634,-2.8711,-2.8971,-2.8614,-2.8503,-2.8681,-2.8336,-2.8718,-2.9846,-2.9986,-2.9872,-2.9471,-3.0152,-3.0228,-2.9781,-2.9639,-2.9406,-2.9028,-2.8961,-2.9263,0.0,0.0,-1.3096,0.0,-0.8341,-0.7056,0.0,-0.526,-0.4145,-0.3587,-0.3029,-0.3029,-0.4367,-0.5256,-0.6146,-0.7595,-0.782,-0.7639,-0.7185,-0.664,-0.6455,-0.6778,-0.7052,-0.7651,-0.8831,-0.9202,-0.9473,-0.9647,-0.967,-0.9559,-0.9335,-0.9217,-0.9039,-0.8561,-0.8793,-0.8677,-0.8193,-0.932,-1.0364,-1.1143,-1.2555,-1.2985,-1.2327,-1.1787,-1.1568,-1.1568,-1.1236,-1.1017,-1.1126,-1.1673,-1.2005,-1.2114,-1.2989,-1.3732,-1.4471,-1.4995,-1.563,-1.6162,-1.6162,-1.6068,-1.5962,-1.6162,-1.6268,-1.6268,-1.6268,-1.6268,-1.6174,-1.601,-1.6186,-1.6811,-1.7941,-1.9192,-2.0529,-2.2108,-2.2894,-2.3046,-2.1733,-2.2071,-2.2915,-2.3682,-2.5263,-2.6923,-2.8119,-3.0068,-3.1341,-3.0899,-3.1961,-3.2355,-3.1508,-3.0883,-3.0633,-3.0831,-3.0043,-2.9665,-2.9858,-3.0034,-3.0084,-3.0084,-3.0637,-3.1079,-3.1228,-3.1756,-3.1988,-3.1915,-3.1536,-3.1315,-3.1241,-3.0532,-3.0165,-3.0088,-2.9341,-2.9431,-1.7592,-1.4532,-1.1486,0.0,-0.8008,-0.6942,-0.615,-0.526,-0.447,-0.3713,-0.3301,-0.3448,-0.4777,-0.5106,-0.5459,-0.6764,-0.6548,-0.6336,-0.638,-0.6325,-0.6474,-0.7046,-0.7586,-0.8203,-0.91,-0.9349,-0.9503,-0.9798,-0.9822,-0.9822,-0.9822,-0.9744,-0.955,-0.9367,-0.9347,-0.9362,-0.9053,-1.0623,-1.2051,-1.329,-1.3624,-1.3527,-1.2876,-1.2114,-1.1787,-1.1787,-1.1345,-1.1345,-1.1882,-1.2201,-1.2476,-1.2889,-1.4024,-1.47,-1.5207,-1.6131,-1.685,-1.7361,-1.7361,-1.7586,-1.8142,-1.8818,-1.914,-1.9494,-1.9987,-2.0192,-2.0192,-2.0089,-2.0197,-2.0519,-2.1455,-2.2164,-2.2866,-2.3808,-2.4763,-2.5402,-2.5198,-2.4632,-2.4436,-2.5305,-2.7028,-2.87,-3.0146,-3.1564,-3.2499,-3.2641,-3.3028,-3.31,-3.2394,-3.1853,-3.1584,-3.1849,-3.1932,-3.1883,-3.1757,-3.1954,-3.2045,-3.1935,-3.1917,-3.2177,-3.2777,-3.3073,-3.3367,-3.3796,-3.2946,-3.2362,-3.1988,-3.1756,-3.1462,-3.1254,-3.0594,-3.0456,0.0,0.0,-1.1772,-0.9276,-0.8317,-0.7516,0.0,-0.5247,-0.4786,-0.3859,-0.3807,-0.4217,-0.5321,-0.4965,-0.4868,-0.6089,-0.5871,-0.5762,-0.6368,-0.6679,-0.7072,-0.7608,-0.8166,-0.8791,-0.9281,-0.9406,-0.9544,-0.9802,-0.9788,-0.9889,-1.0247,-1.0101,-1.0119,-1.008,-1.0113,-1.0029,-0.9953,-1.1729,-1.3347,-1.4713,-1.4493,-1.4067,-1.3527,-1.2709,-1.2356,-1.2464,-1.1706,-1.1788,-1.2373,-1.2841,-1.3289,-1.369,-1.5149,-1.5783,-1.6179,-1.7285,-1.8178,-1.8875,-1.8875,-1.9527,-2.044,-2.1293,-2.1765,-2.221,-2.309,-2.3422,-2.344,-2.3439,-2.3574,-2.3665,-2.4042,-2.4524,-2.5013,-2.5402,-2.6547,-2.7693,-2.7902,-2.6948,-2.6461,-2.7327,-2.8769,-3.0231,-3.1605,-3.2518,-3.3074,-3.3587,-3.344,-3.3167,-3.2524,-3.2196,-3.2213,-3.2562,-3.3233,-3.3527,-3.3346,-3.3641,-3.3779,-3.3546,-3.3167,-3.3269,-3.407,-3.407,-3.4356,-3.4868,-3.4099,-3.3465,-3.3017,-3.3142,-3.2901,-3.2478,-3.1844,-3.1487,0.0,-1.6524,0.0,-1.1285,-1.0371,-0.9624,-0.6352,-0.5524,-0.515,-0.3915,-0.4647,-0.5633,-0.5629,-0.481,-0.4579,-0.5871,-0.6574,-0.7314,-0.8732,-0.876,-0.8692,-0.9179,-0.9074,-0.9284,-0.9674,-0.9683,-0.9659,-0.9812,-0.9696,-0.9737,-0.9972,-1.0171,-1.036,-1.0435,-1.0795,-1.083,-1.0288,-1.201,-1.3197,-1.3727,-1.46,-1.4713,-1.4159,-1.3508,-1.3409,-1.3625,-1.277,-1.2341,-1.2363,-1.376,-1.4361,-1.4564,-1.5878,-1.698,-1.7775,-1.8277,-1.9447,-2.0716,-2.0716,-2.1379,-2.2123,-2.2519,-2.2717,-2.2988,-2.3537,-2.3647,-2.3731,-2.3923,-2.4131,-2.4328,-2.4426,-2.5875,-2.7327,-2.7327,-2.9179,-3.0586,-2.9338,-2.9452,-3.0114,-3.0566,-3.1167,-3.1877,-3.3002,-3.3599,-3.3611,-3.2731,-3.3155,-3.3059,-3.1478,-3.1895,-3.2562,-3.2982,-3.3366,-3.3645,-3.4113,-3.4488,-3.4754,-3.4725,-3.4787,-3.4787,-3.4854,-3.4854,-3.4868,-3.4935,-3.4868,-3.4787,-3.4787,-3.4744,-3.4368,-3.3659,-3.2804,-3.211,0.0,0.0,0.0,-1.3461,-1.2347,-1.1339,-0.9281,-0.8382,-0.7676,-0.6546,-0.6643,-0.7098,-0.7025,-0.6542,-0.6327,-0.6873,-0.6887,-0.7263,-0.8153,-0.84,-0.863,-0.908,-0.9268,-0.9499,-0.968,-0.9639,-0.9632,-0.9683,-0.9639,-1.0148,-1.1193,-1.1574,-1.2226,-1.3276,-1.3637,-1.3785,-1.3593,-1.4174,-1.4747,-1.5062,-1.5234,-1.5019,-1.4648,-1.3931,-1.3394,-1.3153,-1.365,-1.3897,-1.3959,-1.3993,-1.4618,-1.5789,-1.7316,-1.8187,-1.8573,-2.007,-2.1011,-2.157,-2.157,-2.208,-2.2741,-2.3592,-2.4234,-2.4888,-2.5722,-2.6245,-2.6489,-2.6557,-2.6607,-2.6798,-2.7263,-2.7945,-2.8888,-3.0135,-3.1388,-3.2277,-3.2115,-3.2028,-3.204,-3.2227,-3.2873,-3.3448,-3.3572,-3.401,-3.3974,-3.3101,-3.3191,-3.2926,-3.1797,-3.2388,-3.3003,-3.3506,-3.4566,-3.5456,-3.5815,-3.6101,-3.6358,-3.6482,-3.5726,-3.5487,-3.5904,-3.5517,-3.5294,-3.5294,-3.5798,-3.5874,-3.5554,-3.576,-3.5745,-3.5457,-3.4946,-3.4073,-1.7895,0.0,0.0,0.0,-1.4468,-1.3575,-1.1585,-1.0695,-1.0224,-0.9367,-0.9583,-0.994,-1.0123,-1.0347,-1.017,-0.902,-0.9035,-0.9395,-1.0375,-1.0261,-1.0233,-1.0383,-1.0213,-1.0188,-1.031,-1.0262,-1.0347,-1.0696,-1.0755,-1.136,-1.2593,-1.3044,-1.3769,-1.4689,-1.4843,-1.4849,-1.4924,-1.4978,-1.521,-1.5601,-1.5383,-1.5281,-1.5291,-1.4701,-1.4167,-1.3783,-1.4484,-1.455,-1.4407,-1.4624,-1.5331,-1.6464,-1.8087,-1.8843,-1.9214,-2.082,-2.1752,-2.2306,-2.2385,-2.2909,-2.3762,-2.4496,-2.5283,-2.6194,-2.7019,-2.7586,-2.8075,-2.8236,-2.8161,-2.8136,-2.8609,-2.9056,-2.9862,-3.161,-3.2782,-3.3551,-3.3887,-3.3559,-3.325,-3.325,-3.3783,-3.4312,-3.421,-3.4363,-3.4399,-3.3858,-3.3832,-3.3512,-3.2549,-3.3392,-3.4123,-3.4299,-3.5815,-3.6809,-3.6921,-3.7134,-3.7282,-3.7404,-3.6417,-3.6133,-3.6776,-3.6178,-3.5833,-3.5833,-3.6195,-3.6325,-3.6179,-3.6738,-3.6857,-3.6565,-3.6119,-3.5142,0.0,0.0,0.0,-1.6709,-1.6521,-1.611,-1.2933,-1.2427,-1.2601,-1.2157,-1.3149,-1.4364,-1.4927,-1.6143,-1.6005,-1.257,-1.2949,-1.4143,-1.5376,-1.4445,-1.3622,-1.326,-1.2056,-1.1374,-1.1816,-1.1786,-1.202,-1.2908,-1.3053,-1.3377,-1.4035,-1.4478,-1.468,-1.4647,-1.4124,-1.38,-1.3959,-1.4106,-1.451,-1.5052,-1.5004,-1.532,-1.5865,-1.5803,-1.5787,-1.5732,-1.5249,-1.4262,-1.3301,-1.5609,-1.6567,-1.672,-1.8037,-1.8929,-1.9571,-2.0466,-2.1627,-2.2843,-2.3096,-2.4059,-2.52,-2.52,-2.5797,-2.6736,-2.7173,-2.7665,-2.8156,-2.8626,-2.8407,-2.8036,-2.8025,-2.9181,-3.0572,-3.1623,-3.3155,-3.438,-3.446,-3.4104,-3.3746,-3.3746,-3.4056,-3.445,-3.4986,-3.4967,-3.4857,-3.4952,-3.5047,-3.4808,-3.3796,-3.4961,-3.5768,-3.5411,-3.6793,-3.7616,-3.7244,-3.7331,-3.7389,-3.7404,-3.6806,-3.6731,-3.736,-3.6791,-3.6462,-3.6492,-3.6014,-3.6079,-3.6758,-3.7622,-3.7658,-3.6975,-3.6142,-3.5151,-1.9415,0.0,0.0,0.0,0.0,0.0,-1.5319,-1.5192,-1.5271,-1.4695,-1.6327,-1.7764,-1.7747,-2.0274,-2.2188,-2.1228,-1.8546,-1.6592,-1.6827,-1.6615,-1.6098,-1.4666,-1.4782,-1.4595,-1.359,-1.3649,-1.4023,-1.4436,-1.457,-1.5321,-1.7279,-1.7765,-1.7617,-1.6826,-1.589,-1.5161,-1.4793,-1.4862,-1.4767,-1.4515,-1.5133,-1.5329,-1.5305,-1.5421,-1.5198,-1.4774,-1.5343,-1.4939,-1.4008,-1.4846,-1.5591,-1.6416,-1.8369,-1.9524,-2.0206,-2.2007,-2.3298,-2.4003,-2.409,-2.4605,-2.52,-2.52,-2.584,-2.6622,-2.7006,-2.7623,-2.8315,-2.8724,-2.8407,-2.8129,-2.8813,-3.0689,-3.2326,-3.226,-3.3339,-3.4353,-3.4014,-3.4079,-3.4251,-3.4251,-3.4259,-3.4366,-3.4573,-3.4848,-3.4995,-3.4834,-3.5277,-3.5423,-3.474,-3.5242,-3.592,-3.6447,-3.6574,-3.704,-3.7994,-3.7237,-3.6941,-3.7375,-3.6387,-3.6073,-3.6716,-3.6118,-3.5998,-3.6477,-3.6947,-3.724,-3.7436,-3.7968,-3.7842,-3.7124,-3.5878,-3.509,0.0,0.0,0.0,-1.9469,0.0,0.0,-1.8074,-1.8192,-1.8448,-1.878,-2.0091,-2.1419,-2.1801,-2.3748,-2.5535,-2.621,-2.3966,-2.2001,-2.1775,-2.1083,-2.0007,-1.8401,-1.8052,-1.7255,-1.5862,-1.6074,-1.6581,-1.7002,-1.7271,-1.7996,-1.9184,-1.8969,-1.8462,-1.7675,-1.6867,-1.5844,-1.4698,-1.488,-1.4511,-1.3528,-1.4244,-1.4827,-1.5064,-1.5503,-1.551,-1.533,-1.5882,-1.5593,-1.4643,-1.496,-1.5618,-1.6533,-1.8398,-1.9601,-2.036,-2.1959,-2.3088,-2.3835,-2.3995,-2.4459,-2.4946,-2.5031,-2.5624,-2.636,-2.6896,-2.7489,-2.8228,-2.8702,-2.8437,-2.8187,-2.8652,-3.0421,-3.1911,-3.1672,-3.283,-3.3831,-3.3087,-3.3351,-3.3799,-3.4424,-3.4741,-3.4761,-3.4479,-3.5142,-3.5565,-3.5065,-3.5759,-3.6062,-3.5515,-3.5878,-3.633,-3.666,-3.6919,-3.7349,-3.7903,-3.73,-3.703,-3.7389,-3.6462,-3.6327,-3.724,-3.6641,-3.6611,-3.727,-3.7594,-3.7722,-3.7857,-3.8074,-3.7704,-3.6664,-3.5853,-3.5415,0.0,0.0,0.0,-2.0324,-2.0089,0.0,-2.0381,-2.0783,-2.1385,-2.2823,-2.3644,-2.452,-2.5805,-2.6369,-2.7165,-2.8519,-2.8764,-2.8533,-2.8123,-2.633,-2.4623,-2.3434,-2.1749,-2.0075,-1.8673,-1.9069,-1.9648,-1.9952,-2.0703,-2.0756,-2.0077,-1.8987,-1.8052,-1.7623,-1.7133,-1.5906,-1.407,-1.4515,-1.4033,-1.2559,-1.3205,-1.4063,-1.5045,-1.5638,-1.6137,-1.6473,-1.6451,-1.5952,-1.5267,-1.5742,-1.6124,-1.663,-1.8204,-1.9323,-2.0129,-2.101,-2.1981,-2.2944,-2.3355,-2.3903,-2.4529,-2.4798,-2.5305,-2.5977,-2.6691,-2.7298,-2.793,-2.8668,-2.8768,-2.8545,-2.8324,-2.9408,-3.0532,-3.064,-3.1915,-3.2893,-3.1939,-3.2127,-3.2742,-3.3937,-3.4766,-3.5046,-3.438,-3.5408,-3.6042,-3.5408,-3.6171,-3.6619,-3.6084,-3.6591,-3.6847,-3.6357,-3.7396,-3.7883,-3.7449,-3.7345,-3.7345,-3.7404,-3.6821,-3.703,-3.8227,-3.7659,-3.7644,-3.8377,-3.7955,-3.7842,-3.8059,-3.7855,-3.7203,-3.608,-3.6067,-3.61,-2.0758,-2.0758,-2.1121,-2.0736,-2.09,0.0,-1.9887,-2.0365,-2.1062,-2.1265,-2.3019,-2.4658,-2.5179,-2.6917,-2.8602,-2.9305,-3.0536,-3.0808,-2.8864,-2.8266,-2.7633,-2.6666,-2.6272,-2.5263,-2.3014,-2.335,-2.335,-2.2619,-2.2902,-2.2209,-2.046,-1.9382,-1.8169,-1.6558,-1.5953,-1.5422,-1.4758,-1.4904,-1.4424,-1.3323,-1.3855,-1.4244,-1.4484,-1.4804,-1.5285,-1.6001,-1.5903,-1.5602,-1.5109,-1.6339,-1.649,-1.613,-1.7936,-1.9146,-1.9885,-2.0828,-2.1894,-2.2954,-2.3197,-2.3744,-2.4307,-2.4815,-2.5115,-2.5434,-2.6075,-2.7195,-2.8388,-2.9079,-2.9855,-3.0187,-2.9376,-3.0443,-3.1628,-3.1235,-3.1727,-3.2143,-3.1563,-3.1716,-3.2025,-3.228,-3.244,-3.2586,-3.2759,-3.3623,-3.4393,-3.4868,-3.5654,-3.637,-3.6842,-3.6707,-3.6738,-3.7112,-3.6537,-3.6432,-3.733,-3.6941,-3.6881,-3.7375,-3.6821,-3.6821,-3.7569,-3.7,-3.721,-3.8362,-3.8348,-3.8264,-3.833,-3.7014,-3.644,-3.6537,-3.6566,-3.6492,-2.1029,-2.105,-2.1462,-2.1693,-2.1596,0.0,0.0,-2.2002,-2.2419,-2.3553,-2.4896,-2.625,-2.7168,-2.8462,-2.9727,-3.0526,-3.1325,-3.1639,-3.0729,-3.0946,-3.0778,-2.9791,-2.9508,-2.8495,-2.5984,-2.6235,-2.592,-2.4646,-2.3643,-2.273,-2.1653,-2.0268,-1.9044,-1.8112,-1.7538,-1.67,-1.5419,-1.5235,-1.4663,-1.3511,-1.419,-1.458,-1.4867,-1.5242,-1.5717,-1.6183,-1.5732,-1.5368,-1.5102,-1.6414,-1.6703,-1.662,-1.837,-1.9399,-1.9888,-2.0557,-2.1331,-2.2205,-2.2451,-2.299,-2.3565,-2.3977,-2.4147,-2.4419,-2.5714,-2.7464,-2.9103,-2.9463,-3.0135,-3.0586,-3.0253,-3.1081,-3.1902,-3.177,-3.1931,-3.1977,-3.1535,-3.1394,-3.132,-3.1158,-3.1158,-3.1394,-3.1896,-3.2969,-3.3709,-3.3318,-3.464,-3.5648,-3.5688,-3.5896,-3.6235,-3.6849,-3.6656,-3.6846,-3.7827,-3.7643,-3.7516,-3.7767,-3.7243,-3.7216,-3.7729,-3.7861,-3.8585,-3.9908,-3.9594,-3.9433,-3.9433,-3.8116,-3.7325,-3.7033,-3.7062,-3.7027,-2.1412,-2.1586,-2.2139,-2.2752,-2.2559,-2.2602,0.0,0.0,0.0,-2.6509,-2.7201,-2.7809,-2.934,-2.9784,-3.0239,-3.1204,-3.1376,-3.1639,-3.2429,-3.3114,-3.3241,-3.2329,-3.1683,-3.0456,-2.8349,-2.8147,-2.7519,-2.6064,-2.4174,-2.2999,-2.2905,-2.1037,-1.9985,-2.0068,-1.9446,-1.8241,-1.6358,-1.5906,-1.5051,-1.38,-1.4472,-1.4956,-1.5432,-1.5812,-1.6197,-1.6553,-1.572,-1.5273,-1.5095,-1.6308,-1.691,-1.7245,-1.8895,-1.9794,-2.0098,-2.0264,-2.085,-2.162,-2.1869,-2.2321,-2.2829,-2.3231,-2.3343,-2.3886,-2.5939,-2.7891,-2.9523,-2.9893,-3.0365,-3.0879,-3.1179,-3.1676,-3.2173,-3.2331,-3.2331,-3.2187,-3.1736,-3.132,-3.0973,-3.052,-3.0533,-3.0761,-3.1233,-3.2407,-3.2923,-3.1936,-3.3479,-3.4687,-3.4249,-3.4905,-3.5604,-3.618,-3.6733,-3.7355,-3.8121,-3.8196,-3.8223,-3.8335,-3.7747,-3.7715,-3.8542,-3.9241,-4.0195,-4.1509,-4.0879,-4.0642,-4.0706,-3.9834,-3.8871,-3.7824,-3.7884,-3.7943,-2.2443,-2.2492,-2.3231,-2.3629,-2.4221,-2.473,-2.5035,0.0,-2.5823,-2.7457,0.0,-2.8102,-2.9373,0.0,0.0,-2.9943,-3.051,-3.1199,-3.2336,-3.3005,-3.3337,-3.3492,-3.236,-3.1269,-3.0318,-2.9019,-2.7945,-2.709,-2.5372,-2.3894,-2.2971,-2.123,-2.0365,-2.0503,-1.9422,-1.8611,-1.8149,-1.7239,-1.6211,-1.4956,-1.5051,-1.5146,-1.5432,-1.5242,-1.5724,-1.6567,-1.5961,-1.5484,-1.5116,-1.6722,-1.7367,-1.739,-1.8975,-1.9951,-2.0489,-2.0566,-2.1076,-2.1769,-2.2107,-2.2471,-2.2929,-2.3452,-2.4061,-2.4903,-2.7096,-2.8303,-2.9184,-3.0188,-3.1405,-3.235,-3.2031,-3.2533,-3.3185,-3.3311,-3.3227,-3.2875,-3.2146,-3.1723,-3.1233,-3.0508,-3.0444,-3.052,-3.0761,-3.0963,-3.1264,-3.1736,-3.2444,-3.3185,-3.3796,-3.4505,-3.5198,-3.5752,-3.5876,-3.6341,-3.7448,-3.7507,-3.8012,-3.9241,-3.8104,-3.8258,-4.0117,-4.0324,-4.0733,-4.1459,-4.1119,-4.1084,-4.1378,-4.1203,-4.0453,-3.9295,-3.9572,-3.9831,-2.2316,-2.3046,-2.416,-2.4421,-2.5312,-2.6249,-2.6816,-2.6532,-2.6732,-2.8484,0.0,0.0,0.0,0.0,0.0,0.0,-3.1751,-3.2076,-3.243,-3.3063,-3.3564,-3.4052,-3.3208,-3.1995,-3.0527,-2.8882,-2.7406,-2.6224,-2.475,-2.3623,-2.3211,-2.2016,-2.1069,-2.0413,-2.0051,-1.9155,-1.7613,-1.7059,-1.6494,-1.6008,-1.6008,-1.6109,-1.6305,-1.6211,-1.6303,-1.6494,-1.5812,-1.5679,-1.5966,-1.6881,-1.7702,-1.8603,-1.9766,-2.0411,-2.0789,-2.0886,-2.1316,-2.1778,-2.1788,-2.2066,-2.2424,-2.2677,-2.4007,-2.5735,-2.6864,-2.8733,-3.0497,-3.1123,-3.2144,-3.3021,-3.2816,-3.3325,-3.3977,-3.4045,-3.3879,-3.3575,-3.3143,-3.2362,-3.1576,-3.1158,-3.0722,-3.0444,-3.0533,-3.0533,-3.0596,-3.0934,-3.1955,-3.2832,-3.3101,-3.4153,-3.5234,-3.615,-3.6197,-3.6708,-3.7888,-3.7963,-3.8185,-3.8634,-3.8558,-3.9265,-4.099,-4.1103,-4.1573,-4.238,-4.2294,-4.2395,-4.2714,-4.2522,-4.2179,-4.1845,-4.1135,-4.086,-2.2362,-2.3347,-2.4469,-2.5173,-2.607,-2.7066,-2.7996,-2.7665,-2.7736,-2.9811,-3.0069,0.0,0.0,0.0,-3.1769,-3.221,0.0,-3.2495,-3.2638,-3.3015,-3.3476,-3.3886,-3.3377,-3.2322,-3.06,-2.9171,-2.762,-2.6232,-2.4805,-2.3773,-2.3538,-2.2551,-2.1606,-2.0593,-2.0331,-1.9338,-1.7434,-1.6965,-1.6683,-1.6683,-1.6683,-1.6784,-1.716,-1.698,-1.6807,-1.6569,-1.6049,-1.6082,-1.6514,-1.7237,-1.8292,-1.9492,-2.0391,-2.0954,-2.1175,-2.1272,-2.1512,-2.1883,-2.1731,-2.1883,-2.2252,-2.2542,-2.4209,-2.6124,-2.6931,-2.9167,-3.1462,-3.1812,-3.2693,-3.3548,-3.3563,-3.4045,-3.4534,-3.4616,-3.4452,-3.4221,-3.3865,-3.3003,-3.2146,-3.1809,-3.1084,-3.057,-3.057,-3.0432,-3.0368,-3.0583,-3.175,-3.2618,-3.2832,-3.4085,-3.535,-3.6322,-3.6508,-3.7027,-3.8049,-3.8146,-3.8194,-3.8229,-3.9222,-4.0329,-4.1504,-4.1662,-4.2093,-4.2974,-4.2851,-4.299,-4.3312,-4.3096,-4.3195,-4.3558,-4.2426,-4.1906,-2.3,-2.3511,-2.4104,-2.5451,-2.6154,-2.686,-2.8102,-2.8528,-2.9289,-3.1544,-3.1461,-3.1269,-3.2265,-3.1685,-3.1217,-3.1668,-3.1518,0.0,0.0,-3.292,-3.2784,-3.2816,-3.24,-3.1828,-3.1217,-3.0426,-2.9332,-2.7998,-2.6276,-2.4917,-2.3828,-2.2462,-2.1695,-2.1695,-2.0085,-1.8996,-1.8342,-1.7434,-1.6979,-1.6979,-1.6683,-1.6965,-1.7621,-1.7103,-1.6857,-1.6911,-1.7031,-1.69,-1.6607,-1.8224,-1.9177,-1.9719,-2.0789,-2.1436,-2.1731,-2.1578,-2.1731,-2.2111,-2.2101,-2.2252,-2.2553,-2.3779,-2.482,-2.6042,-2.7793,-2.9679,-3.1356,-3.1902,-3.3027,-3.4128,-3.4346,-3.4601,-3.4935,-3.5148,-3.5001,-3.4654,-3.3934,-3.3575,-3.3227,-3.2475,-3.1576,-3.0895,-3.0895,-3.0419,-3.0368,-3.1084,-3.1723,-3.2376,-3.3073,-3.4341,-3.535,-3.5849,-3.6383,-3.6907,-3.748,-3.7555,-3.7796,-3.8476,-4.0435,-4.1581,-4.1598,-4.1932,-4.2222,-4.2585,-4.2285,-4.2285,-4.2648,-4.2648,-4.2941,-4.3589,-4.3252,-4.3229,-2.1539,-2.2309,-2.3196,-2.4893,-2.5956,-2.7077,-2.9179,-2.9284,-2.9375,-3.1076,-3.099,-3.0827,-3.1188,-3.1445,-3.1596,-3.1949,-3.262,-3.3257,0.0,-3.4059,-3.4139,-3.397,-3.2859,-3.1918,-3.1472,-2.9312,-2.7586,-2.6676,-2.4782,-2.3319,-2.2688,-2.2054,-2.1329,-2.052,-1.9985,-1.9171,-1.8172,-1.7721,-1.7535,-1.7714,-1.7434,-1.7527,-1.7986,-1.7545,-1.7543,-1.7914,-1.7507,-1.7821,-1.8574,-1.9152,-2.0187,-2.1497,-2.2124,-2.2521,-2.2703,-2.1959,-2.1959,-2.2327,-2.2478,-2.2628,-2.2916,-2.3841,-2.5154,-2.6688,-2.8581,-3.0398,-3.1983,-3.2973,-3.3819,-3.4481,-3.4563,-3.475,-3.4935,-3.5001,-3.4935,-3.4802,-3.4467,-3.3948,-3.3367,-3.3017,-3.229,-3.1709,-3.1709,-3.1576,-3.1368,-3.1057,-3.206,-3.2932,-3.3143,-3.4394,-3.535,-3.5849,-3.6383,-3.6907,-3.748,-3.748,-3.7834,-3.8606,-3.9014,-3.9437,-3.9963,-4.068,-4.1174,-4.1525,-4.2322,-4.2863,-4.317,-4.2298,-4.2441,-4.3488,-4.3072,-4.3355,-2.0232,-2.095,-2.187,-2.3843,-2.4727,-2.594,-2.8746,-2.8871,-2.8772,-3.0359,-3.032,-2.9942,-2.9428,-3.0146,-3.0755,-3.0514,-3.1968,-3.3345,0.0,-3.4684,-3.4898,-3.5141,-3.3953,-3.2684,-3.1636,-2.9993,-2.8228,-2.6572,-2.5048,-2.3696,-2.2479,-2.1891,-2.1069,-1.9985,-1.9712,-1.9263,-1.8365,-1.8179,-1.8272,-1.8719,-1.845,-1.8627,-1.9247,-1.858,-1.8655,-1.9246,-1.8885,-1.9307,-2.0324,-2.0633,-2.1704,-2.3147,-2.3356,-2.3588,-2.3768,-2.2745,-2.2456,-2.2553,-2.2927,-2.3213,-2.3632,-2.4541,-2.6003,-2.764,-2.9251,-3.0733,-3.2134,-3.3611,-3.4225,-3.4567,-3.5171,-3.5296,-3.5379,-3.5379,-3.5314,-3.5184,-3.4935,-3.4491,-3.3988,-3.3659,-3.3017,-3.2506,-3.2506,-3.2506,-3.229,-3.1769,-3.2563,-3.3297,-3.3589,-3.4558,-3.535,-3.5657,-3.6368,-3.7134,-3.7759,-3.828,-3.8581,-3.8654,-3.8811,-3.8996,-3.9144,-3.9673,-4.0272,-4.0789,-4.169,-4.2443,-4.3106,-4.2216,-4.2247,-4.3091,-4.303,-4.3421]}]]